<?xml version="1.0" encoding="UTF-8" standalone="no" ?>
<gpx xmlns="http://www.topografix.com/GPX/1/1" xmlns:xsi="http://www.w3.org/2001/XMLSchema-instance" xsi:schemaLocation="http://www.topografix.com/GPX/1/1 http://www.topografix.com/GPX/1/1/gpx.xsd" version="1.1" creator="VisuGPX - https://www.visugpx.com">
  <metadata>
    <name>PILON DU ROI</name>
    <desc><![CDATA[Rando facile,quelques passages délicats,paysage magnifique.]]></desc>
  </metadata>
  <trk>
    <name><![CDATA[2013-05-29-01]]></name>
    <trkseg>
      <trkpt lat="43.36596" lon="5.48823">
        <ele>205.1</ele>
        <time>2013-05-29T06:59:34Z</time>
      </trkpt>
      <trkpt lat="43.36595" lon="5.48834">
        <ele>186.3</ele>
        <time>2013-05-29T06:59:55Z</time>
      </trkpt>
      <trkpt lat="43.36595" lon="5.48836">
        <ele>183.5</ele>
        <time>2013-05-29T06:59:56Z</time>
      </trkpt>
      <trkpt lat="43.36604" lon="5.48842">
        <ele>189.6</ele>
        <time>2013-05-29T07:00:50Z</time>
      </trkpt>
      <trkpt lat="43.3661" lon="5.48836">
        <ele>187.6</ele>
        <time>2013-05-29T07:01:01Z</time>
      </trkpt>
      <trkpt lat="43.36611" lon="5.48835">
        <ele>188.3</ele>
        <time>2013-05-29T07:01:02Z</time>
      </trkpt>
      <trkpt lat="43.36625" lon="5.48824">
        <ele>190.8</ele>
        <time>2013-05-29T07:01:22Z</time>
      </trkpt>
      <trkpt lat="43.3663" lon="5.48814">
        <ele>192.6</ele>
        <time>2013-05-29T07:01:31Z</time>
      </trkpt>
      <trkpt lat="43.36634" lon="5.48804">
        <ele>194.8</ele>
        <time>2013-05-29T07:01:39Z</time>
      </trkpt>
      <trkpt lat="43.36639" lon="5.48795">
        <ele>194.1</ele>
        <time>2013-05-29T07:01:47Z</time>
      </trkpt>
      <trkpt lat="43.36644" lon="5.48786">
        <ele>192.6</ele>
        <time>2013-05-29T07:01:55Z</time>
      </trkpt>
      <trkpt lat="43.36651" lon="5.48777">
        <ele>196.8</ele>
        <time>2013-05-29T07:02:02Z</time>
      </trkpt>
      <trkpt lat="43.36651" lon="5.48776">
        <ele>197.6</ele>
        <time>2013-05-29T07:02:03Z</time>
      </trkpt>
      <trkpt lat="43.36664" lon="5.48764">
        <ele>203.8</ele>
        <time>2013-05-29T07:02:15Z</time>
      </trkpt>
      <trkpt lat="43.3667" lon="5.48757">
        <ele>205.8</ele>
        <time>2013-05-29T07:02:22Z</time>
      </trkpt>
      <trkpt lat="43.36674" lon="5.48746">
        <ele>210.1</ele>
        <time>2013-05-29T07:02:28Z</time>
      </trkpt>
      <trkpt lat="43.36679" lon="5.48737">
        <ele>201.5</ele>
        <time>2013-05-29T07:02:38Z</time>
      </trkpt>
      <trkpt lat="43.36685" lon="5.48728">
        <ele>198.3</ele>
        <time>2013-05-29T07:02:46Z</time>
      </trkpt>
      <trkpt lat="43.36692" lon="5.48721">
        <ele>198.8</ele>
        <time>2013-05-29T07:02:53Z</time>
      </trkpt>
      <trkpt lat="43.36699" lon="5.48714">
        <ele>199.1</ele>
        <time>2013-05-29T07:03:00Z</time>
      </trkpt>
      <trkpt lat="43.36706" lon="5.48706">
        <ele>198.8</ele>
        <time>2013-05-29T07:03:08Z</time>
      </trkpt>
      <trkpt lat="43.36707" lon="5.48705">
        <ele>199.5</ele>
        <time>2013-05-29T07:03:09Z</time>
      </trkpt>
      <trkpt lat="43.36714" lon="5.48687">
        <ele>200.3</ele>
        <time>2013-05-29T07:03:22Z</time>
      </trkpt>
      <trkpt lat="43.36716" lon="5.48676">
        <ele>202.6</ele>
        <time>2013-05-29T07:03:28Z</time>
      </trkpt>
      <trkpt lat="43.36719" lon="5.48666">
        <ele>199.5</ele>
        <time>2013-05-29T07:03:36Z</time>
      </trkpt>
      <trkpt lat="43.36722" lon="5.48655">
        <ele>200.1</ele>
        <time>2013-05-29T07:03:43Z</time>
      </trkpt>
      <trkpt lat="43.36724" lon="5.48643">
        <ele>198.1</ele>
        <time>2013-05-29T07:03:52Z</time>
      </trkpt>
      <trkpt lat="43.36726" lon="5.48632">
        <ele>197</ele>
        <time>2013-05-29T07:04:00Z</time>
      </trkpt>
      <trkpt lat="43.3673" lon="5.48621">
        <ele>196</ele>
        <time>2013-05-29T07:04:08Z</time>
      </trkpt>
      <trkpt lat="43.36736" lon="5.48612">
        <ele>194.6</ele>
        <time>2013-05-29T07:04:16Z</time>
      </trkpt>
      <trkpt lat="43.36737" lon="5.48611">
        <ele>194.3</ele>
        <time>2013-05-29T07:04:17Z</time>
      </trkpt>
      <trkpt lat="43.36751" lon="5.48602">
        <ele>193.3</ele>
        <time>2013-05-29T07:04:30Z</time>
      </trkpt>
      <trkpt lat="43.36758" lon="5.48598">
        <ele>198.3</ele>
        <time>2013-05-29T07:04:37Z</time>
      </trkpt>
      <trkpt lat="43.36765" lon="5.48593">
        <ele>201.5</ele>
        <time>2013-05-29T07:04:44Z</time>
      </trkpt>
      <trkpt lat="43.36773" lon="5.48588">
        <ele>200</ele>
        <time>2013-05-29T07:04:52Z</time>
      </trkpt>
      <trkpt lat="43.3678" lon="5.48582">
        <ele>198.1</ele>
        <time>2013-05-29T07:05:02Z</time>
      </trkpt>
      <trkpt lat="43.36788" lon="5.48578">
        <ele>200</ele>
        <time>2013-05-29T07:05:11Z</time>
      </trkpt>
      <trkpt lat="43.36796" lon="5.48576">
        <ele>203</ele>
        <time>2013-05-29T07:05:19Z</time>
      </trkpt>
      <trkpt lat="43.36797" lon="5.48576">
        <ele>203</ele>
        <time>2013-05-29T07:05:20Z</time>
      </trkpt>
      <trkpt lat="43.36812" lon="5.48583">
        <ele>201.5</ele>
        <time>2013-05-29T07:05:38Z</time>
      </trkpt>
      <trkpt lat="43.3682" lon="5.48588">
        <ele>200.8</ele>
        <time>2013-05-29T07:05:46Z</time>
      </trkpt>
      <trkpt lat="43.36827" lon="5.48593">
        <ele>200.6</ele>
        <time>2013-05-29T07:05:54Z</time>
      </trkpt>
      <trkpt lat="43.36834" lon="5.48598">
        <ele>200.3</ele>
        <time>2013-05-29T07:06:01Z</time>
      </trkpt>
      <trkpt lat="43.36844" lon="5.48604">
        <ele>200.8</ele>
        <time>2013-05-29T07:06:08Z</time>
      </trkpt>
      <trkpt lat="43.36851" lon="5.48608">
        <ele>203.5</ele>
        <time>2013-05-29T07:06:16Z</time>
      </trkpt>
      <trkpt lat="43.36859" lon="5.48612">
        <ele>203.6</ele>
        <time>2013-05-29T07:06:23Z</time>
      </trkpt>
      <trkpt lat="43.3686" lon="5.48612">
        <ele>203.8</ele>
        <time>2013-05-29T07:06:24Z</time>
      </trkpt>
      <trkpt lat="43.36876" lon="5.48616">
        <ele>200.6</ele>
        <time>2013-05-29T07:06:38Z</time>
      </trkpt>
      <trkpt lat="43.36883" lon="5.48613">
        <ele>200.8</ele>
        <time>2013-05-29T07:06:44Z</time>
      </trkpt>
      <trkpt lat="43.36891" lon="5.48609">
        <ele>200.3</ele>
        <time>2013-05-29T07:06:52Z</time>
      </trkpt>
      <trkpt lat="43.36899" lon="5.48605">
        <ele>200.8</ele>
        <time>2013-05-29T07:07:00Z</time>
      </trkpt>
      <trkpt lat="43.36907" lon="5.48606">
        <ele>203.5</ele>
        <time>2013-05-29T07:07:07Z</time>
      </trkpt>
      <trkpt lat="43.36915" lon="5.48612">
        <ele>202.3</ele>
        <time>2013-05-29T07:07:15Z</time>
      </trkpt>
      <trkpt lat="43.36917" lon="5.48623">
        <ele>204.8</ele>
        <time>2013-05-29T07:07:22Z</time>
      </trkpt>
      <trkpt lat="43.36919" lon="5.48634">
        <ele>204.1</ele>
        <time>2013-05-29T07:07:30Z</time>
      </trkpt>
      <trkpt lat="43.36919" lon="5.48636">
        <ele>204.1</ele>
        <time>2013-05-29T07:07:31Z</time>
      </trkpt>
      <trkpt lat="43.36924" lon="5.48656">
        <ele>203.1</ele>
        <time>2013-05-29T07:07:45Z</time>
      </trkpt>
      <trkpt lat="43.36924" lon="5.48668">
        <ele>203.1</ele>
        <time>2013-05-29T07:07:53Z</time>
      </trkpt>
      <trkpt lat="43.36922" lon="5.48679">
        <ele>202.1</ele>
        <time>2013-05-29T07:08:00Z</time>
      </trkpt>
      <trkpt lat="43.3692" lon="5.48691">
        <ele>201.6</ele>
        <time>2013-05-29T07:08:08Z</time>
      </trkpt>
      <trkpt lat="43.36919" lon="5.48703">
        <ele>200.3</ele>
        <time>2013-05-29T07:08:16Z</time>
      </trkpt>
      <trkpt lat="43.36923" lon="5.48713">
        <ele>204.8</ele>
        <time>2013-05-29T07:08:23Z</time>
      </trkpt>
      <trkpt lat="43.3693" lon="5.4872">
        <ele>209.6</ele>
        <time>2013-05-29T07:08:30Z</time>
      </trkpt>
      <trkpt lat="43.36936" lon="5.48726">
        <ele>212.3</ele>
        <time>2013-05-29T07:08:36Z</time>
      </trkpt>
      <trkpt lat="43.36938" lon="5.48727">
        <ele>213.1</ele>
        <time>2013-05-29T07:08:37Z</time>
      </trkpt>
      <trkpt lat="43.3695" lon="5.48739">
        <ele>213.8</ele>
        <time>2013-05-29T07:08:50Z</time>
      </trkpt>
      <trkpt lat="43.36958" lon="5.48742">
        <ele>215.3</ele>
        <time>2013-05-29T07:08:58Z</time>
      </trkpt>
      <trkpt lat="43.36966" lon="5.48742">
        <ele>215.5</ele>
        <time>2013-05-29T07:09:05Z</time>
      </trkpt>
      <trkpt lat="43.36974" lon="5.4874">
        <ele>216.8</ele>
        <time>2013-05-29T07:09:13Z</time>
      </trkpt>
      <trkpt lat="43.36983" lon="5.48737">
        <ele>216.5</ele>
        <time>2013-05-29T07:09:21Z</time>
      </trkpt>
      <trkpt lat="43.3699" lon="5.48731">
        <ele>213</ele>
        <time>2013-05-29T07:09:30Z</time>
      </trkpt>
      <trkpt lat="43.36997" lon="5.48724">
        <ele>213.6</ele>
        <time>2013-05-29T07:09:38Z</time>
      </trkpt>
      <trkpt lat="43.36997" lon="5.48724">
        <ele>213.6</ele>
        <time>2013-05-29T07:09:39Z</time>
      </trkpt>
      <trkpt lat="43.37013" lon="5.4872">
        <ele>212.1</ele>
        <time>2013-05-29T07:09:53Z</time>
      </trkpt>
      <trkpt lat="43.37021" lon="5.48724">
        <ele>214.5</ele>
        <time>2013-05-29T07:10:00Z</time>
      </trkpt>
      <trkpt lat="43.37027" lon="5.48733">
        <ele>215.5</ele>
        <time>2013-05-29T07:10:08Z</time>
      </trkpt>
      <trkpt lat="43.37031" lon="5.48743">
        <ele>215.3</ele>
        <time>2013-05-29T07:10:16Z</time>
      </trkpt>
      <trkpt lat="43.37037" lon="5.48751">
        <ele>216.3</ele>
        <time>2013-05-29T07:10:22Z</time>
      </trkpt>
      <trkpt lat="43.37045" lon="5.48753">
        <ele>218.8</ele>
        <time>2013-05-29T07:10:28Z</time>
      </trkpt>
      <trkpt lat="43.37053" lon="5.48753">
        <ele>219.6</ele>
        <time>2013-05-29T07:10:35Z</time>
      </trkpt>
      <trkpt lat="43.37062" lon="5.48749">
        <ele>218.1</ele>
        <time>2013-05-29T07:10:43Z</time>
      </trkpt>
      <trkpt lat="43.37062" lon="5.48748">
        <ele>217.3</ele>
        <time>2013-05-29T07:10:44Z</time>
      </trkpt>
      <trkpt lat="43.37076" lon="5.48739">
        <ele>219.6</ele>
        <time>2013-05-29T07:10:58Z</time>
      </trkpt>
      <trkpt lat="43.37084" lon="5.48734">
        <ele>220.3</ele>
        <time>2013-05-29T07:11:06Z</time>
      </trkpt>
      <trkpt lat="43.37091" lon="5.48728">
        <ele>216.8</ele>
        <time>2013-05-29T07:11:16Z</time>
      </trkpt>
      <trkpt lat="43.371" lon="5.48727">
        <ele>215.3</ele>
        <time>2013-05-29T07:11:22Z</time>
      </trkpt>
      <trkpt lat="43.37108" lon="5.48731">
        <ele>216.3</ele>
        <time>2013-05-29T07:11:28Z</time>
      </trkpt>
      <trkpt lat="43.37114" lon="5.48738">
        <ele>216.6</ele>
        <time>2013-05-29T07:11:35Z</time>
      </trkpt>
      <trkpt lat="43.3712" lon="5.48745">
        <ele>216.8</ele>
        <time>2013-05-29T07:11:42Z</time>
      </trkpt>
      <trkpt lat="43.37127" lon="5.48752">
        <ele>215.1</ele>
        <time>2013-05-29T07:11:48Z</time>
      </trkpt>
      <trkpt lat="43.37128" lon="5.48753">
        <ele>214.8</ele>
        <time>2013-05-29T07:11:49Z</time>
      </trkpt>
      <trkpt lat="43.3713" lon="5.48774">
        <ele>213.6</ele>
        <time>2013-05-29T07:12:02Z</time>
      </trkpt>
      <trkpt lat="43.37133" lon="5.48785">
        <ele>212.3</ele>
        <time>2013-05-29T07:12:10Z</time>
      </trkpt>
      <trkpt lat="43.37138" lon="5.48794">
        <ele>212.6</ele>
        <time>2013-05-29T07:12:17Z</time>
      </trkpt>
      <trkpt lat="43.37144" lon="5.488">
        <ele>213.6</ele>
        <time>2013-05-29T07:12:24Z</time>
      </trkpt>
      <trkpt lat="43.37153" lon="5.48804">
        <ele>218.6</ele>
        <time>2013-05-29T07:12:30Z</time>
      </trkpt>
      <trkpt lat="43.37161" lon="5.48805">
        <ele>219</ele>
        <time>2013-05-29T07:12:37Z</time>
      </trkpt>
      <trkpt lat="43.37169" lon="5.48805">
        <ele>220.5</ele>
        <time>2013-05-29T07:12:43Z</time>
      </trkpt>
      <trkpt lat="43.37177" lon="5.48803">
        <ele>221.3</ele>
        <time>2013-05-29T07:12:50Z</time>
      </trkpt>
      <trkpt lat="43.37178" lon="5.48802">
        <ele>221.5</ele>
        <time>2013-05-29T07:12:51Z</time>
      </trkpt>
      <trkpt lat="43.37193" lon="5.48793">
        <ele>222.8</ele>
        <time>2013-05-29T07:13:05Z</time>
      </trkpt>
      <trkpt lat="43.37201" lon="5.4879">
        <ele>223.1</ele>
        <time>2013-05-29T07:13:12Z</time>
      </trkpt>
      <trkpt lat="43.37209" lon="5.48787">
        <ele>224.6</ele>
        <time>2013-05-29T07:13:19Z</time>
      </trkpt>
      <trkpt lat="43.37217" lon="5.48784">
        <ele>229</ele>
        <time>2013-05-29T07:13:26Z</time>
      </trkpt>
      <trkpt lat="43.37226" lon="5.48783">
        <ele>226.3</ele>
        <time>2013-05-29T07:13:33Z</time>
      </trkpt>
      <trkpt lat="43.37234" lon="5.48781">
        <ele>223.5</ele>
        <time>2013-05-29T07:13:42Z</time>
      </trkpt>
      <trkpt lat="43.37241" lon="5.48774">
        <ele>221.3</ele>
        <time>2013-05-29T07:13:50Z</time>
      </trkpt>
      <trkpt lat="43.37246" lon="5.48765">
        <ele>225.3</ele>
        <time>2013-05-29T07:13:57Z</time>
      </trkpt>
      <trkpt lat="43.37247" lon="5.48764">
        <ele>225.8</ele>
        <time>2013-05-29T07:13:58Z</time>
      </trkpt>
      <trkpt lat="43.37256" lon="5.48746">
        <ele>232.6</ele>
        <time>2013-05-29T07:14:14Z</time>
      </trkpt>
      <trkpt lat="43.37261" lon="5.48737">
        <ele>233.6</ele>
        <time>2013-05-29T07:14:21Z</time>
      </trkpt>
      <trkpt lat="43.37266" lon="5.48728">
        <ele>232.3</ele>
        <time>2013-05-29T07:14:28Z</time>
      </trkpt>
      <trkpt lat="43.37273" lon="5.48722">
        <ele>229.8</ele>
        <time>2013-05-29T07:14:36Z</time>
      </trkpt>
      <trkpt lat="43.37281" lon="5.4872">
        <ele>227.3</ele>
        <time>2013-05-29T07:14:44Z</time>
      </trkpt>
      <trkpt lat="43.3729" lon="5.4872">
        <ele>226.1</ele>
        <time>2013-05-29T07:14:52Z</time>
      </trkpt>
      <trkpt lat="43.37299" lon="5.4872">
        <ele>226.5</ele>
        <time>2013-05-29T07:14:59Z</time>
      </trkpt>
      <trkpt lat="43.373" lon="5.4872">
        <ele>226.3</ele>
        <time>2013-05-29T07:15:00Z</time>
      </trkpt>
      <trkpt lat="43.37316" lon="5.48722">
        <ele>228</ele>
        <time>2013-05-29T07:15:13Z</time>
      </trkpt>
      <trkpt lat="43.37324" lon="5.48721">
        <ele>229</ele>
        <time>2013-05-29T07:15:19Z</time>
      </trkpt>
      <trkpt lat="43.37332" lon="5.4872">
        <ele>226.6</ele>
        <time>2013-05-29T07:15:25Z</time>
      </trkpt>
      <trkpt lat="43.37341" lon="5.48718">
        <ele>223.1</ele>
        <time>2013-05-29T07:15:34Z</time>
      </trkpt>
      <trkpt lat="43.37349" lon="5.48717">
        <ele>223.3</ele>
        <time>2013-05-29T07:15:39Z</time>
      </trkpt>
      <trkpt lat="43.37357" lon="5.48714">
        <ele>224.1</ele>
        <time>2013-05-29T07:15:46Z</time>
      </trkpt>
      <trkpt lat="43.37364" lon="5.48709">
        <ele>230.6</ele>
        <time>2013-05-29T07:15:53Z</time>
      </trkpt>
      <trkpt lat="43.37373" lon="5.48709">
        <ele>227.8</ele>
        <time>2013-05-29T07:16:02Z</time>
      </trkpt>
      <trkpt lat="43.37374" lon="5.48709">
        <ele>229</ele>
        <time>2013-05-29T07:16:03Z</time>
      </trkpt>
    </trkseg>
  </trk>
  <trk>
    <name><![CDATA[2013-05-29-02]]></name>
    <trkseg>
      <trkpt lat="43.3755" lon="5.4859">
        <ele>248.3</ele>
        <time>2013-05-29T07:24:36Z</time>
      </trkpt>
      <trkpt lat="43.3755" lon="5.48589">
        <ele>250.6</ele>
        <time>2013-05-29T07:24:37Z</time>
      </trkpt>
      <trkpt lat="43.37537" lon="5.48606">
        <ele>250.1</ele>
        <time>2013-05-29T07:25:17Z</time>
      </trkpt>
      <trkpt lat="43.37534" lon="5.48595">
        <ele>256.7</ele>
        <time>2013-05-29T07:25:34Z</time>
      </trkpt>
      <trkpt lat="43.37533" lon="5.48583">
        <ele>264.1</ele>
        <time>2013-05-29T07:25:44Z</time>
      </trkpt>
      <trkpt lat="43.37533" lon="5.48582">
        <ele>265.2</ele>
        <time>2013-05-29T07:25:45Z</time>
      </trkpt>
      <trkpt lat="43.37533" lon="5.4856">
        <ele>266.2</ele>
        <time>2013-05-29T07:26:19Z</time>
      </trkpt>
      <trkpt lat="43.37535" lon="5.48548">
        <ele>268.7</ele>
        <time>2013-05-29T07:26:42Z</time>
      </trkpt>
      <trkpt lat="43.37539" lon="5.48537">
        <ele>270.6</ele>
        <time>2013-05-29T07:27:10Z</time>
      </trkpt>
      <trkpt lat="43.37539" lon="5.48537">
        <ele>270.5</ele>
        <time>2013-05-29T07:27:11Z</time>
      </trkpt>
      <trkpt lat="43.37535" lon="5.48513">
        <ele>275.2</ele>
        <time>2013-05-29T07:28:03Z</time>
      </trkpt>
      <trkpt lat="43.37537" lon="5.48501">
        <ele>275.6</ele>
        <time>2013-05-29T07:28:27Z</time>
      </trkpt>
      <trkpt lat="43.37537" lon="5.48501">
        <ele>275.6</ele>
        <time>2013-05-29T07:28:28Z</time>
      </trkpt>
      <trkpt lat="43.37541" lon="5.48478">
        <ele>281.6</ele>
        <time>2013-05-29T07:28:57Z</time>
      </trkpt>
      <trkpt lat="43.37544" lon="5.48467">
        <ele>287.2</ele>
        <time>2013-05-29T07:29:15Z</time>
      </trkpt>
      <trkpt lat="43.37549" lon="5.48456">
        <ele>291.2</ele>
        <time>2013-05-29T07:30:41Z</time>
      </trkpt>
      <trkpt lat="43.37549" lon="5.48456">
        <ele>291.6</ele>
        <time>2013-05-29T07:30:42Z</time>
      </trkpt>
      <trkpt lat="43.37557" lon="5.48434">
        <ele>296.6</ele>
        <time>2013-05-29T07:31:44Z</time>
      </trkpt>
      <trkpt lat="43.37557" lon="5.48434">
        <ele>296.7</ele>
        <time>2013-05-29T07:31:45Z</time>
      </trkpt>
      <trkpt lat="43.37573" lon="5.48431">
        <ele>301.2</ele>
        <time>2013-05-29T07:32:21Z</time>
      </trkpt>
      <trkpt lat="43.37578" lon="5.48422">
        <ele>299.7</ele>
        <time>2013-05-29T07:32:34Z</time>
      </trkpt>
      <trkpt lat="43.37583" lon="5.48412">
        <ele>296.5</ele>
        <time>2013-05-29T07:32:45Z</time>
      </trkpt>
      <trkpt lat="43.37583" lon="5.48412">
        <ele>296.2</ele>
        <time>2013-05-29T07:32:46Z</time>
      </trkpt>
      <trkpt lat="43.3759" lon="5.48391">
        <ele>303.2</ele>
        <time>2013-05-29T07:33:03Z</time>
      </trkpt>
      <trkpt lat="43.37592" lon="5.4838">
        <ele>308.2</ele>
        <time>2013-05-29T07:34:01Z</time>
      </trkpt>
      <trkpt lat="43.37591" lon="5.48379">
        <ele>308.2</ele>
        <time>2013-05-29T07:34:02Z</time>
      </trkpt>
      <trkpt lat="43.37597" lon="5.48357">
        <ele>307.7</ele>
        <time>2013-05-29T07:34:22Z</time>
      </trkpt>
      <trkpt lat="43.37603" lon="5.48349">
        <ele>306.2</ele>
        <time>2013-05-29T07:34:32Z</time>
      </trkpt>
      <trkpt lat="43.37603" lon="5.48337">
        <ele>310.7</ele>
        <time>2013-05-29T07:34:40Z</time>
      </trkpt>
      <trkpt lat="43.376" lon="5.48326">
        <ele>313.5</ele>
        <time>2013-05-29T07:34:49Z</time>
      </trkpt>
      <trkpt lat="43.376" lon="5.48314">
        <ele>313.2</ele>
        <time>2013-05-29T07:35:00Z</time>
      </trkpt>
      <trkpt lat="43.37599" lon="5.48302">
        <ele>313.7</ele>
        <time>2013-05-29T07:35:11Z</time>
      </trkpt>
      <trkpt lat="43.37598" lon="5.48301">
        <ele>313.7</ele>
        <time>2013-05-29T07:35:12Z</time>
      </trkpt>
      <trkpt lat="43.37595" lon="5.48278">
        <ele>317</ele>
        <time>2013-05-29T07:35:30Z</time>
      </trkpt>
      <trkpt lat="43.376" lon="5.48268">
        <ele>316.5</ele>
        <time>2013-05-29T07:35:41Z</time>
      </trkpt>
      <trkpt lat="43.37609" lon="5.48268">
        <ele>316.6</ele>
        <time>2013-05-29T07:35:51Z</time>
      </trkpt>
      <trkpt lat="43.37617" lon="5.48271">
        <ele>318.7</ele>
        <time>2013-05-29T07:36:01Z</time>
      </trkpt>
      <trkpt lat="43.37625" lon="5.48274">
        <ele>323.2</ele>
        <time>2013-05-29T07:36:25Z</time>
      </trkpt>
      <trkpt lat="43.37626" lon="5.48274">
        <ele>323.2</ele>
        <time>2013-05-29T07:36:26Z</time>
      </trkpt>
      <trkpt lat="43.37642" lon="5.48267">
        <ele>325.2</ele>
        <time>2013-05-29T07:36:51Z</time>
      </trkpt>
      <trkpt lat="43.37641" lon="5.48255">
        <ele>324.7</ele>
        <time>2013-05-29T07:37:01Z</time>
      </trkpt>
      <trkpt lat="43.37638" lon="5.48244">
        <ele>328.2</ele>
        <time>2013-05-29T07:37:12Z</time>
      </trkpt>
      <trkpt lat="43.3764" lon="5.48232">
        <ele>329.7</ele>
        <time>2013-05-29T07:37:45Z</time>
      </trkpt>
      <trkpt lat="43.37639" lon="5.48231">
        <ele>329.7</ele>
        <time>2013-05-29T07:37:46Z</time>
      </trkpt>
      <trkpt lat="43.37641" lon="5.48208">
        <ele>334.7</ele>
        <time>2013-05-29T07:38:04Z</time>
      </trkpt>
      <trkpt lat="43.37646" lon="5.48198">
        <ele>334.7</ele>
        <time>2013-05-29T07:38:13Z</time>
      </trkpt>
      <trkpt lat="43.37651" lon="5.4819">
        <ele>334.7</ele>
        <time>2013-05-29T07:38:22Z</time>
      </trkpt>
      <trkpt lat="43.37659" lon="5.48187">
        <ele>334.2</ele>
        <time>2013-05-29T07:38:29Z</time>
      </trkpt>
      <trkpt lat="43.37668" lon="5.48187">
        <ele>335.5</ele>
        <time>2013-05-29T07:38:37Z</time>
      </trkpt>
      <trkpt lat="43.37675" lon="5.48193">
        <ele>335.5</ele>
        <time>2013-05-29T07:38:46Z</time>
      </trkpt>
      <trkpt lat="43.37676" lon="5.48193">
        <ele>335.6</ele>
        <time>2013-05-29T07:38:47Z</time>
      </trkpt>
      <trkpt lat="43.3769" lon="5.48204">
        <ele>336.7</ele>
        <time>2013-05-29T07:39:03Z</time>
      </trkpt>
      <trkpt lat="43.37698" lon="5.48209">
        <ele>337.2</ele>
        <time>2013-05-29T07:39:11Z</time>
      </trkpt>
      <trkpt lat="43.37705" lon="5.48213">
        <ele>335.6</ele>
        <time>2013-05-29T07:39:19Z</time>
      </trkpt>
      <trkpt lat="43.37712" lon="5.48218">
        <ele>335.5</ele>
        <time>2013-05-29T07:39:26Z</time>
      </trkpt>
      <trkpt lat="43.37721" lon="5.48222">
        <ele>334.2</ele>
        <time>2013-05-29T07:39:33Z</time>
      </trkpt>
      <trkpt lat="43.3773" lon="5.48225">
        <ele>333.6</ele>
        <time>2013-05-29T07:39:41Z</time>
      </trkpt>
      <trkpt lat="43.37738" lon="5.48228">
        <ele>333.2</ele>
        <time>2013-05-29T07:39:49Z</time>
      </trkpt>
      <trkpt lat="43.37739" lon="5.48228">
        <ele>333.2</ele>
        <time>2013-05-29T07:39:50Z</time>
      </trkpt>
      <trkpt lat="43.37753" lon="5.48239">
        <ele>331.7</ele>
        <time>2013-05-29T07:40:09Z</time>
      </trkpt>
      <trkpt lat="43.3776" lon="5.48246">
        <ele>332.2</ele>
        <time>2013-05-29T07:40:17Z</time>
      </trkpt>
      <trkpt lat="43.37767" lon="5.48251">
        <ele>332.7</ele>
        <time>2013-05-29T07:40:25Z</time>
      </trkpt>
      <trkpt lat="43.37774" lon="5.48259">
        <ele>333.2</ele>
        <time>2013-05-29T07:40:34Z</time>
      </trkpt>
      <trkpt lat="43.37781" lon="5.48265">
        <ele>334.7</ele>
        <time>2013-05-29T07:40:44Z</time>
      </trkpt>
      <trkpt lat="43.37789" lon="5.48268">
        <ele>337.1</ele>
        <time>2013-05-29T07:40:53Z</time>
      </trkpt>
      <trkpt lat="43.3779" lon="5.48268">
        <ele>336.6</ele>
        <time>2013-05-29T07:40:54Z</time>
      </trkpt>
      <trkpt lat="43.37804" lon="5.48258">
        <ele>335.2</ele>
        <time>2013-05-29T07:41:12Z</time>
      </trkpt>
      <trkpt lat="43.37811" lon="5.48253">
        <ele>333.6</ele>
        <time>2013-05-29T07:41:20Z</time>
      </trkpt>
      <trkpt lat="43.37819" lon="5.48247">
        <ele>334.1</ele>
        <time>2013-05-29T07:41:29Z</time>
      </trkpt>
      <trkpt lat="43.37827" lon="5.48244">
        <ele>334.7</ele>
        <time>2013-05-29T07:41:39Z</time>
      </trkpt>
      <trkpt lat="43.37835" lon="5.4824">
        <ele>331.1</ele>
        <time>2013-05-29T07:41:48Z</time>
      </trkpt>
      <trkpt lat="43.37844" lon="5.48236">
        <ele>326.2</ele>
        <time>2013-05-29T07:42:02Z</time>
      </trkpt>
      <trkpt lat="43.37844" lon="5.48235">
        <ele>326.7</ele>
        <time>2013-05-29T07:42:03Z</time>
      </trkpt>
      <trkpt lat="43.3786" lon="5.48235">
        <ele>322.7</ele>
        <time>2013-05-29T07:42:20Z</time>
      </trkpt>
      <trkpt lat="43.37868" lon="5.48235">
        <ele>326.6</ele>
        <time>2013-05-29T07:42:28Z</time>
      </trkpt>
      <trkpt lat="43.37876" lon="5.48232">
        <ele>329.2</ele>
        <time>2013-05-29T07:42:36Z</time>
      </trkpt>
      <trkpt lat="43.37884" lon="5.4823">
        <ele>326.6</ele>
        <time>2013-05-29T07:42:46Z</time>
      </trkpt>
      <trkpt lat="43.37893" lon="5.48226">
        <ele>327.7</ele>
        <time>2013-05-29T07:43:16Z</time>
      </trkpt>
      <trkpt lat="43.37893" lon="5.48226">
        <ele>327.5</ele>
        <time>2013-05-29T07:43:17Z</time>
      </trkpt>
      <trkpt lat="43.37906" lon="5.48213">
        <ele>327.5</ele>
        <time>2013-05-29T07:43:38Z</time>
      </trkpt>
      <trkpt lat="43.37909" lon="5.48203">
        <ele>330</ele>
        <time>2013-05-29T07:43:44Z</time>
      </trkpt>
      <trkpt lat="43.37911" lon="5.48191">
        <ele>329.6</ele>
        <time>2013-05-29T07:43:52Z</time>
      </trkpt>
      <trkpt lat="43.37914" lon="5.4818">
        <ele>329.1</ele>
        <time>2013-05-29T07:44:00Z</time>
      </trkpt>
      <trkpt lat="43.37915" lon="5.48169">
        <ele>332.2</ele>
        <time>2013-05-29T07:44:07Z</time>
      </trkpt>
      <trkpt lat="43.37915" lon="5.48157">
        <ele>336.2</ele>
        <time>2013-05-29T07:44:15Z</time>
      </trkpt>
      <trkpt lat="43.37915" lon="5.48155">
        <ele>336</ele>
        <time>2013-05-29T07:44:16Z</time>
      </trkpt>
      <trkpt lat="43.37921" lon="5.48134">
        <ele>337.5</ele>
        <time>2013-05-29T07:44:31Z</time>
      </trkpt>
      <trkpt lat="43.37924" lon="5.48123">
        <ele>337.7</ele>
        <time>2013-05-29T07:44:39Z</time>
      </trkpt>
      <trkpt lat="43.37928" lon="5.48112">
        <ele>339.2</ele>
        <time>2013-05-29T07:44:47Z</time>
      </trkpt>
      <trkpt lat="43.37934" lon="5.48103">
        <ele>340.2</ele>
        <time>2013-05-29T07:44:55Z</time>
      </trkpt>
      <trkpt lat="43.3794" lon="5.48095">
        <ele>340</ele>
        <time>2013-05-29T07:45:02Z</time>
      </trkpt>
      <trkpt lat="43.37946" lon="5.48088">
        <ele>338.2</ele>
        <time>2013-05-29T07:45:09Z</time>
      </trkpt>
      <trkpt lat="43.37953" lon="5.48081">
        <ele>336.7</ele>
        <time>2013-05-29T07:45:16Z</time>
      </trkpt>
      <trkpt lat="43.37954" lon="5.4808">
        <ele>336.5</ele>
        <time>2013-05-29T07:45:17Z</time>
      </trkpt>
      <trkpt lat="43.37966" lon="5.48069">
        <ele>334.2</ele>
        <time>2013-05-29T07:45:30Z</time>
      </trkpt>
      <trkpt lat="43.37974" lon="5.48064">
        <ele>336.2</ele>
        <time>2013-05-29T07:45:38Z</time>
      </trkpt>
      <trkpt lat="43.37982" lon="5.48063">
        <ele>337.7</ele>
        <time>2013-05-29T07:45:46Z</time>
      </trkpt>
      <trkpt lat="43.37991" lon="5.48063">
        <ele>339.2</ele>
        <time>2013-05-29T07:45:54Z</time>
      </trkpt>
      <trkpt lat="43.37999" lon="5.48061">
        <ele>335.7</ele>
        <time>2013-05-29T07:46:01Z</time>
      </trkpt>
      <trkpt lat="43.38008" lon="5.48062">
        <ele>337.7</ele>
        <time>2013-05-29T07:46:08Z</time>
      </trkpt>
      <trkpt lat="43.38016" lon="5.48063">
        <ele>338.7</ele>
        <time>2013-05-29T07:46:15Z</time>
      </trkpt>
      <trkpt lat="43.38025" lon="5.48063">
        <ele>339.7</ele>
        <time>2013-05-29T07:46:23Z</time>
      </trkpt>
      <trkpt lat="43.38026" lon="5.48063">
        <ele>339.7</ele>
        <time>2013-05-29T07:46:24Z</time>
      </trkpt>
      <trkpt lat="43.38042" lon="5.48068">
        <ele>339.7</ele>
        <time>2013-05-29T07:46:45Z</time>
      </trkpt>
      <trkpt lat="43.38051" lon="5.48069">
        <ele>338.7</ele>
        <time>2013-05-29T07:46:56Z</time>
      </trkpt>
      <trkpt lat="43.38059" lon="5.48069">
        <ele>344.7</ele>
        <time>2013-05-29T07:47:09Z</time>
      </trkpt>
      <trkpt lat="43.38067" lon="5.48068">
        <ele>344.5</ele>
        <time>2013-05-29T07:47:15Z</time>
      </trkpt>
      <trkpt lat="43.38075" lon="5.48068">
        <ele>345.2</ele>
        <time>2013-05-29T07:47:22Z</time>
      </trkpt>
      <trkpt lat="43.38084" lon="5.48069">
        <ele>344.5</ele>
        <time>2013-05-29T07:47:30Z</time>
      </trkpt>
      <trkpt lat="43.38085" lon="5.48069">
        <ele>344.2</ele>
        <time>2013-05-29T07:47:31Z</time>
      </trkpt>
      <trkpt lat="43.38101" lon="5.48068">
        <ele>346.7</ele>
        <time>2013-05-29T07:47:47Z</time>
      </trkpt>
      <trkpt lat="43.38109" lon="5.48066">
        <ele>347.2</ele>
        <time>2013-05-29T07:47:55Z</time>
      </trkpt>
      <trkpt lat="43.38117" lon="5.48063">
        <ele>348</ele>
        <time>2013-05-29T07:48:03Z</time>
      </trkpt>
      <trkpt lat="43.38126" lon="5.48062">
        <ele>348.6</ele>
        <time>2013-05-29T07:48:11Z</time>
      </trkpt>
      <trkpt lat="43.38134" lon="5.48061">
        <ele>349.1</ele>
        <time>2013-05-29T07:48:19Z</time>
      </trkpt>
      <trkpt lat="43.38143" lon="5.48061">
        <ele>349.2</ele>
        <time>2013-05-29T07:48:27Z</time>
      </trkpt>
      <trkpt lat="43.38152" lon="5.48062">
        <ele>349.1</ele>
        <time>2013-05-29T07:48:36Z</time>
      </trkpt>
      <trkpt lat="43.38152" lon="5.48062">
        <ele>349.1</ele>
        <time>2013-05-29T07:48:37Z</time>
      </trkpt>
      <trkpt lat="43.38169" lon="5.48061">
        <ele>350.7</ele>
        <time>2013-05-29T07:48:54Z</time>
      </trkpt>
      <trkpt lat="43.38177" lon="5.48061">
        <ele>350.7</ele>
        <time>2013-05-29T07:49:03Z</time>
      </trkpt>
      <trkpt lat="43.38186" lon="5.48059">
        <ele>351.2</ele>
        <time>2013-05-29T07:49:10Z</time>
      </trkpt>
      <trkpt lat="43.38194" lon="5.48059">
        <ele>353.2</ele>
        <time>2013-05-29T07:49:17Z</time>
      </trkpt>
      <trkpt lat="43.38202" lon="5.4806">
        <ele>354.2</ele>
        <time>2013-05-29T07:49:24Z</time>
      </trkpt>
      <trkpt lat="43.38211" lon="5.48062">
        <ele>354.1</ele>
        <time>2013-05-29T07:49:37Z</time>
      </trkpt>
      <trkpt lat="43.38212" lon="5.48061">
        <ele>353.7</ele>
        <time>2013-05-29T07:49:38Z</time>
      </trkpt>
      <trkpt lat="43.38226" lon="5.48066">
        <ele>352</ele>
        <time>2013-05-29T07:49:53Z</time>
      </trkpt>
      <trkpt lat="43.38235" lon="5.48069">
        <ele>353.2</ele>
        <time>2013-05-29T07:50:01Z</time>
      </trkpt>
      <trkpt lat="43.38244" lon="5.48071">
        <ele>354.2</ele>
        <time>2013-05-29T07:50:09Z</time>
      </trkpt>
      <trkpt lat="43.38252" lon="5.48071">
        <ele>355.1</ele>
        <time>2013-05-29T07:50:17Z</time>
      </trkpt>
      <trkpt lat="43.3826" lon="5.48074">
        <ele>354.2</ele>
        <time>2013-05-29T07:50:25Z</time>
      </trkpt>
      <trkpt lat="43.38268" lon="5.4808">
        <ele>355.2</ele>
        <time>2013-05-29T07:50:33Z</time>
      </trkpt>
      <trkpt lat="43.38275" lon="5.48087">
        <ele>354.7</ele>
        <time>2013-05-29T07:50:41Z</time>
      </trkpt>
      <trkpt lat="43.38275" lon="5.48087">
        <ele>354.7</ele>
        <time>2013-05-29T07:50:42Z</time>
      </trkpt>
      <trkpt lat="43.38286" lon="5.48104">
        <ele>352.7</ele>
        <time>2013-05-29T07:50:57Z</time>
      </trkpt>
      <trkpt lat="43.38289" lon="5.48114">
        <ele>351.2</ele>
        <time>2013-05-29T07:51:04Z</time>
      </trkpt>
      <trkpt lat="43.38292" lon="5.48125">
        <ele>349.7</ele>
        <time>2013-05-29T07:51:11Z</time>
      </trkpt>
      <trkpt lat="43.38295" lon="5.48135">
        <ele>349</ele>
        <time>2013-05-29T07:51:19Z</time>
      </trkpt>
      <trkpt lat="43.38296" lon="5.48148">
        <ele>349.6</ele>
        <time>2013-05-29T07:51:27Z</time>
      </trkpt>
      <trkpt lat="43.38299" lon="5.48158">
        <ele>349.7</ele>
        <time>2013-05-29T07:51:35Z</time>
      </trkpt>
      <trkpt lat="43.38306" lon="5.48165">
        <ele>349</ele>
        <time>2013-05-29T07:51:44Z</time>
      </trkpt>
      <trkpt lat="43.38308" lon="5.48164">
        <ele>349.2</ele>
        <time>2013-05-29T07:51:45Z</time>
      </trkpt>
      <trkpt lat="43.38319" lon="5.48151">
        <ele>351.2</ele>
        <time>2013-05-29T07:51:57Z</time>
      </trkpt>
      <trkpt lat="43.38323" lon="5.48141">
        <ele>354.2</ele>
        <time>2013-05-29T07:52:05Z</time>
      </trkpt>
      <trkpt lat="43.38329" lon="5.48134">
        <ele>352.6</ele>
        <time>2013-05-29T07:52:11Z</time>
      </trkpt>
      <trkpt lat="43.38337" lon="5.48129">
        <ele>349.7</ele>
        <time>2013-05-29T07:52:17Z</time>
      </trkpt>
      <trkpt lat="43.38345" lon="5.48127">
        <ele>348.2</ele>
        <time>2013-05-29T07:52:25Z</time>
      </trkpt>
      <trkpt lat="43.38353" lon="5.48123">
        <ele>348.7</ele>
        <time>2013-05-29T07:52:34Z</time>
      </trkpt>
      <trkpt lat="43.38361" lon="5.48123">
        <ele>351.2</ele>
        <time>2013-05-29T07:52:42Z</time>
      </trkpt>
      <trkpt lat="43.3837" lon="5.48124">
        <ele>349.7</ele>
        <time>2013-05-29T07:52:50Z</time>
      </trkpt>
      <trkpt lat="43.38371" lon="5.48125">
        <ele>349.7</ele>
        <time>2013-05-29T07:52:51Z</time>
      </trkpt>
      <trkpt lat="43.38387" lon="5.48123">
        <ele>345.2</ele>
        <time>2013-05-29T07:53:04Z</time>
      </trkpt>
      <trkpt lat="43.38396" lon="5.48122">
        <ele>346.2</ele>
        <time>2013-05-29T07:53:12Z</time>
      </trkpt>
      <trkpt lat="43.38404" lon="5.48121">
        <ele>347</ele>
        <time>2013-05-29T07:53:19Z</time>
      </trkpt>
      <trkpt lat="43.38413" lon="5.48122">
        <ele>347.7</ele>
        <time>2013-05-29T07:53:27Z</time>
      </trkpt>
      <trkpt lat="43.38421" lon="5.48117">
        <ele>351.2</ele>
        <time>2013-05-29T07:53:35Z</time>
      </trkpt>
      <trkpt lat="43.38429" lon="5.48112">
        <ele>352</ele>
        <time>2013-05-29T07:53:43Z</time>
      </trkpt>
      <trkpt lat="43.38437" lon="5.48109">
        <ele>353.1</ele>
        <time>2013-05-29T07:53:51Z</time>
      </trkpt>
      <trkpt lat="43.38439" lon="5.48108">
        <ele>353.2</ele>
        <time>2013-05-29T07:53:52Z</time>
      </trkpt>
      <trkpt lat="43.3845" lon="5.48094">
        <ele>345.7</ele>
        <time>2013-05-29T07:54:12Z</time>
      </trkpt>
      <trkpt lat="43.38447" lon="5.48082">
        <ele>342.7</ele>
        <time>2013-05-29T07:54:26Z</time>
      </trkpt>
      <trkpt lat="43.3844" lon="5.48075">
        <ele>340.2</ele>
        <time>2013-05-29T07:54:36Z</time>
      </trkpt>
      <trkpt lat="43.38433" lon="5.48069">
        <ele>339.2</ele>
        <time>2013-05-29T07:54:43Z</time>
      </trkpt>
      <trkpt lat="43.38425" lon="5.48064">
        <ele>342.6</ele>
        <time>2013-05-29T07:54:50Z</time>
      </trkpt>
      <trkpt lat="43.38418" lon="5.48058">
        <ele>344.7</ele>
        <time>2013-05-29T07:54:59Z</time>
      </trkpt>
      <trkpt lat="43.38417" lon="5.48057">
        <ele>344.7</ele>
        <time>2013-05-29T07:55:00Z</time>
      </trkpt>
      <trkpt lat="43.3841" lon="5.48038">
        <ele>344.7</ele>
        <time>2013-05-29T07:55:17Z</time>
      </trkpt>
      <trkpt lat="43.3841" lon="5.48026">
        <ele>344.7</ele>
        <time>2013-05-29T07:55:24Z</time>
      </trkpt>
      <trkpt lat="43.38412" lon="5.48015">
        <ele>343.7</ele>
        <time>2013-05-29T07:55:31Z</time>
      </trkpt>
      <trkpt lat="43.38418" lon="5.48006">
        <ele>344</ele>
        <time>2013-05-29T07:55:41Z</time>
      </trkpt>
      <trkpt lat="43.38426" lon="5.48001">
        <ele>342.2</ele>
        <time>2013-05-29T07:55:48Z</time>
      </trkpt>
      <trkpt lat="43.38433" lon="5.47995">
        <ele>341.2</ele>
        <time>2013-05-29T07:55:55Z</time>
      </trkpt>
      <trkpt lat="43.38441" lon="5.47989">
        <ele>341.5</ele>
        <time>2013-05-29T07:56:03Z</time>
      </trkpt>
      <trkpt lat="43.38442" lon="5.47988">
        <ele>341.7</ele>
        <time>2013-05-29T07:56:04Z</time>
      </trkpt>
      <trkpt lat="43.38457" lon="5.47981">
        <ele>343.7</ele>
        <time>2013-05-29T07:56:20Z</time>
      </trkpt>
      <trkpt lat="43.38465" lon="5.47977">
        <ele>343.5</ele>
        <time>2013-05-29T07:56:27Z</time>
      </trkpt>
      <trkpt lat="43.38472" lon="5.47971">
        <ele>345.2</ele>
        <time>2013-05-29T07:56:35Z</time>
      </trkpt>
      <trkpt lat="43.38478" lon="5.47963">
        <ele>347.2</ele>
        <time>2013-05-29T07:56:43Z</time>
      </trkpt>
      <trkpt lat="43.38483" lon="5.47954">
        <ele>347.6</ele>
        <time>2013-05-29T07:56:51Z</time>
      </trkpt>
      <trkpt lat="43.38488" lon="5.47945">
        <ele>347.2</ele>
        <time>2013-05-29T07:56:58Z</time>
      </trkpt>
      <trkpt lat="43.38492" lon="5.47936">
        <ele>346.7</ele>
        <time>2013-05-29T07:57:05Z</time>
      </trkpt>
      <trkpt lat="43.38493" lon="5.47934">
        <ele>346.7</ele>
        <time>2013-05-29T07:57:06Z</time>
      </trkpt>
      <trkpt lat="43.38499" lon="5.47914">
        <ele>345.7</ele>
        <time>2013-05-29T07:57:19Z</time>
      </trkpt>
      <trkpt lat="43.38502" lon="5.47904">
        <ele>345.1</ele>
        <time>2013-05-29T07:57:26Z</time>
      </trkpt>
      <trkpt lat="43.38506" lon="5.47894">
        <ele>344.6</ele>
        <time>2013-05-29T07:57:33Z</time>
      </trkpt>
      <trkpt lat="43.38509" lon="5.47884">
        <ele>344</ele>
        <time>2013-05-29T07:57:40Z</time>
      </trkpt>
      <trkpt lat="43.38514" lon="5.47874">
        <ele>343.5</ele>
        <time>2013-05-29T07:57:47Z</time>
      </trkpt>
      <trkpt lat="43.38518" lon="5.47865">
        <ele>343.2</ele>
        <time>2013-05-29T07:57:53Z</time>
      </trkpt>
      <trkpt lat="43.38523" lon="5.47854">
        <ele>343.2</ele>
        <time>2013-05-29T07:58:00Z</time>
      </trkpt>
      <trkpt lat="43.38526" lon="5.47844">
        <ele>343.2</ele>
        <time>2013-05-29T07:58:06Z</time>
      </trkpt>
      <trkpt lat="43.38526" lon="5.47842">
        <ele>343.2</ele>
        <time>2013-05-29T07:58:07Z</time>
      </trkpt>
      <trkpt lat="43.38531" lon="5.47821">
        <ele>343.1</ele>
        <time>2013-05-29T07:58:20Z</time>
      </trkpt>
      <trkpt lat="43.38535" lon="5.47811">
        <ele>342.7</ele>
        <time>2013-05-29T07:58:27Z</time>
      </trkpt>
      <trkpt lat="43.3854" lon="5.47803">
        <ele>342.2</ele>
        <time>2013-05-29T07:58:34Z</time>
      </trkpt>
      <trkpt lat="43.38548" lon="5.47799">
        <ele>342.2</ele>
        <time>2013-05-29T07:58:41Z</time>
      </trkpt>
      <trkpt lat="43.38556" lon="5.47796">
        <ele>342.5</ele>
        <time>2013-05-29T07:58:49Z</time>
      </trkpt>
      <trkpt lat="43.38564" lon="5.47795">
        <ele>343.2</ele>
        <time>2013-05-29T07:58:56Z</time>
      </trkpt>
      <trkpt lat="43.38573" lon="5.47793">
        <ele>343.2</ele>
        <time>2013-05-29T07:59:03Z</time>
      </trkpt>
      <trkpt lat="43.38581" lon="5.47789">
        <ele>343.6</ele>
        <time>2013-05-29T07:59:10Z</time>
      </trkpt>
      <trkpt lat="43.38583" lon="5.47788">
        <ele>343.2</ele>
        <time>2013-05-29T07:59:11Z</time>
      </trkpt>
      <trkpt lat="43.38597" lon="5.47779">
        <ele>343.6</ele>
        <time>2013-05-29T07:59:24Z</time>
      </trkpt>
      <trkpt lat="43.38604" lon="5.47774">
        <ele>343.6</ele>
        <time>2013-05-29T07:59:31Z</time>
      </trkpt>
      <trkpt lat="43.38612" lon="5.4777">
        <ele>344</ele>
        <time>2013-05-29T07:59:38Z</time>
      </trkpt>
      <trkpt lat="43.3862" lon="5.47766">
        <ele>344.2</ele>
        <time>2013-05-29T07:59:45Z</time>
      </trkpt>
      <trkpt lat="43.38627" lon="5.47764">
        <ele>344.2</ele>
        <time>2013-05-29T07:59:52Z</time>
      </trkpt>
      <trkpt lat="43.38636" lon="5.47761">
        <ele>344</ele>
        <time>2013-05-29T07:59:59Z</time>
      </trkpt>
      <trkpt lat="43.38643" lon="5.47756">
        <ele>343.2</ele>
        <time>2013-05-29T08:00:06Z</time>
      </trkpt>
      <trkpt lat="43.38649" lon="5.47747">
        <ele>342</ele>
        <time>2013-05-29T08:00:14Z</time>
      </trkpt>
      <trkpt lat="43.3865" lon="5.47745">
        <ele>341.7</ele>
        <time>2013-05-29T08:00:15Z</time>
      </trkpt>
      <trkpt lat="43.38655" lon="5.47726">
        <ele>338.6</ele>
        <time>2013-05-29T08:00:28Z</time>
      </trkpt>
      <trkpt lat="43.38654" lon="5.47715">
        <ele>338.1</ele>
        <time>2013-05-29T08:00:35Z</time>
      </trkpt>
      <trkpt lat="43.38652" lon="5.47703">
        <ele>338.1</ele>
        <time>2013-05-29T08:00:43Z</time>
      </trkpt>
      <trkpt lat="43.38651" lon="5.47691">
        <ele>336.7</ele>
        <time>2013-05-29T08:00:51Z</time>
      </trkpt>
      <trkpt lat="43.38649" lon="5.4768">
        <ele>336.2</ele>
        <time>2013-05-29T08:00:58Z</time>
      </trkpt>
      <trkpt lat="43.38647" lon="5.47668">
        <ele>335.7</ele>
        <time>2013-05-29T08:01:06Z</time>
      </trkpt>
      <trkpt lat="43.38647" lon="5.47656">
        <ele>335.2</ele>
        <time>2013-05-29T08:01:14Z</time>
      </trkpt>
      <trkpt lat="43.38647" lon="5.47644">
        <ele>334.7</ele>
        <time>2013-05-29T08:01:22Z</time>
      </trkpt>
      <trkpt lat="43.38647" lon="5.47642">
        <ele>334.6</ele>
        <time>2013-05-29T08:01:23Z</time>
      </trkpt>
      <trkpt lat="43.38644" lon="5.47621">
        <ele>334.2</ele>
        <time>2013-05-29T08:01:38Z</time>
      </trkpt>
      <trkpt lat="43.3865" lon="5.47612">
        <ele>331.7</ele>
        <time>2013-05-29T08:10:36Z</time>
      </trkpt>
      <trkpt lat="43.3865" lon="5.47611">
        <ele>331.5</ele>
        <time>2013-05-29T08:10:37Z</time>
      </trkpt>
      <trkpt lat="43.38664" lon="5.47599">
        <ele>331.1</ele>
        <time>2013-05-29T08:11:07Z</time>
      </trkpt>
      <trkpt lat="43.38669" lon="5.47589">
        <ele>332.2</ele>
        <time>2013-05-29T08:11:18Z</time>
      </trkpt>
      <trkpt lat="43.38676" lon="5.47582">
        <ele>333.2</ele>
        <time>2013-05-29T08:11:28Z</time>
      </trkpt>
      <trkpt lat="43.38682" lon="5.47573">
        <ele>333.5</ele>
        <time>2013-05-29T08:11:37Z</time>
      </trkpt>
      <trkpt lat="43.38683" lon="5.47572">
        <ele>333.5</ele>
        <time>2013-05-29T08:11:38Z</time>
      </trkpt>
      <trkpt lat="43.38693" lon="5.47555">
        <ele>332.7</ele>
        <time>2013-05-29T08:11:55Z</time>
      </trkpt>
      <trkpt lat="43.38698" lon="5.47545">
        <ele>332.7</ele>
        <time>2013-05-29T08:12:05Z</time>
      </trkpt>
      <trkpt lat="43.38703" lon="5.47535">
        <ele>331.2</ele>
        <time>2013-05-29T08:12:15Z</time>
      </trkpt>
      <trkpt lat="43.38707" lon="5.47525">
        <ele>330.2</ele>
        <time>2013-05-29T08:12:24Z</time>
      </trkpt>
      <trkpt lat="43.38712" lon="5.47517">
        <ele>330.6</ele>
        <time>2013-05-29T08:12:34Z</time>
      </trkpt>
      <trkpt lat="43.38718" lon="5.47509">
        <ele>330.7</ele>
        <time>2013-05-29T08:12:44Z</time>
      </trkpt>
      <trkpt lat="43.38718" lon="5.47508">
        <ele>330.7</ele>
        <time>2013-05-29T08:12:45Z</time>
      </trkpt>
      <trkpt lat="43.38732" lon="5.47496">
        <ele>334.6</ele>
        <time>2013-05-29T08:13:09Z</time>
      </trkpt>
      <trkpt lat="43.3874" lon="5.47491">
        <ele>335</ele>
        <time>2013-05-29T08:13:21Z</time>
      </trkpt>
      <trkpt lat="43.38747" lon="5.47484">
        <ele>337.7</ele>
        <time>2013-05-29T08:13:34Z</time>
      </trkpt>
      <trkpt lat="43.38755" lon="5.47478">
        <ele>338.2</ele>
        <time>2013-05-29T08:13:44Z</time>
      </trkpt>
      <trkpt lat="43.38763" lon="5.47477">
        <ele>338.2</ele>
        <time>2013-05-29T08:13:53Z</time>
      </trkpt>
      <trkpt lat="43.38764" lon="5.47477">
        <ele>338.1</ele>
        <time>2013-05-29T08:13:54Z</time>
      </trkpt>
      <trkpt lat="43.38779" lon="5.47471">
        <ele>337.1</ele>
        <time>2013-05-29T08:14:11Z</time>
      </trkpt>
      <trkpt lat="43.38787" lon="5.47468">
        <ele>336.6</ele>
        <time>2013-05-29T08:14:20Z</time>
      </trkpt>
      <trkpt lat="43.38795" lon="5.47465">
        <ele>336.2</ele>
        <time>2013-05-29T08:14:28Z</time>
      </trkpt>
      <trkpt lat="43.38803" lon="5.4746">
        <ele>338.1</ele>
        <time>2013-05-29T08:14:37Z</time>
      </trkpt>
      <trkpt lat="43.38812" lon="5.4746">
        <ele>338.2</ele>
        <time>2013-05-29T08:14:47Z</time>
      </trkpt>
      <trkpt lat="43.3882" lon="5.47458">
        <ele>338.1</ele>
        <time>2013-05-29T08:14:59Z</time>
      </trkpt>
      <trkpt lat="43.38821" lon="5.47458">
        <ele>338</ele>
        <time>2013-05-29T08:15:00Z</time>
      </trkpt>
      <trkpt lat="43.38835" lon="5.47449">
        <ele>345.1</ele>
        <time>2013-05-29T08:15:17Z</time>
      </trkpt>
      <trkpt lat="43.38843" lon="5.47445">
        <ele>345.5</ele>
        <time>2013-05-29T08:15:26Z</time>
      </trkpt>
      <trkpt lat="43.3885" lon="5.47438">
        <ele>346.5</ele>
        <time>2013-05-29T08:15:35Z</time>
      </trkpt>
      <trkpt lat="43.38858" lon="5.47432">
        <ele>347.7</ele>
        <time>2013-05-29T08:15:44Z</time>
      </trkpt>
      <trkpt lat="43.38864" lon="5.47425">
        <ele>347.2</ele>
        <time>2013-05-29T08:15:53Z</time>
      </trkpt>
      <trkpt lat="43.38871" lon="5.47417">
        <ele>347.5</ele>
        <time>2013-05-29T08:16:03Z</time>
      </trkpt>
      <trkpt lat="43.38871" lon="5.47416">
        <ele>347.5</ele>
        <time>2013-05-29T08:16:04Z</time>
      </trkpt>
      <trkpt lat="43.38883" lon="5.474">
        <ele>347.7</ele>
        <time>2013-05-29T08:16:24Z</time>
      </trkpt>
      <trkpt lat="43.38888" lon="5.47391">
        <ele>347.1</ele>
        <time>2013-05-29T08:16:32Z</time>
      </trkpt>
      <trkpt lat="43.38892" lon="5.47381">
        <ele>348.2</ele>
        <time>2013-05-29T08:16:40Z</time>
      </trkpt>
      <trkpt lat="43.38895" lon="5.4737">
        <ele>349</ele>
        <time>2013-05-29T08:16:48Z</time>
      </trkpt>
      <trkpt lat="43.389" lon="5.47362">
        <ele>349.2</ele>
        <time>2013-05-29T08:16:56Z</time>
      </trkpt>
      <trkpt lat="43.38906" lon="5.47355">
        <ele>348.1</ele>
        <time>2013-05-29T08:17:04Z</time>
      </trkpt>
      <trkpt lat="43.38907" lon="5.47354">
        <ele>348.2</ele>
        <time>2013-05-29T08:17:05Z</time>
      </trkpt>
      <trkpt lat="43.38917" lon="5.47337">
        <ele>349.1</ele>
        <time>2013-05-29T08:17:21Z</time>
      </trkpt>
      <trkpt lat="43.38923" lon="5.4733">
        <ele>348.2</ele>
        <time>2013-05-29T08:17:29Z</time>
      </trkpt>
      <trkpt lat="43.3893" lon="5.47324">
        <ele>348</ele>
        <time>2013-05-29T08:17:37Z</time>
      </trkpt>
      <trkpt lat="43.38936" lon="5.47317">
        <ele>350.6</ele>
        <time>2013-05-29T08:17:47Z</time>
      </trkpt>
      <trkpt lat="43.38944" lon="5.47311">
        <ele>351.2</ele>
        <time>2013-05-29T08:17:57Z</time>
      </trkpt>
      <trkpt lat="43.38952" lon="5.47307">
        <ele>352</ele>
        <time>2013-05-29T08:18:06Z</time>
      </trkpt>
      <trkpt lat="43.38953" lon="5.47306">
        <ele>351.7</ele>
        <time>2013-05-29T08:18:07Z</time>
      </trkpt>
      <trkpt lat="43.38967" lon="5.47296">
        <ele>354.2</ele>
        <time>2013-05-29T08:18:26Z</time>
      </trkpt>
      <trkpt lat="43.38975" lon="5.47292">
        <ele>353.6</ele>
        <time>2013-05-29T08:18:37Z</time>
      </trkpt>
      <trkpt lat="43.38982" lon="5.47285">
        <ele>353.7</ele>
        <time>2013-05-29T08:18:47Z</time>
      </trkpt>
      <trkpt lat="43.3899" lon="5.47281">
        <ele>354.6</ele>
        <time>2013-05-29T08:18:57Z</time>
      </trkpt>
      <trkpt lat="43.38997" lon="5.47275">
        <ele>355.5</ele>
        <time>2013-05-29T08:19:07Z</time>
      </trkpt>
      <trkpt lat="43.38998" lon="5.47274">
        <ele>355.5</ele>
        <time>2013-05-29T08:19:08Z</time>
      </trkpt>
      <trkpt lat="43.39011" lon="5.47261">
        <ele>358.2</ele>
        <time>2013-05-29T08:19:29Z</time>
      </trkpt>
      <trkpt lat="43.39019" lon="5.47255">
        <ele>358.1</ele>
        <time>2013-05-29T08:19:40Z</time>
      </trkpt>
      <trkpt lat="43.39025" lon="5.47247">
        <ele>359.1</ele>
        <time>2013-05-29T08:19:49Z</time>
      </trkpt>
      <trkpt lat="43.3903" lon="5.47237">
        <ele>356.6</ele>
        <time>2013-05-29T08:20:00Z</time>
      </trkpt>
      <trkpt lat="43.39036" lon="5.4723">
        <ele>356.6</ele>
        <time>2013-05-29T08:20:09Z</time>
      </trkpt>
      <trkpt lat="43.39037" lon="5.47229">
        <ele>356.6</ele>
        <time>2013-05-29T08:20:10Z</time>
      </trkpt>
      <trkpt lat="43.39051" lon="5.47218">
        <ele>359.2</ele>
        <time>2013-05-29T08:20:28Z</time>
      </trkpt>
      <trkpt lat="43.39058" lon="5.4721">
        <ele>360.2</ele>
        <time>2013-05-29T08:20:39Z</time>
      </trkpt>
      <trkpt lat="43.39064" lon="5.47202">
        <ele>359.6</ele>
        <time>2013-05-29T08:20:50Z</time>
      </trkpt>
      <trkpt lat="43.39073" lon="5.47201">
        <ele>359.6</ele>
        <time>2013-05-29T08:21:01Z</time>
      </trkpt>
      <trkpt lat="43.39081" lon="5.47203">
        <ele>360.6</ele>
        <time>2013-05-29T08:21:10Z</time>
      </trkpt>
      <trkpt lat="43.39082" lon="5.47203">
        <ele>360.2</ele>
        <time>2013-05-29T08:21:11Z</time>
      </trkpt>
      <trkpt lat="43.39097" lon="5.4721">
        <ele>362.6</ele>
        <time>2013-05-29T08:21:28Z</time>
      </trkpt>
      <trkpt lat="43.39104" lon="5.47216">
        <ele>368.1</ele>
        <time>2013-05-29T08:21:41Z</time>
      </trkpt>
      <trkpt lat="43.3911" lon="5.47225">
        <ele>369.6</ele>
        <time>2013-05-29T08:21:49Z</time>
      </trkpt>
      <trkpt lat="43.39118" lon="5.47231">
        <ele>368.7</ele>
        <time>2013-05-29T08:21:57Z</time>
      </trkpt>
      <trkpt lat="43.39126" lon="5.47235">
        <ele>373</ele>
        <time>2013-05-29T08:22:05Z</time>
      </trkpt>
      <trkpt lat="43.39134" lon="5.47237">
        <ele>366.5</ele>
        <time>2013-05-29T08:22:17Z</time>
      </trkpt>
      <trkpt lat="43.39135" lon="5.47238">
        <ele>366</ele>
        <time>2013-05-29T08:22:18Z</time>
      </trkpt>
      <trkpt lat="43.39151" lon="5.47234">
        <ele>365.1</ele>
        <time>2013-05-29T08:22:44Z</time>
      </trkpt>
      <trkpt lat="43.3916" lon="5.4723">
        <ele>366.7</ele>
        <time>2013-05-29T08:22:56Z</time>
      </trkpt>
      <trkpt lat="43.39168" lon="5.47229">
        <ele>368</ele>
        <time>2013-05-29T08:23:08Z</time>
      </trkpt>
      <trkpt lat="43.39176" lon="5.47229">
        <ele>371.6</ele>
        <time>2013-05-29T08:23:23Z</time>
      </trkpt>
      <trkpt lat="43.39177" lon="5.47229">
        <ele>371.7</ele>
        <time>2013-05-29T08:23:24Z</time>
      </trkpt>
      <trkpt lat="43.39191" lon="5.47218">
        <ele>370</ele>
        <time>2013-05-29T08:23:45Z</time>
      </trkpt>
      <trkpt lat="43.39199" lon="5.47213">
        <ele>372.2</ele>
        <time>2013-05-29T08:23:54Z</time>
      </trkpt>
      <trkpt lat="43.39207" lon="5.47208">
        <ele>374.2</ele>
        <time>2013-05-29T08:24:04Z</time>
      </trkpt>
      <trkpt lat="43.39213" lon="5.47202">
        <ele>376.2</ele>
        <time>2013-05-29T08:24:15Z</time>
      </trkpt>
      <trkpt lat="43.3922" lon="5.47194">
        <ele>375.5</ele>
        <time>2013-05-29T08:24:27Z</time>
      </trkpt>
      <trkpt lat="43.39221" lon="5.47194">
        <ele>375.6</ele>
        <time>2013-05-29T08:24:28Z</time>
      </trkpt>
      <trkpt lat="43.39233" lon="5.47179">
        <ele>377.2</ele>
        <time>2013-05-29T08:24:48Z</time>
      </trkpt>
      <trkpt lat="43.39241" lon="5.47175">
        <ele>377.7</ele>
        <time>2013-05-29T08:24:58Z</time>
      </trkpt>
      <trkpt lat="43.39249" lon="5.47169">
        <ele>381</ele>
        <time>2013-05-29T08:25:11Z</time>
      </trkpt>
      <trkpt lat="43.39257" lon="5.47171">
        <ele>378.2</ele>
        <time>2013-05-29T08:25:18Z</time>
      </trkpt>
      <trkpt lat="43.39265" lon="5.47168">
        <ele>380.7</ele>
        <time>2013-05-29T08:25:25Z</time>
      </trkpt>
      <trkpt lat="43.39274" lon="5.47166">
        <ele>377.5</ele>
        <time>2013-05-29T08:25:34Z</time>
      </trkpt>
      <trkpt lat="43.39275" lon="5.47166">
        <ele>377.2</ele>
        <time>2013-05-29T08:25:35Z</time>
      </trkpt>
      <trkpt lat="43.39289" lon="5.47158">
        <ele>377.7</ele>
        <time>2013-05-29T08:25:53Z</time>
      </trkpt>
      <trkpt lat="43.39297" lon="5.47154">
        <ele>379.7</ele>
        <time>2013-05-29T08:26:03Z</time>
      </trkpt>
      <trkpt lat="43.39305" lon="5.47151">
        <ele>381</ele>
        <time>2013-05-29T08:26:14Z</time>
      </trkpt>
      <trkpt lat="43.39314" lon="5.47148">
        <ele>380.6</ele>
        <time>2013-05-29T08:26:23Z</time>
      </trkpt>
      <trkpt lat="43.39322" lon="5.47148">
        <ele>382.7</ele>
        <time>2013-05-29T08:26:34Z</time>
      </trkpt>
      <trkpt lat="43.3933" lon="5.47145">
        <ele>383.2</ele>
        <time>2013-05-29T08:26:44Z</time>
      </trkpt>
      <trkpt lat="43.39331" lon="5.47144">
        <ele>384.6</ele>
        <time>2013-05-29T08:26:45Z</time>
      </trkpt>
      <trkpt lat="43.39345" lon="5.47138">
        <ele>387</ele>
        <time>2013-05-29T08:27:03Z</time>
      </trkpt>
      <trkpt lat="43.39353" lon="5.47134">
        <ele>386.6</ele>
        <time>2013-05-29T08:27:12Z</time>
      </trkpt>
      <trkpt lat="43.39361" lon="5.47129">
        <ele>387.2</ele>
        <time>2013-05-29T08:27:22Z</time>
      </trkpt>
      <trkpt lat="43.39369" lon="5.47125">
        <ele>388.2</ele>
        <time>2013-05-29T08:27:32Z</time>
      </trkpt>
      <trkpt lat="43.39378" lon="5.47125">
        <ele>387.2</ele>
        <time>2013-05-29T08:27:42Z</time>
      </trkpt>
      <trkpt lat="43.39386" lon="5.47125">
        <ele>388.6</ele>
        <time>2013-05-29T08:27:51Z</time>
      </trkpt>
      <trkpt lat="43.39388" lon="5.47125">
        <ele>389</ele>
        <time>2013-05-29T08:27:52Z</time>
      </trkpt>
      <trkpt lat="43.39403" lon="5.47126">
        <ele>388.2</ele>
        <time>2013-05-29T08:28:08Z</time>
      </trkpt>
      <trkpt lat="43.39411" lon="5.47126">
        <ele>387.7</ele>
        <time>2013-05-29T08:28:17Z</time>
      </trkpt>
      <trkpt lat="43.39418" lon="5.47119">
        <ele>389.7</ele>
        <time>2013-05-29T08:28:26Z</time>
      </trkpt>
      <trkpt lat="43.39425" lon="5.47111">
        <ele>390.7</ele>
        <time>2013-05-29T08:28:35Z</time>
      </trkpt>
      <trkpt lat="43.39431" lon="5.47102">
        <ele>391.7</ele>
        <time>2013-05-29T08:28:44Z</time>
      </trkpt>
      <trkpt lat="43.39436" lon="5.47093">
        <ele>392.6</ele>
        <time>2013-05-29T08:28:54Z</time>
      </trkpt>
      <trkpt lat="43.39437" lon="5.47092">
        <ele>392.5</ele>
        <time>2013-05-29T08:28:55Z</time>
      </trkpt>
      <trkpt lat="43.39448" lon="5.47076">
        <ele>391.2</ele>
        <time>2013-05-29T08:29:24Z</time>
      </trkpt>
      <trkpt lat="43.39455" lon="5.47069">
        <ele>392.7</ele>
        <time>2013-05-29T08:29:35Z</time>
      </trkpt>
      <trkpt lat="43.39461" lon="5.47061">
        <ele>394.2</ele>
        <time>2013-05-29T08:29:44Z</time>
      </trkpt>
      <trkpt lat="43.3947" lon="5.47057">
        <ele>393</ele>
        <time>2013-05-29T08:29:53Z</time>
      </trkpt>
      <trkpt lat="43.39478" lon="5.47053">
        <ele>391.7</ele>
        <time>2013-05-29T08:30:03Z</time>
      </trkpt>
      <trkpt lat="43.39479" lon="5.47053">
        <ele>391.7</ele>
        <time>2013-05-29T08:30:04Z</time>
      </trkpt>
      <trkpt lat="43.39492" lon="5.47039">
        <ele>392.2</ele>
        <time>2013-05-29T08:30:25Z</time>
      </trkpt>
      <trkpt lat="43.39498" lon="5.4703">
        <ele>390.7</ele>
        <time>2013-05-29T08:30:35Z</time>
      </trkpt>
      <trkpt lat="43.39501" lon="5.47019">
        <ele>388.2</ele>
        <time>2013-05-29T08:30:45Z</time>
      </trkpt>
      <trkpt lat="43.39501" lon="5.47007">
        <ele>387.2</ele>
        <time>2013-05-29T08:30:54Z</time>
      </trkpt>
      <trkpt lat="43.39502" lon="5.46996">
        <ele>387.7</ele>
        <time>2013-05-29T08:31:04Z</time>
      </trkpt>
      <trkpt lat="43.39503" lon="5.46994">
        <ele>388.1</ele>
        <time>2013-05-29T08:31:05Z</time>
      </trkpt>
      <trkpt lat="43.39508" lon="5.46973">
        <ele>392.7</ele>
        <time>2013-05-29T08:31:25Z</time>
      </trkpt>
      <trkpt lat="43.39513" lon="5.46964">
        <ele>394.2</ele>
        <time>2013-05-29T08:31:37Z</time>
      </trkpt>
      <trkpt lat="43.39515" lon="5.46953">
        <ele>393.5</ele>
        <time>2013-05-29T08:31:51Z</time>
      </trkpt>
      <trkpt lat="43.39516" lon="5.46941">
        <ele>394.5</ele>
        <time>2013-05-29T08:32:02Z</time>
      </trkpt>
      <trkpt lat="43.39524" lon="5.46934">
        <ele>398.7</ele>
        <time>2013-05-29T08:32:11Z</time>
      </trkpt>
      <trkpt lat="43.39524" lon="5.46933">
        <ele>398.7</ele>
        <time>2013-05-29T08:32:12Z</time>
      </trkpt>
      <trkpt lat="43.39521" lon="5.4691">
        <ele>398</ele>
        <time>2013-05-29T08:32:31Z</time>
      </trkpt>
      <trkpt lat="43.39515" lon="5.46902">
        <ele>397.7</ele>
        <time>2013-05-29T08:32:37Z</time>
      </trkpt>
      <trkpt lat="43.39515" lon="5.4689">
        <ele>396.2</ele>
        <time>2013-05-29T08:32:48Z</time>
      </trkpt>
      <trkpt lat="43.39522" lon="5.46882">
        <ele>400.1</ele>
        <time>2013-05-29T08:33:00Z</time>
      </trkpt>
      <trkpt lat="43.39529" lon="5.46875">
        <ele>402.7</ele>
        <time>2013-05-29T08:33:10Z</time>
      </trkpt>
      <trkpt lat="43.39537" lon="5.4687">
        <ele>402.2</ele>
        <time>2013-05-29T08:33:22Z</time>
      </trkpt>
      <trkpt lat="43.39537" lon="5.46869">
        <ele>402</ele>
        <time>2013-05-29T08:33:23Z</time>
      </trkpt>
      <trkpt lat="43.39551" lon="5.46859">
        <ele>399.7</ele>
        <time>2013-05-29T08:33:43Z</time>
      </trkpt>
      <trkpt lat="43.39557" lon="5.46851">
        <ele>401.7</ele>
        <time>2013-05-29T08:33:53Z</time>
      </trkpt>
      <trkpt lat="43.39565" lon="5.46845">
        <ele>402.2</ele>
        <time>2013-05-29T08:34:05Z</time>
      </trkpt>
      <trkpt lat="43.39573" lon="5.4684">
        <ele>402</ele>
        <time>2013-05-29T08:34:16Z</time>
      </trkpt>
      <trkpt lat="43.39582" lon="5.46838">
        <ele>403.2</ele>
        <time>2013-05-29T08:34:27Z</time>
      </trkpt>
      <trkpt lat="43.39583" lon="5.46838">
        <ele>403.7</ele>
        <time>2013-05-29T08:34:28Z</time>
      </trkpt>
      <trkpt lat="43.39596" lon="5.46826">
        <ele>405.6</ele>
        <time>2013-05-29T08:34:52Z</time>
      </trkpt>
      <trkpt lat="43.39599" lon="5.46815">
        <ele>405.7</ele>
        <time>2013-05-29T08:35:03Z</time>
      </trkpt>
      <trkpt lat="43.39603" lon="5.46805">
        <ele>405.5</ele>
        <time>2013-05-29T08:35:18Z</time>
      </trkpt>
      <trkpt lat="43.39608" lon="5.46795">
        <ele>407.2</ele>
        <time>2013-05-29T08:35:38Z</time>
      </trkpt>
      <trkpt lat="43.39608" lon="5.46794">
        <ele>408</ele>
        <time>2013-05-29T08:35:39Z</time>
      </trkpt>
      <trkpt lat="43.39617" lon="5.46776">
        <ele>408.6</ele>
        <time>2013-05-29T08:36:21Z</time>
      </trkpt>
      <trkpt lat="43.39621" lon="5.46767">
        <ele>410</ele>
        <time>2013-05-29T08:36:29Z</time>
      </trkpt>
      <trkpt lat="43.39628" lon="5.46759">
        <ele>408.6</ele>
        <time>2013-05-29T08:36:37Z</time>
      </trkpt>
      <trkpt lat="43.39633" lon="5.46749">
        <ele>408.6</ele>
        <time>2013-05-29T08:36:48Z</time>
      </trkpt>
      <trkpt lat="43.39634" lon="5.46749">
        <ele>408.5</ele>
        <time>2013-05-29T08:36:49Z</time>
      </trkpt>
      <trkpt lat="43.39629" lon="5.46726">
        <ele>405.6</ele>
        <time>2013-05-29T08:37:15Z</time>
      </trkpt>
      <trkpt lat="43.39632" lon="5.46715">
        <ele>408.2</ele>
        <time>2013-05-29T08:37:29Z</time>
      </trkpt>
      <trkpt lat="43.39638" lon="5.46707">
        <ele>410.7</ele>
        <time>2013-05-29T08:37:43Z</time>
      </trkpt>
      <trkpt lat="43.39646" lon="5.467">
        <ele>412</ele>
        <time>2013-05-29T08:37:55Z</time>
      </trkpt>
      <trkpt lat="43.39646" lon="5.467">
        <ele>412.6</ele>
        <time>2013-05-29T08:37:56Z</time>
      </trkpt>
      <trkpt lat="43.39654" lon="5.46681">
        <ele>413.2</ele>
        <time>2013-05-29T08:38:19Z</time>
      </trkpt>
      <trkpt lat="43.39656" lon="5.46669">
        <ele>417.2</ele>
        <time>2013-05-29T08:38:31Z</time>
      </trkpt>
      <trkpt lat="43.39659" lon="5.46659">
        <ele>417.6</ele>
        <time>2013-05-29T08:38:43Z</time>
      </trkpt>
      <trkpt lat="43.39662" lon="5.46648">
        <ele>417</ele>
        <time>2013-05-29T08:38:53Z</time>
      </trkpt>
      <trkpt lat="43.39666" lon="5.46637">
        <ele>419.5</ele>
        <time>2013-05-29T08:39:08Z</time>
      </trkpt>
      <trkpt lat="43.39667" lon="5.46636">
        <ele>420</ele>
        <time>2013-05-29T08:39:09Z</time>
      </trkpt>
      <trkpt lat="43.39672" lon="5.46614">
        <ele>419.7</ele>
        <time>2013-05-29T08:39:29Z</time>
      </trkpt>
      <trkpt lat="43.39676" lon="5.46604">
        <ele>421.5</ele>
        <time>2013-05-29T08:39:38Z</time>
      </trkpt>
      <trkpt lat="43.39679" lon="5.46593">
        <ele>422.1</ele>
        <time>2013-05-29T08:39:47Z</time>
      </trkpt>
      <trkpt lat="43.39678" lon="5.46581">
        <ele>421.2</ele>
        <time>2013-05-29T08:39:59Z</time>
      </trkpt>
      <trkpt lat="43.39673" lon="5.46571">
        <ele>420.2</ele>
        <time>2013-05-29T08:40:09Z</time>
      </trkpt>
      <trkpt lat="43.39673" lon="5.4657">
        <ele>420.1</ele>
        <time>2013-05-29T08:40:10Z</time>
      </trkpt>
      <trkpt lat="43.3968" lon="5.46551">
        <ele>428.7</ele>
        <time>2013-05-29T08:40:32Z</time>
      </trkpt>
      <trkpt lat="43.39685" lon="5.46541">
        <ele>430.1</ele>
        <time>2013-05-29T08:40:42Z</time>
      </trkpt>
      <trkpt lat="43.3969" lon="5.46532">
        <ele>431</ele>
        <time>2013-05-29T08:40:53Z</time>
      </trkpt>
      <trkpt lat="43.39695" lon="5.46523">
        <ele>427.7</ele>
        <time>2013-05-29T08:41:05Z</time>
      </trkpt>
      <trkpt lat="43.397" lon="5.46514">
        <ele>426</ele>
        <time>2013-05-29T08:41:14Z</time>
      </trkpt>
      <trkpt lat="43.39701" lon="5.46513">
        <ele>426.1</ele>
        <time>2013-05-29T08:41:15Z</time>
      </trkpt>
      <trkpt lat="43.39702" lon="5.4649">
        <ele>424</ele>
        <time>2013-05-29T08:41:31Z</time>
      </trkpt>
      <trkpt lat="43.39701" lon="5.46479">
        <ele>422.6</ele>
        <time>2013-05-29T08:41:40Z</time>
      </trkpt>
      <trkpt lat="43.39698" lon="5.46468">
        <ele>424.6</ele>
        <time>2013-05-29T08:41:52Z</time>
      </trkpt>
      <trkpt lat="43.39694" lon="5.46458">
        <ele>424.2</ele>
        <time>2013-05-29T08:42:01Z</time>
      </trkpt>
      <trkpt lat="43.39689" lon="5.46449">
        <ele>424.2</ele>
        <time>2013-05-29T08:42:10Z</time>
      </trkpt>
      <trkpt lat="43.39687" lon="5.46437">
        <ele>427.7</ele>
        <time>2013-05-29T08:42:24Z</time>
      </trkpt>
      <trkpt lat="43.39688" lon="5.46436">
        <ele>428.2</ele>
        <time>2013-05-29T08:42:25Z</time>
      </trkpt>
      <trkpt lat="43.3969" lon="5.46414">
        <ele>428</ele>
        <time>2013-05-29T08:42:43Z</time>
      </trkpt>
      <trkpt lat="43.3969" lon="5.46402">
        <ele>429.7</ele>
        <time>2013-05-29T08:42:55Z</time>
      </trkpt>
      <trkpt lat="43.39687" lon="5.46391">
        <ele>425.2</ele>
        <time>2013-05-29T08:43:03Z</time>
      </trkpt>
      <trkpt lat="43.39687" lon="5.46379">
        <ele>426.2</ele>
        <time>2013-05-29T08:43:16Z</time>
      </trkpt>
      <trkpt lat="43.39689" lon="5.46368">
        <ele>425.7</ele>
        <time>2013-05-29T08:43:30Z</time>
      </trkpt>
      <trkpt lat="43.39689" lon="5.46366">
        <ele>426.5</ele>
        <time>2013-05-29T08:43:31Z</time>
      </trkpt>
      <trkpt lat="43.39689" lon="5.46344">
        <ele>427</ele>
        <time>2013-05-29T08:43:53Z</time>
      </trkpt>
      <trkpt lat="43.39693" lon="5.46333">
        <ele>430.5</ele>
        <time>2013-05-29T08:44:06Z</time>
      </trkpt>
      <trkpt lat="43.39697" lon="5.46322">
        <ele>432.5</ele>
        <time>2013-05-29T08:44:20Z</time>
      </trkpt>
      <trkpt lat="43.39705" lon="5.46317">
        <ele>433.7</ele>
        <time>2013-05-29T08:44:34Z</time>
      </trkpt>
      <trkpt lat="43.39705" lon="5.46317">
        <ele>433.6</ele>
        <time>2013-05-29T08:44:35Z</time>
      </trkpt>
      <trkpt lat="43.39721" lon="5.46311">
        <ele>442.7</ele>
        <time>2013-05-29T08:44:54Z</time>
      </trkpt>
      <trkpt lat="43.39729" lon="5.46305">
        <ele>443.7</ele>
        <time>2013-05-29T08:45:05Z</time>
      </trkpt>
      <trkpt lat="43.39737" lon="5.46303">
        <ele>445.2</ele>
        <time>2013-05-29T08:45:13Z</time>
      </trkpt>
      <trkpt lat="43.3974" lon="5.46292">
        <ele>444.2</ele>
        <time>2013-05-29T08:45:29Z</time>
      </trkpt>
      <trkpt lat="43.39743" lon="5.46281">
        <ele>440.1</ele>
        <time>2013-05-29T08:45:44Z</time>
      </trkpt>
      <trkpt lat="43.39743" lon="5.4628">
        <ele>440.2</ele>
        <time>2013-05-29T08:45:45Z</time>
      </trkpt>
      <trkpt lat="43.39753" lon="5.46262">
        <ele>444.7</ele>
        <time>2013-05-29T08:46:09Z</time>
      </trkpt>
      <trkpt lat="43.39759" lon="5.46252">
        <ele>449.1</ele>
        <time>2013-05-29T08:46:22Z</time>
      </trkpt>
      <trkpt lat="43.39765" lon="5.46244">
        <ele>447.7</ele>
        <time>2013-05-29T08:46:37Z</time>
      </trkpt>
      <trkpt lat="43.39769" lon="5.46234">
        <ele>445.2</ele>
        <time>2013-05-29T08:46:50Z</time>
      </trkpt>
      <trkpt lat="43.3977" lon="5.46233">
        <ele>445.2</ele>
        <time>2013-05-29T08:46:51Z</time>
      </trkpt>
      <trkpt lat="43.39786" lon="5.46233">
        <ele>452.7</ele>
        <time>2013-05-29T08:47:15Z</time>
      </trkpt>
      <trkpt lat="43.39795" lon="5.46229">
        <ele>456.1</ele>
        <time>2013-05-29T08:47:35Z</time>
      </trkpt>
      <trkpt lat="43.39798" lon="5.46218">
        <ele>455</ele>
        <time>2013-05-29T08:47:55Z</time>
      </trkpt>
      <trkpt lat="43.39799" lon="5.46218">
        <ele>455.2</ele>
        <time>2013-05-29T08:47:56Z</time>
      </trkpt>
      <trkpt lat="43.39816" lon="5.46212">
        <ele>458.7</ele>
        <time>2013-05-29T08:48:24Z</time>
      </trkpt>
      <trkpt lat="43.39824" lon="5.46211">
        <ele>462.7</ele>
        <time>2013-05-29T08:48:37Z</time>
      </trkpt>
      <trkpt lat="43.3983" lon="5.46202">
        <ele>459.7</ele>
        <time>2013-05-29T08:48:54Z</time>
      </trkpt>
      <trkpt lat="43.39838" lon="5.46197">
        <ele>465.6</ele>
        <time>2013-05-29T08:49:16Z</time>
      </trkpt>
      <trkpt lat="43.39838" lon="5.46196">
        <ele>466.6</ele>
        <time>2013-05-29T08:49:17Z</time>
      </trkpt>
      <trkpt lat="43.39855" lon="5.46193">
        <ele>463.7</ele>
        <time>2013-05-29T08:49:43Z</time>
      </trkpt>
      <trkpt lat="43.39864" lon="5.46195">
        <ele>466.2</ele>
        <time>2013-05-29T08:49:55Z</time>
      </trkpt>
      <trkpt lat="43.39873" lon="5.46194">
        <ele>463.2</ele>
        <time>2013-05-29T08:50:06Z</time>
      </trkpt>
      <trkpt lat="43.39881" lon="5.46194">
        <ele>471</ele>
        <time>2013-05-29T08:50:19Z</time>
      </trkpt>
      <trkpt lat="43.39882" lon="5.46194">
        <ele>471</ele>
        <time>2013-05-29T08:50:20Z</time>
      </trkpt>
      <trkpt lat="43.39898" lon="5.46193">
        <ele>469.7</ele>
        <time>2013-05-29T08:50:44Z</time>
      </trkpt>
      <trkpt lat="43.39907" lon="5.46191">
        <ele>473.7</ele>
        <time>2013-05-29T08:50:56Z</time>
      </trkpt>
      <trkpt lat="43.39914" lon="5.46185">
        <ele>466.7</ele>
        <time>2013-05-29T08:51:12Z</time>
      </trkpt>
      <trkpt lat="43.39922" lon="5.46181">
        <ele>461.7</ele>
        <time>2013-05-29T08:51:32Z</time>
      </trkpt>
      <trkpt lat="43.39923" lon="5.46182">
        <ele>462.2</ele>
        <time>2013-05-29T08:51:33Z</time>
      </trkpt>
      <trkpt lat="43.39934" lon="5.46198">
        <ele>470.1</ele>
        <time>2013-05-29T08:51:52Z</time>
      </trkpt>
      <trkpt lat="43.39938" lon="5.46209">
        <ele>474.7</ele>
        <time>2013-05-29T08:52:02Z</time>
      </trkpt>
      <trkpt lat="43.39945" lon="5.46215">
        <ele>475.7</ele>
        <time>2013-05-29T08:52:14Z</time>
      </trkpt>
      <trkpt lat="43.39953" lon="5.46219">
        <ele>478.2</ele>
        <time>2013-05-29T08:52:27Z</time>
      </trkpt>
      <trkpt lat="43.39962" lon="5.46216">
        <ele>468.2</ele>
        <time>2013-05-29T08:52:40Z</time>
      </trkpt>
      <trkpt lat="43.39963" lon="5.46215">
        <ele>465</ele>
        <time>2013-05-29T08:52:41Z</time>
      </trkpt>
      <trkpt lat="43.39979" lon="5.46213">
        <ele>479.7</ele>
        <time>2013-05-29T08:53:01Z</time>
      </trkpt>
      <trkpt lat="43.39987" lon="5.46209">
        <ele>481</ele>
        <time>2013-05-29T08:53:10Z</time>
      </trkpt>
      <trkpt lat="43.39994" lon="5.46212">
        <ele>479.6</ele>
        <time>2013-05-29T08:53:25Z</time>
      </trkpt>
      <trkpt lat="43.40002" lon="5.46218">
        <ele>482.2</ele>
        <time>2013-05-29T08:53:35Z</time>
      </trkpt>
      <trkpt lat="43.4001" lon="5.46224">
        <ele>482.7</ele>
        <time>2013-05-29T08:53:47Z</time>
      </trkpt>
      <trkpt lat="43.4001" lon="5.46225">
        <ele>482.2</ele>
        <time>2013-05-29T08:53:48Z</time>
      </trkpt>
      <trkpt lat="43.40025" lon="5.46215">
        <ele>493.2</ele>
        <time>2013-05-29T08:54:11Z</time>
      </trkpt>
      <trkpt lat="43.4003" lon="5.46205">
        <ele>491.7</ele>
        <time>2013-05-29T08:54:28Z</time>
      </trkpt>
      <trkpt lat="43.40037" lon="5.46197">
        <ele>490.7</ele>
        <time>2013-05-29T08:54:44Z</time>
      </trkpt>
      <trkpt lat="43.40045" lon="5.46195">
        <ele>494.1</ele>
        <time>2013-05-29T08:55:00Z</time>
      </trkpt>
      <trkpt lat="43.40045" lon="5.46194">
        <ele>494.1</ele>
        <time>2013-05-29T08:55:01Z</time>
      </trkpt>
      <trkpt lat="43.40062" lon="5.46194">
        <ele>489.7</ele>
        <time>2013-05-29T08:55:25Z</time>
      </trkpt>
      <trkpt lat="43.40068" lon="5.46203">
        <ele>497.7</ele>
        <time>2013-05-29T08:55:33Z</time>
      </trkpt>
      <trkpt lat="43.40077" lon="5.46204">
        <ele>503.7</ele>
        <time>2013-05-29T08:55:48Z</time>
      </trkpt>
      <trkpt lat="43.40082" lon="5.4621">
        <ele>507.5</ele>
        <time>2013-05-29T08:55:59Z</time>
      </trkpt>
      <trkpt lat="43.40087" lon="5.4622">
        <ele>506.7</ele>
        <time>2013-05-29T08:56:05Z</time>
      </trkpt>
      <trkpt lat="43.40087" lon="5.46221">
        <ele>507.7</ele>
        <time>2013-05-29T08:56:06Z</time>
      </trkpt>
      <trkpt lat="43.40094" lon="5.4624">
        <ele>494.7</ele>
        <time>2013-05-29T08:56:31Z</time>
      </trkpt>
      <trkpt lat="43.40099" lon="5.4625">
        <ele>492.2</ele>
        <time>2013-05-29T08:56:44Z</time>
      </trkpt>
      <trkpt lat="43.40099" lon="5.46262">
        <ele>498</ele>
        <time>2013-05-29T08:56:57Z</time>
      </trkpt>
      <trkpt lat="43.401" lon="5.46274">
        <ele>503.7</ele>
        <time>2013-05-29T08:57:17Z</time>
      </trkpt>
      <trkpt lat="43.401" lon="5.46274">
        <ele>503.2</ele>
        <time>2013-05-29T08:57:18Z</time>
      </trkpt>
      <trkpt lat="43.40105" lon="5.46297">
        <ele>513.5</ele>
        <time>2013-05-29T08:57:43Z</time>
      </trkpt>
      <trkpt lat="43.40107" lon="5.46308">
        <ele>512.5</ele>
        <time>2013-05-29T08:57:54Z</time>
      </trkpt>
      <trkpt lat="43.40115" lon="5.46314">
        <ele>510.6</ele>
        <time>2013-05-29T08:58:09Z</time>
      </trkpt>
      <trkpt lat="43.40123" lon="5.46318">
        <ele>508.2</ele>
        <time>2013-05-29T08:58:27Z</time>
      </trkpt>
      <trkpt lat="43.40123" lon="5.46318">
        <ele>508.2</ele>
        <time>2013-05-29T08:58:28Z</time>
      </trkpt>
      <trkpt lat="43.4014" lon="5.4632">
        <ele>508.2</ele>
        <time>2013-05-29T08:58:55Z</time>
      </trkpt>
      <trkpt lat="43.40147" lon="5.46326">
        <ele>509.1</ele>
        <time>2013-05-29T08:59:10Z</time>
      </trkpt>
      <trkpt lat="43.40156" lon="5.46324">
        <ele>514.5</ele>
        <time>2013-05-29T09:00:19Z</time>
      </trkpt>
      <trkpt lat="43.40157" lon="5.46324">
        <ele>515</ele>
        <time>2013-05-29T09:00:20Z</time>
      </trkpt>
      <trkpt lat="43.40172" lon="5.46328">
        <ele>522</ele>
        <time>2013-05-29T09:00:47Z</time>
      </trkpt>
      <trkpt lat="43.40179" lon="5.46333">
        <ele>541.4</ele>
        <time>2013-05-29T09:01:01Z</time>
      </trkpt>
      <trkpt lat="43.40171" lon="5.46333">
        <ele>532.2</ele>
        <time>2013-05-29T09:01:18Z</time>
      </trkpt>
      <trkpt lat="43.40166" lon="5.46323">
        <ele>523.5</ele>
        <time>2013-05-29T09:01:36Z</time>
      </trkpt>
      <trkpt lat="43.40165" lon="5.46323">
        <ele>523</ele>
        <time>2013-05-29T09:01:37Z</time>
      </trkpt>
      <trkpt lat="43.40148" lon="5.46325">
        <ele>514.2</ele>
        <time>2013-05-29T09:02:05Z</time>
      </trkpt>
      <trkpt lat="43.40157" lon="5.46322">
        <ele>520.5</ele>
        <time>2013-05-29T09:04:52Z</time>
      </trkpt>
      <trkpt lat="43.40158" lon="5.46322">
        <ele>520.4</ele>
        <time>2013-05-29T09:04:53Z</time>
      </trkpt>
      <trkpt lat="43.40167" lon="5.46321">
        <ele>516.7</ele>
        <time>2013-05-29T09:07:00Z</time>
      </trkpt>
      <trkpt lat="43.40182" lon="5.46312">
        <ele>514.9</ele>
        <time>2013-05-29T09:07:23Z</time>
      </trkpt>
      <trkpt lat="43.4019" lon="5.46316">
        <ele>519.4</ele>
        <time>2013-05-29T09:07:35Z</time>
      </trkpt>
      <trkpt lat="43.40199" lon="5.46318">
        <ele>519.2</ele>
        <time>2013-05-29T09:07:48Z</time>
      </trkpt>
      <trkpt lat="43.40206" lon="5.46311">
        <ele>521.5</ele>
        <time>2013-05-29T09:08:03Z</time>
      </trkpt>
      <trkpt lat="43.40206" lon="5.4631">
        <ele>521.5</ele>
        <time>2013-05-29T09:08:04Z</time>
      </trkpt>
      <trkpt lat="43.40222" lon="5.46307">
        <ele>527.2</ele>
        <time>2013-05-29T09:08:32Z</time>
      </trkpt>
      <trkpt lat="43.40231" lon="5.46309">
        <ele>527.7</ele>
        <time>2013-05-29T09:08:49Z</time>
      </trkpt>
      <trkpt lat="43.40239" lon="5.4631">
        <ele>534</ele>
        <time>2013-05-29T09:09:05Z</time>
      </trkpt>
      <trkpt lat="43.4024" lon="5.4631">
        <ele>534.9</ele>
        <time>2013-05-29T09:09:06Z</time>
      </trkpt>
      <trkpt lat="43.40257" lon="5.46314">
        <ele>538.2</ele>
        <time>2013-05-29T09:09:43Z</time>
      </trkpt>
      <trkpt lat="43.40266" lon="5.46316">
        <ele>535.7</ele>
        <time>2013-05-29T09:09:58Z</time>
      </trkpt>
      <trkpt lat="43.40274" lon="5.46313">
        <ele>540</ele>
        <time>2013-05-29T09:10:19Z</time>
      </trkpt>
      <trkpt lat="43.40274" lon="5.46313">
        <ele>540</ele>
        <time>2013-05-29T09:10:20Z</time>
      </trkpt>
      <trkpt lat="43.40288" lon="5.46311">
        <ele>539.7</ele>
        <time>2013-05-29T09:10:51Z</time>
      </trkpt>
      <trkpt lat="43.40295" lon="5.46304">
        <ele>548.2</ele>
        <time>2013-05-29T09:11:10Z</time>
      </trkpt>
      <trkpt lat="43.40303" lon="5.46305">
        <ele>551.5</ele>
        <time>2013-05-29T09:11:27Z</time>
      </trkpt>
      <trkpt lat="43.40304" lon="5.46305">
        <ele>551.2</ele>
        <time>2013-05-29T09:11:28Z</time>
      </trkpt>
      <trkpt lat="43.40319" lon="5.46309">
        <ele>561.5</ele>
        <time>2013-05-29T09:12:15Z</time>
      </trkpt>
      <trkpt lat="43.40326" lon="5.46316">
        <ele>558.2</ele>
        <time>2013-05-29T09:12:31Z</time>
      </trkpt>
      <trkpt lat="43.40327" lon="5.46316">
        <ele>556.5</ele>
        <time>2013-05-29T09:12:32Z</time>
      </trkpt>
      <trkpt lat="43.40344" lon="5.46314">
        <ele>559.2</ele>
        <time>2013-05-29T09:13:24Z</time>
      </trkpt>
      <trkpt lat="43.40353" lon="5.46315">
        <ele>573.4</ele>
        <time>2013-05-29T09:14:03Z</time>
      </trkpt>
      <trkpt lat="43.40354" lon="5.46315">
        <ele>573.2</ele>
        <time>2013-05-29T09:14:04Z</time>
      </trkpt>
      <trkpt lat="43.40369" lon="5.46307">
        <ele>572.5</ele>
        <time>2013-05-29T09:14:48Z</time>
      </trkpt>
      <trkpt lat="43.40376" lon="5.46299">
        <ele>568.7</ele>
        <time>2013-05-29T09:15:03Z</time>
      </trkpt>
      <trkpt lat="43.40377" lon="5.46287">
        <ele>580.4</ele>
        <time>2013-05-29T09:15:41Z</time>
      </trkpt>
      <trkpt lat="43.40377" lon="5.46287">
        <ele>580</ele>
        <time>2013-05-29T09:15:42Z</time>
      </trkpt>
      <trkpt lat="43.40392" lon="5.46277">
        <ele>585</ele>
        <time>2013-05-29T09:16:27Z</time>
      </trkpt>
      <trkpt lat="43.40401" lon="5.46278">
        <ele>586</ele>
        <time>2013-05-29T09:16:49Z</time>
      </trkpt>
      <trkpt lat="43.40402" lon="5.46278">
        <ele>585.7</ele>
        <time>2013-05-29T09:16:50Z</time>
      </trkpt>
      <trkpt lat="43.40416" lon="5.4628">
        <ele>605.4</ele>
        <time>2013-05-29T09:18:13Z</time>
      </trkpt>
      <trkpt lat="43.40416" lon="5.46279">
        <ele>605.4</ele>
        <time>2013-05-29T09:18:14Z</time>
      </trkpt>
      <trkpt lat="43.40432" lon="5.46287">
        <ele>602.5</ele>
        <time>2013-05-29T09:18:51Z</time>
      </trkpt>
      <trkpt lat="43.4044" lon="5.46293">
        <ele>604.5</ele>
        <time>2013-05-29T09:19:10Z</time>
      </trkpt>
      <trkpt lat="43.40447" lon="5.46285">
        <ele>616.7</ele>
        <time>2013-05-29T09:21:13Z</time>
      </trkpt>
      <trkpt lat="43.40447" lon="5.46284">
        <ele>616.5</ele>
        <time>2013-05-29T09:21:14Z</time>
      </trkpt>
      <trkpt lat="43.40463" lon="5.46278">
        <ele>614.2</ele>
        <time>2013-05-29T09:22:07Z</time>
      </trkpt>
      <trkpt lat="43.40471" lon="5.46272">
        <ele>622.5</ele>
        <time>2013-05-29T09:22:45Z</time>
      </trkpt>
      <trkpt lat="43.40471" lon="5.46272">
        <ele>622.9</ele>
        <time>2013-05-29T09:22:46Z</time>
      </trkpt>
      <trkpt lat="43.40486" lon="5.46283">
        <ele>626.7</ele>
        <time>2013-05-29T09:24:46Z</time>
      </trkpt>
      <trkpt lat="43.40486" lon="5.46284">
        <ele>626.7</ele>
        <time>2013-05-29T09:24:47Z</time>
      </trkpt>
      <trkpt lat="43.40478" lon="5.46278">
        <ele>642.2</ele>
        <time>2013-05-29T09:26:06Z</time>
      </trkpt>
      <trkpt lat="43.40478" lon="5.46276">
        <ele>642</ele>
        <time>2013-05-29T09:26:07Z</time>
      </trkpt>
      <trkpt lat="43.40494" lon="5.4627">
        <ele>639.2</ele>
        <time>2013-05-29T09:26:47Z</time>
      </trkpt>
      <trkpt lat="43.40502" lon="5.46268">
        <ele>644.5</ele>
        <time>2013-05-29T09:27:22Z</time>
      </trkpt>
      <trkpt lat="43.40503" lon="5.46269">
        <ele>645</ele>
        <time>2013-05-29T09:27:23Z</time>
      </trkpt>
      <trkpt lat="43.40515" lon="5.46269">
        <ele>656</ele>
        <time>2013-05-29T09:28:20Z</time>
      </trkpt>
      <trkpt lat="43.40521" lon="5.46278">
        <ele>677.2</ele>
        <time>2013-05-29T09:29:26Z</time>
      </trkpt>
      <trkpt lat="43.40521" lon="5.46279">
        <ele>678.9</ele>
        <time>2013-05-29T09:29:27Z</time>
      </trkpt>
      <trkpt lat="43.4053" lon="5.46277">
        <ele>678</ele>
        <time>2013-05-29T09:30:57Z</time>
      </trkpt>
      <trkpt lat="43.40522" lon="5.46274">
        <ele>681</ele>
        <time>2013-05-29T09:33:08Z</time>
      </trkpt>
      <trkpt lat="43.40522" lon="5.46274">
        <ele>681.5</ele>
        <time>2013-05-29T09:33:09Z</time>
      </trkpt>
      <trkpt lat="43.40524" lon="5.46288">
        <ele>679.5</ele>
        <time>2013-05-29T09:35:02Z</time>
      </trkpt>
      <trkpt lat="43.40513" lon="5.46328">
        <ele>682.5</ele>
        <time>2013-05-29T10:47:46Z</time>
      </trkpt>
      <trkpt lat="43.40511" lon="5.46339">
        <ele>678.9</ele>
        <time>2013-05-29T10:47:46Z</time>
      </trkpt>
      <trkpt lat="43.40508" lon="5.46342">
        <ele>677</ele>
        <time>2013-05-29T10:47:46Z</time>
      </trkpt>
      <trkpt lat="43.40529" lon="5.46306">
        <ele>663</ele>
        <time>2013-05-29T10:47:48Z</time>
      </trkpt>
      <trkpt lat="43.40526" lon="5.46317">
        <ele>674.7</ele>
        <time>2013-05-29T10:47:51Z</time>
      </trkpt>
      <trkpt lat="43.40519" lon="5.46326">
        <ele>676.2</ele>
        <time>2013-05-29T10:48:05Z</time>
      </trkpt>
      <trkpt lat="43.4052" lon="5.46338">
        <ele>673.4</ele>
        <time>2013-05-29T10:48:29Z</time>
      </trkpt>
      <trkpt lat="43.40526" lon="5.46347">
        <ele>665.2</ele>
        <time>2013-05-29T10:49:08Z</time>
      </trkpt>
      <trkpt lat="43.40526" lon="5.46348">
        <ele>665.5</ele>
        <time>2013-05-29T10:49:09Z</time>
      </trkpt>
      <trkpt lat="43.40531" lon="5.46369">
        <ele>667.5</ele>
        <time>2013-05-29T10:49:27Z</time>
      </trkpt>
      <trkpt lat="43.40529" lon="5.4638">
        <ele>667.9</ele>
        <time>2013-05-29T10:49:39Z</time>
      </trkpt>
      <trkpt lat="43.4053" lon="5.46392">
        <ele>666.4</ele>
        <time>2013-05-29T10:49:52Z</time>
      </trkpt>
      <trkpt lat="43.40535" lon="5.46402">
        <ele>667</ele>
        <time>2013-05-29T10:50:11Z</time>
      </trkpt>
      <trkpt lat="43.40535" lon="5.46403">
        <ele>667.5</ele>
        <time>2013-05-29T10:50:12Z</time>
      </trkpt>
      <trkpt lat="43.40537" lon="5.46414">
        <ele>669.5</ele>
        <time>2013-05-29T10:51:37Z</time>
      </trkpt>
      <trkpt lat="43.40527" lon="5.46433">
        <ele>670</ele>
        <time>2013-05-29T10:52:48Z</time>
      </trkpt>
      <trkpt lat="43.40526" lon="5.46434">
        <ele>669.7</ele>
        <time>2013-05-29T10:52:49Z</time>
      </trkpt>
      <trkpt lat="43.40516" lon="5.46452">
        <ele>669.7</ele>
        <time>2013-05-29T10:53:23Z</time>
      </trkpt>
      <trkpt lat="43.40515" lon="5.46464">
        <ele>672.5</ele>
        <time>2013-05-29T10:53:40Z</time>
      </trkpt>
      <trkpt lat="43.40516" lon="5.46475">
        <ele>672.5</ele>
        <time>2013-05-29T10:53:52Z</time>
      </trkpt>
      <trkpt lat="43.40517" lon="5.46476">
        <ele>672.2</ele>
        <time>2013-05-29T10:53:53Z</time>
      </trkpt>
      <trkpt lat="43.40522" lon="5.46497">
        <ele>674</ele>
        <time>2013-05-29T10:54:15Z</time>
      </trkpt>
      <trkpt lat="43.40524" lon="5.46509">
        <ele>671.4</ele>
        <time>2013-05-29T10:54:40Z</time>
      </trkpt>
      <trkpt lat="43.40528" lon="5.4652">
        <ele>668.7</ele>
        <time>2013-05-29T10:54:53Z</time>
      </trkpt>
      <trkpt lat="43.40528" lon="5.46522">
        <ele>668.5</ele>
        <time>2013-05-29T10:54:54Z</time>
      </trkpt>
      <trkpt lat="43.40533" lon="5.46543">
        <ele>667.4</ele>
        <time>2013-05-29T10:55:15Z</time>
      </trkpt>
      <trkpt lat="43.40537" lon="5.46554">
        <ele>664.4</ele>
        <time>2013-05-29T10:55:30Z</time>
      </trkpt>
      <trkpt lat="43.40537" lon="5.46566">
        <ele>663.2</ele>
        <time>2013-05-29T10:55:40Z</time>
      </trkpt>
      <trkpt lat="43.4054" lon="5.46578">
        <ele>663.7</ele>
        <time>2013-05-29T10:55:59Z</time>
      </trkpt>
      <trkpt lat="43.4054" lon="5.46578">
        <ele>663.9</ele>
        <time>2013-05-29T10:56:00Z</time>
      </trkpt>
      <trkpt lat="43.40542" lon="5.46601">
        <ele>664.5</ele>
        <time>2013-05-29T10:56:27Z</time>
      </trkpt>
      <trkpt lat="43.4054" lon="5.46613">
        <ele>662.9</ele>
        <time>2013-05-29T10:57:05Z</time>
      </trkpt>
      <trkpt lat="43.4054" lon="5.46614">
        <ele>662.7</ele>
        <time>2013-05-29T10:57:06Z</time>
      </trkpt>
      <trkpt lat="43.40536" lon="5.46637">
        <ele>665.7</ele>
        <time>2013-05-29T10:57:50Z</time>
      </trkpt>
      <trkpt lat="43.40532" lon="5.46647">
        <ele>670</ele>
        <time>2013-05-29T10:58:11Z</time>
      </trkpt>
      <trkpt lat="43.40532" lon="5.46649">
        <ele>671.5</ele>
        <time>2013-05-29T10:58:12Z</time>
      </trkpt>
      <trkpt lat="43.40533" lon="5.46671">
        <ele>661.2</ele>
        <time>2013-05-29T10:59:27Z</time>
      </trkpt>
      <trkpt lat="43.40533" lon="5.46672">
        <ele>660.4</ele>
        <time>2013-05-29T10:59:28Z</time>
      </trkpt>
      <trkpt lat="43.40542" lon="5.46691">
        <ele>646.5</ele>
        <time>2013-05-29T11:00:51Z</time>
      </trkpt>
      <trkpt lat="43.40543" lon="5.46692">
        <ele>646.5</ele>
        <time>2013-05-29T11:00:52Z</time>
      </trkpt>
      <trkpt lat="43.40551" lon="5.46711">
        <ele>641.5</ele>
        <time>2013-05-29T11:01:15Z</time>
      </trkpt>
      <trkpt lat="43.40558" lon="5.46718">
        <ele>643.5</ele>
        <time>2013-05-29T11:01:24Z</time>
      </trkpt>
      <trkpt lat="43.40562" lon="5.46729">
        <ele>644</ele>
        <time>2013-05-29T11:02:08Z</time>
      </trkpt>
      <trkpt lat="43.40563" lon="5.46729">
        <ele>644</ele>
        <time>2013-05-29T11:02:09Z</time>
      </trkpt>
      <trkpt lat="43.40558" lon="5.4674">
        <ele>647.5</ele>
        <time>2013-05-29T11:05:14Z</time>
      </trkpt>
      <trkpt lat="43.40564" lon="5.46761">
        <ele>647.2</ele>
        <time>2013-05-29T11:05:39Z</time>
      </trkpt>
      <trkpt lat="43.40568" lon="5.46771">
        <ele>650</ele>
        <time>2013-05-29T11:05:50Z</time>
      </trkpt>
      <trkpt lat="43.40572" lon="5.46782">
        <ele>647.2</ele>
        <time>2013-05-29T11:05:59Z</time>
      </trkpt>
      <trkpt lat="43.40575" lon="5.46793">
        <ele>647</ele>
        <time>2013-05-29T11:06:07Z</time>
      </trkpt>
      <trkpt lat="43.40574" lon="5.46805">
        <ele>643</ele>
        <time>2013-05-29T11:06:19Z</time>
      </trkpt>
      <trkpt lat="43.40574" lon="5.46806">
        <ele>642.5</ele>
        <time>2013-05-29T11:06:20Z</time>
      </trkpt>
      <trkpt lat="43.40571" lon="5.46827">
        <ele>643</ele>
        <time>2013-05-29T11:07:03Z</time>
      </trkpt>
      <trkpt lat="43.40572" lon="5.46839">
        <ele>636</ele>
        <time>2013-05-29T11:07:41Z</time>
      </trkpt>
      <trkpt lat="43.40571" lon="5.4684">
        <ele>637.4</ele>
        <time>2013-05-29T11:07:42Z</time>
      </trkpt>
      <trkpt lat="43.40555" lon="5.46843">
        <ele>636.9</ele>
        <time>2013-05-29T11:08:00Z</time>
      </trkpt>
      <trkpt lat="43.40549" lon="5.46851">
        <ele>632.9</ele>
        <time>2013-05-29T11:08:08Z</time>
      </trkpt>
      <trkpt lat="43.40546" lon="5.46861">
        <ele>631.9</ele>
        <time>2013-05-29T11:08:15Z</time>
      </trkpt>
      <trkpt lat="43.40544" lon="5.46871">
        <ele>633</ele>
        <time>2013-05-29T11:08:23Z</time>
      </trkpt>
      <trkpt lat="43.40542" lon="5.46883">
        <ele>629.4</ele>
        <time>2013-05-29T11:08:31Z</time>
      </trkpt>
      <trkpt lat="43.40542" lon="5.46894">
        <ele>632</ele>
        <time>2013-05-29T11:08:36Z</time>
      </trkpt>
      <trkpt lat="43.40538" lon="5.46904">
        <ele>636.5</ele>
        <time>2013-05-29T11:08:42Z</time>
      </trkpt>
      <trkpt lat="43.40538" lon="5.46906">
        <ele>637</ele>
        <time>2013-05-29T11:08:43Z</time>
      </trkpt>
      <trkpt lat="43.40535" lon="5.46926">
        <ele>636.2</ele>
        <time>2013-05-29T11:08:58Z</time>
      </trkpt>
      <trkpt lat="43.40531" lon="5.46936">
        <ele>634.7</ele>
        <time>2013-05-29T11:09:06Z</time>
      </trkpt>
      <trkpt lat="43.40527" lon="5.46946">
        <ele>634.5</ele>
        <time>2013-05-29T11:09:14Z</time>
      </trkpt>
      <trkpt lat="43.40523" lon="5.46956">
        <ele>638</ele>
        <time>2013-05-29T11:09:22Z</time>
      </trkpt>
      <trkpt lat="43.40521" lon="5.46967">
        <ele>640.5</ele>
        <time>2013-05-29T11:09:30Z</time>
      </trkpt>
      <trkpt lat="43.40518" lon="5.46979">
        <ele>638.5</ele>
        <time>2013-05-29T11:09:41Z</time>
      </trkpt>
      <trkpt lat="43.40517" lon="5.46991">
        <ele>635.4</ele>
        <time>2013-05-29T11:09:50Z</time>
      </trkpt>
      <trkpt lat="43.40517" lon="5.46992">
        <ele>635.2</ele>
        <time>2013-05-29T11:09:51Z</time>
      </trkpt>
      <trkpt lat="43.40518" lon="5.47014">
        <ele>632</ele>
        <time>2013-05-29T11:10:07Z</time>
      </trkpt>
      <trkpt lat="43.4052" lon="5.47026">
        <ele>629.2</ele>
        <time>2013-05-29T11:10:16Z</time>
      </trkpt>
      <trkpt lat="43.40521" lon="5.47037">
        <ele>627.2</ele>
        <time>2013-05-29T11:10:25Z</time>
      </trkpt>
      <trkpt lat="43.4052" lon="5.47049">
        <ele>626.5</ele>
        <time>2013-05-29T11:10:34Z</time>
      </trkpt>
      <trkpt lat="43.40516" lon="5.47058">
        <ele>627</ele>
        <time>2013-05-29T11:10:41Z</time>
      </trkpt>
      <trkpt lat="43.40511" lon="5.47068">
        <ele>627</ele>
        <time>2013-05-29T11:10:50Z</time>
      </trkpt>
      <trkpt lat="43.40507" lon="5.47078">
        <ele>625.5</ele>
        <time>2013-05-29T11:10:58Z</time>
      </trkpt>
      <trkpt lat="43.40506" lon="5.47079">
        <ele>625.2</ele>
        <time>2013-05-29T11:10:59Z</time>
      </trkpt>
      <trkpt lat="43.405" lon="5.47099">
        <ele>621.7</ele>
        <time>2013-05-29T11:11:15Z</time>
      </trkpt>
      <trkpt lat="43.40497" lon="5.47111">
        <ele>621.2</ele>
        <time>2013-05-29T11:11:24Z</time>
      </trkpt>
      <trkpt lat="43.40494" lon="5.47122">
        <ele>621.7</ele>
        <time>2013-05-29T11:11:33Z</time>
      </trkpt>
      <trkpt lat="43.40487" lon="5.47128">
        <ele>620.7</ele>
        <time>2013-05-29T11:11:42Z</time>
      </trkpt>
      <trkpt lat="43.40479" lon="5.4713">
        <ele>619.4</ele>
        <time>2013-05-29T11:11:50Z</time>
      </trkpt>
      <trkpt lat="43.40471" lon="5.47135">
        <ele>617</ele>
        <time>2013-05-29T11:12:04Z</time>
      </trkpt>
      <trkpt lat="43.4047" lon="5.47135">
        <ele>617</ele>
        <time>2013-05-29T11:12:05Z</time>
      </trkpt>
      <trkpt lat="43.40455" lon="5.4714">
        <ele>617.5</ele>
        <time>2013-05-29T11:12:27Z</time>
      </trkpt>
      <trkpt lat="43.40446" lon="5.47143">
        <ele>617.4</ele>
        <time>2013-05-29T11:12:36Z</time>
      </trkpt>
      <trkpt lat="43.40439" lon="5.47148">
        <ele>614.9</ele>
        <time>2013-05-29T11:12:45Z</time>
      </trkpt>
      <trkpt lat="43.40435" lon="5.47159">
        <ele>612.2</ele>
        <time>2013-05-29T11:12:54Z</time>
      </trkpt>
      <trkpt lat="43.40432" lon="5.4717">
        <ele>613</ele>
        <time>2013-05-29T11:13:02Z</time>
      </trkpt>
      <trkpt lat="43.40428" lon="5.47179">
        <ele>613.4</ele>
        <time>2013-05-29T11:13:09Z</time>
      </trkpt>
      <trkpt lat="43.40427" lon="5.47181">
        <ele>613.4</ele>
        <time>2013-05-29T11:13:10Z</time>
      </trkpt>
      <trkpt lat="43.40421" lon="5.472">
        <ele>614.2</ele>
        <time>2013-05-29T11:13:24Z</time>
      </trkpt>
      <trkpt lat="43.40419" lon="5.47211">
        <ele>613.5</ele>
        <time>2013-05-29T11:13:32Z</time>
      </trkpt>
      <trkpt lat="43.40424" lon="5.47221">
        <ele>615.5</ele>
        <time>2013-05-29T11:13:40Z</time>
      </trkpt>
      <trkpt lat="43.40428" lon="5.47232">
        <ele>618.2</ele>
        <time>2013-05-29T11:13:47Z</time>
      </trkpt>
      <trkpt lat="43.40433" lon="5.47241">
        <ele>619.7</ele>
        <time>2013-05-29T11:13:54Z</time>
      </trkpt>
      <trkpt lat="43.40437" lon="5.4725">
        <ele>618.7</ele>
        <time>2013-05-29T11:14:02Z</time>
      </trkpt>
      <trkpt lat="43.40441" lon="5.4726">
        <ele>617.5</ele>
        <time>2013-05-29T11:14:09Z</time>
      </trkpt>
      <trkpt lat="43.40445" lon="5.47269">
        <ele>616.5</ele>
        <time>2013-05-29T11:14:16Z</time>
      </trkpt>
      <trkpt lat="43.40446" lon="5.47271">
        <ele>616.5</ele>
        <time>2013-05-29T11:14:17Z</time>
      </trkpt>
      <trkpt lat="43.40451" lon="5.47289">
        <ele>616.2</ele>
        <time>2013-05-29T11:14:30Z</time>
      </trkpt>
      <trkpt lat="43.40453" lon="5.47301">
        <ele>615.7</ele>
        <time>2013-05-29T11:14:38Z</time>
      </trkpt>
      <trkpt lat="43.40455" lon="5.47313">
        <ele>615.2</ele>
        <time>2013-05-29T11:14:46Z</time>
      </trkpt>
      <trkpt lat="43.40458" lon="5.47324">
        <ele>616</ele>
        <time>2013-05-29T11:14:55Z</time>
      </trkpt>
      <trkpt lat="43.40462" lon="5.47334">
        <ele>616.7</ele>
        <time>2013-05-29T11:15:03Z</time>
      </trkpt>
      <trkpt lat="43.40464" lon="5.47346">
        <ele>613.5</ele>
        <time>2013-05-29T11:15:12Z</time>
      </trkpt>
      <trkpt lat="43.40469" lon="5.47356">
        <ele>613.4</ele>
        <time>2013-05-29T11:15:21Z</time>
      </trkpt>
      <trkpt lat="43.40469" lon="5.47358">
        <ele>613.7</ele>
        <time>2013-05-29T11:15:22Z</time>
      </trkpt>
      <trkpt lat="43.40474" lon="5.47378">
        <ele>614.9</ele>
        <time>2013-05-29T11:15:36Z</time>
      </trkpt>
      <trkpt lat="43.40476" lon="5.47389">
        <ele>615.2</ele>
        <time>2013-05-29T11:15:44Z</time>
      </trkpt>
      <trkpt lat="43.40478" lon="5.47401">
        <ele>617.2</ele>
        <time>2013-05-29T11:15:52Z</time>
      </trkpt>
      <trkpt lat="43.40482" lon="5.4741">
        <ele>620</ele>
        <time>2013-05-29T11:15:59Z</time>
      </trkpt>
      <trkpt lat="43.40489" lon="5.47417">
        <ele>623.2</ele>
        <time>2013-05-29T11:16:06Z</time>
      </trkpt>
      <trkpt lat="43.40497" lon="5.47422">
        <ele>623.2</ele>
        <time>2013-05-29T11:16:14Z</time>
      </trkpt>
      <trkpt lat="43.40502" lon="5.47431">
        <ele>620.9</ele>
        <time>2013-05-29T11:16:22Z</time>
      </trkpt>
      <trkpt lat="43.40503" lon="5.47432">
        <ele>620.7</ele>
        <time>2013-05-29T11:16:23Z</time>
      </trkpt>
      <trkpt lat="43.40504" lon="5.47453">
        <ele>618.4</ele>
        <time>2013-05-29T11:16:38Z</time>
      </trkpt>
      <trkpt lat="43.40501" lon="5.47463">
        <ele>616.7</ele>
        <time>2013-05-29T11:16:46Z</time>
      </trkpt>
      <trkpt lat="43.40499" lon="5.47474">
        <ele>616.2</ele>
        <time>2013-05-29T11:16:54Z</time>
      </trkpt>
      <trkpt lat="43.40498" lon="5.47485">
        <ele>616</ele>
        <time>2013-05-29T11:17:02Z</time>
      </trkpt>
      <trkpt lat="43.40501" lon="5.47495">
        <ele>615.9</ele>
        <time>2013-05-29T11:17:09Z</time>
      </trkpt>
      <trkpt lat="43.40506" lon="5.47506">
        <ele>617.9</ele>
        <time>2013-05-29T11:17:17Z</time>
      </trkpt>
      <trkpt lat="43.40509" lon="5.47516">
        <ele>617.2</ele>
        <time>2013-05-29T11:17:25Z</time>
      </trkpt>
      <trkpt lat="43.40509" lon="5.47517">
        <ele>617.2</ele>
        <time>2013-05-29T11:17:26Z</time>
      </trkpt>
      <trkpt lat="43.40515" lon="5.47536">
        <ele>615.7</ele>
        <time>2013-05-29T11:17:39Z</time>
      </trkpt>
      <trkpt lat="43.4052" lon="5.47545">
        <ele>614.9</ele>
        <time>2013-05-29T11:17:46Z</time>
      </trkpt>
      <trkpt lat="43.40524" lon="5.47554">
        <ele>613.7</ele>
        <time>2013-05-29T11:17:53Z</time>
      </trkpt>
      <trkpt lat="43.4053" lon="5.47563">
        <ele>611.4</ele>
        <time>2013-05-29T11:18:01Z</time>
      </trkpt>
      <trkpt lat="43.40538" lon="5.47568">
        <ele>611.5</ele>
        <time>2013-05-29T11:18:09Z</time>
      </trkpt>
      <trkpt lat="43.40546" lon="5.4757">
        <ele>609.7</ele>
        <time>2013-05-29T11:18:17Z</time>
      </trkpt>
      <trkpt lat="43.40555" lon="5.47573">
        <ele>607.2</ele>
        <time>2013-05-29T11:18:26Z</time>
      </trkpt>
      <trkpt lat="43.40556" lon="5.47573">
        <ele>607.2</ele>
        <time>2013-05-29T11:18:27Z</time>
      </trkpt>
      <trkpt lat="43.40571" lon="5.47581">
        <ele>608</ele>
        <time>2013-05-29T11:18:43Z</time>
      </trkpt>
      <trkpt lat="43.40577" lon="5.47591">
        <ele>611.9</ele>
        <time>2013-05-29T11:18:54Z</time>
      </trkpt>
      <trkpt lat="43.40583" lon="5.476">
        <ele>613</ele>
        <time>2013-05-29T11:19:12Z</time>
      </trkpt>
      <trkpt lat="43.40587" lon="5.4761">
        <ele>610.9</ele>
        <time>2013-05-29T11:19:21Z</time>
      </trkpt>
      <trkpt lat="43.4059" lon="5.47621">
        <ele>607</ele>
        <time>2013-05-29T11:19:29Z</time>
      </trkpt>
      <trkpt lat="43.4059" lon="5.47622">
        <ele>605.7</ele>
        <time>2013-05-29T11:19:30Z</time>
      </trkpt>
      <trkpt lat="43.406" lon="5.4764">
        <ele>600.4</ele>
        <time>2013-05-29T11:19:46Z</time>
      </trkpt>
      <trkpt lat="43.40606" lon="5.47649">
        <ele>600</ele>
        <time>2013-05-29T11:19:53Z</time>
      </trkpt>
      <trkpt lat="43.40611" lon="5.47657">
        <ele>598.9</ele>
        <time>2013-05-29T11:20:00Z</time>
      </trkpt>
      <trkpt lat="43.40617" lon="5.47667">
        <ele>598.2</ele>
        <time>2013-05-29T11:20:07Z</time>
      </trkpt>
      <trkpt lat="43.40622" lon="5.47677">
        <ele>599.7</ele>
        <time>2013-05-29T11:20:14Z</time>
      </trkpt>
      <trkpt lat="43.40628" lon="5.47684">
        <ele>598.4</ele>
        <time>2013-05-29T11:20:21Z</time>
      </trkpt>
      <trkpt lat="43.40635" lon="5.47691">
        <ele>598.7</ele>
        <time>2013-05-29T11:20:28Z</time>
      </trkpt>
      <trkpt lat="43.40642" lon="5.47697">
        <ele>597.4</ele>
        <time>2013-05-29T11:20:34Z</time>
      </trkpt>
      <trkpt lat="43.40643" lon="5.47697">
        <ele>597</ele>
        <time>2013-05-29T11:20:35Z</time>
      </trkpt>
      <trkpt lat="43.40657" lon="5.47707">
        <ele>596.5</ele>
        <time>2013-05-29T11:20:47Z</time>
      </trkpt>
      <trkpt lat="43.40664" lon="5.47714">
        <ele>594.7</ele>
        <time>2013-05-29T11:20:55Z</time>
      </trkpt>
      <trkpt lat="43.40669" lon="5.47723">
        <ele>594.7</ele>
        <time>2013-05-29T11:21:05Z</time>
      </trkpt>
      <trkpt lat="43.40675" lon="5.47731">
        <ele>594.7</ele>
        <time>2013-05-29T11:21:12Z</time>
      </trkpt>
      <trkpt lat="43.4068" lon="5.47741">
        <ele>593.2</ele>
        <time>2013-05-29T11:21:20Z</time>
      </trkpt>
      <trkpt lat="43.40687" lon="5.47747">
        <ele>591.5</ele>
        <time>2013-05-29T11:21:28Z</time>
      </trkpt>
      <trkpt lat="43.40693" lon="5.47755">
        <ele>590.7</ele>
        <time>2013-05-29T11:21:35Z</time>
      </trkpt>
      <trkpt lat="43.40694" lon="5.47756">
        <ele>590.4</ele>
        <time>2013-05-29T11:21:36Z</time>
      </trkpt>
      <trkpt lat="43.40705" lon="5.4777">
        <ele>588.9</ele>
        <time>2013-05-29T11:21:50Z</time>
      </trkpt>
      <trkpt lat="43.40711" lon="5.47779">
        <ele>589.7</ele>
        <time>2013-05-29T11:21:58Z</time>
      </trkpt>
      <trkpt lat="43.40718" lon="5.47786">
        <ele>587.4</ele>
        <time>2013-05-29T11:22:06Z</time>
      </trkpt>
      <trkpt lat="43.40723" lon="5.47796">
        <ele>585.2</ele>
        <time>2013-05-29T11:22:15Z</time>
      </trkpt>
      <trkpt lat="43.40727" lon="5.47806">
        <ele>583.2</ele>
        <time>2013-05-29T11:22:24Z</time>
      </trkpt>
      <trkpt lat="43.40731" lon="5.47817">
        <ele>581</ele>
        <time>2013-05-29T11:22:33Z</time>
      </trkpt>
      <trkpt lat="43.40735" lon="5.47827">
        <ele>583.9</ele>
        <time>2013-05-29T11:22:38Z</time>
      </trkpt>
      <trkpt lat="43.40736" lon="5.47829">
        <ele>583.9</ele>
        <time>2013-05-29T11:22:39Z</time>
      </trkpt>
      <trkpt lat="43.40743" lon="5.47847">
        <ele>587.2</ele>
        <time>2013-05-29T11:22:51Z</time>
      </trkpt>
      <trkpt lat="43.40747" lon="5.47857">
        <ele>588.5</ele>
        <time>2013-05-29T11:22:58Z</time>
      </trkpt>
      <trkpt lat="43.40749" lon="5.47867">
        <ele>587.5</ele>
        <time>2013-05-29T11:23:07Z</time>
      </trkpt>
      <trkpt lat="43.40751" lon="5.47879">
        <ele>584.9</ele>
        <time>2013-05-29T11:23:14Z</time>
      </trkpt>
      <trkpt lat="43.40754" lon="5.4789">
        <ele>585.5</ele>
        <time>2013-05-29T11:23:20Z</time>
      </trkpt>
      <trkpt lat="43.40755" lon="5.47901">
        <ele>584.5</ele>
        <time>2013-05-29T11:23:28Z</time>
      </trkpt>
      <trkpt lat="43.40757" lon="5.47913">
        <ele>583.5</ele>
        <time>2013-05-29T11:23:36Z</time>
      </trkpt>
      <trkpt lat="43.4076" lon="5.47924">
        <ele>583.4</ele>
        <time>2013-05-29T11:23:43Z</time>
      </trkpt>
      <trkpt lat="43.40761" lon="5.47925">
        <ele>583.4</ele>
        <time>2013-05-29T11:23:44Z</time>
      </trkpt>
      <trkpt lat="43.40767" lon="5.47946">
        <ele>585.2</ele>
        <time>2013-05-29T11:23:57Z</time>
      </trkpt>
      <trkpt lat="43.4077" lon="5.47956">
        <ele>585.5</ele>
        <time>2013-05-29T11:24:04Z</time>
      </trkpt>
      <trkpt lat="43.40774" lon="5.47965">
        <ele>586.4</ele>
        <time>2013-05-29T11:24:11Z</time>
      </trkpt>
      <trkpt lat="43.40777" lon="5.47975">
        <ele>586.2</ele>
        <time>2013-05-29T11:24:18Z</time>
      </trkpt>
      <trkpt lat="43.4078" lon="5.47986">
        <ele>587</ele>
        <time>2013-05-29T11:24:25Z</time>
      </trkpt>
      <trkpt lat="43.40784" lon="5.47996">
        <ele>588</ele>
        <time>2013-05-29T11:24:32Z</time>
      </trkpt>
      <trkpt lat="43.40786" lon="5.48007">
        <ele>589.5</ele>
        <time>2013-05-29T11:24:40Z</time>
      </trkpt>
      <trkpt lat="43.40787" lon="5.48018">
        <ele>589.5</ele>
        <time>2013-05-29T11:24:48Z</time>
      </trkpt>
      <trkpt lat="43.40788" lon="5.4802">
        <ele>589.5</ele>
        <time>2013-05-29T11:24:49Z</time>
      </trkpt>
      <trkpt lat="43.40791" lon="5.48041">
        <ele>590.5</ele>
        <time>2013-05-29T11:25:02Z</time>
      </trkpt>
      <trkpt lat="43.40792" lon="5.48053">
        <ele>590.2</ele>
        <time>2013-05-29T11:25:09Z</time>
      </trkpt>
      <trkpt lat="43.40794" lon="5.48064">
        <ele>589</ele>
        <time>2013-05-29T11:25:16Z</time>
      </trkpt>
      <trkpt lat="43.40794" lon="5.48075">
        <ele>588.4</ele>
        <time>2013-05-29T11:25:23Z</time>
      </trkpt>
      <trkpt lat="43.40794" lon="5.48087">
        <ele>587.5</ele>
        <time>2013-05-29T11:25:30Z</time>
      </trkpt>
      <trkpt lat="43.40794" lon="5.48098">
        <ele>588.2</ele>
        <time>2013-05-29T11:25:37Z</time>
      </trkpt>
      <trkpt lat="43.40794" lon="5.48109">
        <ele>588</ele>
        <time>2013-05-29T11:25:44Z</time>
      </trkpt>
      <trkpt lat="43.40794" lon="5.48121">
        <ele>588.4</ele>
        <time>2013-05-29T11:25:52Z</time>
      </trkpt>
      <trkpt lat="43.40794" lon="5.48123">
        <ele>588.4</ele>
        <time>2013-05-29T11:25:53Z</time>
      </trkpt>
      <trkpt lat="43.40794" lon="5.48144">
        <ele>590.9</ele>
        <time>2013-05-29T11:26:07Z</time>
      </trkpt>
      <trkpt lat="43.40794" lon="5.48156">
        <ele>590.5</ele>
        <time>2013-05-29T11:26:14Z</time>
      </trkpt>
      <trkpt lat="43.40794" lon="5.48167">
        <ele>590</ele>
        <time>2013-05-29T11:26:21Z</time>
      </trkpt>
      <trkpt lat="43.40793" lon="5.48179">
        <ele>590.5</ele>
        <time>2013-05-29T11:26:29Z</time>
      </trkpt>
      <trkpt lat="43.40792" lon="5.48191">
        <ele>589.7</ele>
        <time>2013-05-29T11:26:36Z</time>
      </trkpt>
      <trkpt lat="43.40792" lon="5.48202">
        <ele>589.9</ele>
        <time>2013-05-29T11:26:43Z</time>
      </trkpt>
      <trkpt lat="43.40794" lon="5.48214">
        <ele>589.5</ele>
        <time>2013-05-29T11:26:51Z</time>
      </trkpt>
      <trkpt lat="43.40795" lon="5.48225">
        <ele>592</ele>
        <time>2013-05-29T11:26:58Z</time>
      </trkpt>
      <trkpt lat="43.40795" lon="5.48226">
        <ele>592.2</ele>
        <time>2013-05-29T11:26:59Z</time>
      </trkpt>
      <trkpt lat="43.40798" lon="5.48247">
        <ele>591.7</ele>
        <time>2013-05-29T11:27:12Z</time>
      </trkpt>
      <trkpt lat="43.408" lon="5.48258">
        <ele>591.9</ele>
        <time>2013-05-29T11:27:20Z</time>
      </trkpt>
      <trkpt lat="43.40802" lon="5.48269">
        <ele>592.2</ele>
        <time>2013-05-29T11:27:27Z</time>
      </trkpt>
      <trkpt lat="43.40804" lon="5.48281">
        <ele>592.5</ele>
        <time>2013-05-29T11:27:35Z</time>
      </trkpt>
      <trkpt lat="43.40807" lon="5.48292">
        <ele>592.4</ele>
        <time>2013-05-29T11:27:43Z</time>
      </trkpt>
      <trkpt lat="43.40809" lon="5.48303">
        <ele>592.9</ele>
        <time>2013-05-29T11:27:51Z</time>
      </trkpt>
      <trkpt lat="43.40812" lon="5.48315">
        <ele>593.7</ele>
        <time>2013-05-29T11:27:59Z</time>
      </trkpt>
      <trkpt lat="43.40812" lon="5.48316">
        <ele>593.5</ele>
        <time>2013-05-29T11:28:00Z</time>
      </trkpt>
      <trkpt lat="43.40817" lon="5.48336">
        <ele>595</ele>
        <time>2013-05-29T11:28:14Z</time>
      </trkpt>
      <trkpt lat="43.40822" lon="5.48346">
        <ele>595.7</ele>
        <time>2013-05-29T11:28:22Z</time>
      </trkpt>
      <trkpt lat="43.40827" lon="5.48357">
        <ele>594.7</ele>
        <time>2013-05-29T11:28:34Z</time>
      </trkpt>
      <trkpt lat="43.40829" lon="5.48369">
        <ele>591.2</ele>
        <time>2013-05-29T11:31:02Z</time>
      </trkpt>
      <trkpt lat="43.40829" lon="5.4837">
        <ele>590.7</ele>
        <time>2013-05-29T11:31:03Z</time>
      </trkpt>
      <trkpt lat="43.40823" lon="5.48391">
        <ele>589.2</ele>
        <time>2013-05-29T11:31:25Z</time>
      </trkpt>
      <trkpt lat="43.40816" lon="5.48396">
        <ele>587.9</ele>
        <time>2013-05-29T11:32:52Z</time>
      </trkpt>
      <trkpt lat="43.40816" lon="5.48397">
        <ele>587.9</ele>
        <time>2013-05-29T11:32:53Z</time>
      </trkpt>
      <trkpt lat="43.40807" lon="5.48414">
        <ele>587.4</ele>
        <time>2013-05-29T11:33:05Z</time>
      </trkpt>
      <trkpt lat="43.40802" lon="5.48424">
        <ele>585.5</ele>
        <time>2013-05-29T11:33:13Z</time>
      </trkpt>
      <trkpt lat="43.40797" lon="5.48433">
        <ele>585</ele>
        <time>2013-05-29T11:33:20Z</time>
      </trkpt>
      <trkpt lat="43.4079" lon="5.48439">
        <ele>587.5</ele>
        <time>2013-05-29T11:33:28Z</time>
      </trkpt>
      <trkpt lat="43.40786" lon="5.4845">
        <ele>586.7</ele>
        <time>2013-05-29T11:33:36Z</time>
      </trkpt>
      <trkpt lat="43.40783" lon="5.48461">
        <ele>585.2</ele>
        <time>2013-05-29T11:33:44Z</time>
      </trkpt>
      <trkpt lat="43.40779" lon="5.48472">
        <ele>585.5</ele>
        <time>2013-05-29T11:33:52Z</time>
      </trkpt>
      <trkpt lat="43.40775" lon="5.48482">
        <ele>587</ele>
        <time>2013-05-29T11:34:00Z</time>
      </trkpt>
      <trkpt lat="43.40774" lon="5.48483">
        <ele>586.5</ele>
        <time>2013-05-29T11:34:01Z</time>
      </trkpt>
      <trkpt lat="43.40764" lon="5.48498">
        <ele>586.2</ele>
        <time>2013-05-29T11:34:15Z</time>
      </trkpt>
      <trkpt lat="43.4076" lon="5.48508">
        <ele>582.2</ele>
        <time>2013-05-29T11:34:22Z</time>
      </trkpt>
      <trkpt lat="43.40758" lon="5.4852">
        <ele>579</ele>
        <time>2013-05-29T11:34:29Z</time>
      </trkpt>
      <trkpt lat="43.40756" lon="5.48531">
        <ele>579.5</ele>
        <time>2013-05-29T11:34:36Z</time>
      </trkpt>
      <trkpt lat="43.40753" lon="5.48542">
        <ele>578.4</ele>
        <time>2013-05-29T11:34:43Z</time>
      </trkpt>
      <trkpt lat="43.4075" lon="5.48553">
        <ele>579</ele>
        <time>2013-05-29T11:34:51Z</time>
      </trkpt>
      <trkpt lat="43.40748" lon="5.48564">
        <ele>579.4</ele>
        <time>2013-05-29T11:34:59Z</time>
      </trkpt>
      <trkpt lat="43.40748" lon="5.48575">
        <ele>578.2</ele>
        <time>2013-05-29T11:35:06Z</time>
      </trkpt>
      <trkpt lat="43.40748" lon="5.48577">
        <ele>578.5</ele>
        <time>2013-05-29T11:35:07Z</time>
      </trkpt>
      <trkpt lat="43.40743" lon="5.48597">
        <ele>581.2</ele>
        <time>2013-05-29T11:35:20Z</time>
      </trkpt>
      <trkpt lat="43.4074" lon="5.48608">
        <ele>581</ele>
        <time>2013-05-29T11:35:27Z</time>
      </trkpt>
      <trkpt lat="43.40736" lon="5.48619">
        <ele>581.5</ele>
        <time>2013-05-29T11:35:34Z</time>
      </trkpt>
      <trkpt lat="43.40731" lon="5.48628">
        <ele>583</ele>
        <time>2013-05-29T11:35:41Z</time>
      </trkpt>
      <trkpt lat="43.40725" lon="5.48635">
        <ele>583.4</ele>
        <time>2013-05-29T11:35:48Z</time>
      </trkpt>
      <trkpt lat="43.40722" lon="5.48645">
        <ele>582.9</ele>
        <time>2013-05-29T11:35:55Z</time>
      </trkpt>
      <trkpt lat="43.40717" lon="5.48655">
        <ele>581.7</ele>
        <time>2013-05-29T11:36:02Z</time>
      </trkpt>
      <trkpt lat="43.40712" lon="5.48665">
        <ele>580.7</ele>
        <time>2013-05-29T11:36:10Z</time>
      </trkpt>
      <trkpt lat="43.40711" lon="5.48666">
        <ele>580.4</ele>
        <time>2013-05-29T11:36:11Z</time>
      </trkpt>
      <trkpt lat="43.407" lon="5.48684">
        <ele>580.7</ele>
        <time>2013-05-29T11:36:26Z</time>
      </trkpt>
      <trkpt lat="43.40694" lon="5.48691">
        <ele>580.5</ele>
        <time>2013-05-29T11:36:33Z</time>
      </trkpt>
      <trkpt lat="43.40689" lon="5.48699">
        <ele>578.7</ele>
        <time>2013-05-29T11:36:39Z</time>
      </trkpt>
      <trkpt lat="43.40685" lon="5.48709">
        <ele>578.7</ele>
        <time>2013-05-29T11:36:46Z</time>
      </trkpt>
      <trkpt lat="43.40677" lon="5.48713">
        <ele>575.5</ele>
        <time>2013-05-29T11:36:54Z</time>
      </trkpt>
      <trkpt lat="43.4067" lon="5.48709">
        <ele>575</ele>
        <time>2013-05-29T11:37:02Z</time>
      </trkpt>
      <trkpt lat="43.40667" lon="5.48699">
        <ele>578</ele>
        <time>2013-05-29T11:37:09Z</time>
      </trkpt>
      <trkpt lat="43.40663" lon="5.4869">
        <ele>579.9</ele>
        <time>2013-05-29T11:37:15Z</time>
      </trkpt>
      <trkpt lat="43.40662" lon="5.48688">
        <ele>580.5</ele>
        <time>2013-05-29T11:37:16Z</time>
      </trkpt>
      <trkpt lat="43.40661" lon="5.48668">
        <ele>581.9</ele>
        <time>2013-05-29T11:37:28Z</time>
      </trkpt>
      <trkpt lat="43.40661" lon="5.48655">
        <ele>580.4</ele>
        <time>2013-05-29T11:37:36Z</time>
      </trkpt>
      <trkpt lat="43.40657" lon="5.48645">
        <ele>584.7</ele>
        <time>2013-05-29T11:39:01Z</time>
      </trkpt>
      <trkpt lat="43.40656" lon="5.48644">
        <ele>584.7</ele>
        <time>2013-05-29T11:39:02Z</time>
      </trkpt>
      <trkpt lat="43.40643" lon="5.48635">
        <ele>585.2</ele>
        <time>2013-05-29T11:39:15Z</time>
      </trkpt>
      <trkpt lat="43.40635" lon="5.4864">
        <ele>585.2</ele>
        <time>2013-05-29T11:39:25Z</time>
      </trkpt>
      <trkpt lat="43.40633" lon="5.48652">
        <ele>585.7</ele>
        <time>2013-05-29T11:39:34Z</time>
      </trkpt>
      <trkpt lat="43.40631" lon="5.48663">
        <ele>584.4</ele>
        <time>2013-05-29T11:39:42Z</time>
      </trkpt>
      <trkpt lat="43.40628" lon="5.48674">
        <ele>582.7</ele>
        <time>2013-05-29T11:39:50Z</time>
      </trkpt>
      <trkpt lat="43.40627" lon="5.48685">
        <ele>581.4</ele>
        <time>2013-05-29T11:39:58Z</time>
      </trkpt>
      <trkpt lat="43.40626" lon="5.48696">
        <ele>579.5</ele>
        <time>2013-05-29T11:40:06Z</time>
      </trkpt>
      <trkpt lat="43.40627" lon="5.48697">
        <ele>579</ele>
        <time>2013-05-29T11:40:07Z</time>
      </trkpt>
      <trkpt lat="43.40637" lon="5.48713">
        <ele>576.7</ele>
        <time>2013-05-29T11:40:23Z</time>
      </trkpt>
      <trkpt lat="43.4064" lon="5.48725">
        <ele>586.5</ele>
        <time>2013-05-29T11:41:06Z</time>
      </trkpt>
      <trkpt lat="43.4064" lon="5.48725">
        <ele>586.7</ele>
        <time>2013-05-29T11:41:07Z</time>
      </trkpt>
      <trkpt lat="43.40633" lon="5.48743">
        <ele>583.5</ele>
        <time>2013-05-29T11:42:01Z</time>
      </trkpt>
      <trkpt lat="43.40624" lon="5.48744">
        <ele>583.7</ele>
        <time>2013-05-29T11:42:09Z</time>
      </trkpt>
      <trkpt lat="43.40623" lon="5.48744">
        <ele>584</ele>
        <time>2013-05-29T11:42:10Z</time>
      </trkpt>
      <trkpt lat="43.40608" lon="5.48746">
        <ele>589.4</ele>
        <time>2013-05-29T11:42:24Z</time>
      </trkpt>
      <trkpt lat="43.40601" lon="5.48753">
        <ele>589.5</ele>
        <time>2013-05-29T11:42:31Z</time>
      </trkpt>
      <trkpt lat="43.40598" lon="5.48764">
        <ele>591</ele>
        <time>2013-05-29T11:42:38Z</time>
      </trkpt>
      <trkpt lat="43.40596" lon="5.48775">
        <ele>587.2</ele>
        <time>2013-05-29T11:42:44Z</time>
      </trkpt>
      <trkpt lat="43.40593" lon="5.48785">
        <ele>584.2</ele>
        <time>2013-05-29T11:42:50Z</time>
      </trkpt>
      <trkpt lat="43.40589" lon="5.48794">
        <ele>581.2</ele>
        <time>2013-05-29T11:42:56Z</time>
      </trkpt>
      <trkpt lat="43.40582" lon="5.48802">
        <ele>583.7</ele>
        <time>2013-05-29T11:43:04Z</time>
      </trkpt>
      <trkpt lat="43.40573" lon="5.48804">
        <ele>586.7</ele>
        <time>2013-05-29T11:43:13Z</time>
      </trkpt>
      <trkpt lat="43.40572" lon="5.48804">
        <ele>587.2</ele>
        <time>2013-05-29T11:43:14Z</time>
      </trkpt>
      <trkpt lat="43.40557" lon="5.48797">
        <ele>592</ele>
        <time>2013-05-29T11:43:27Z</time>
      </trkpt>
      <trkpt lat="43.40551" lon="5.48788">
        <ele>591.9</ele>
        <time>2013-05-29T11:43:34Z</time>
      </trkpt>
      <trkpt lat="43.40547" lon="5.48778">
        <ele>592.7</ele>
        <time>2013-05-29T11:43:41Z</time>
      </trkpt>
      <trkpt lat="43.40544" lon="5.48768">
        <ele>592.7</ele>
        <time>2013-05-29T11:43:48Z</time>
      </trkpt>
      <trkpt lat="43.4054" lon="5.48758">
        <ele>592.5</ele>
        <time>2013-05-29T11:43:55Z</time>
      </trkpt>
      <trkpt lat="43.40536" lon="5.48747">
        <ele>592.4</ele>
        <time>2013-05-29T11:44:02Z</time>
      </trkpt>
      <trkpt lat="43.40532" lon="5.48737">
        <ele>593.2</ele>
        <time>2013-05-29T11:44:09Z</time>
      </trkpt>
      <trkpt lat="43.40529" lon="5.48727">
        <ele>593.7</ele>
        <time>2013-05-29T11:44:15Z</time>
      </trkpt>
      <trkpt lat="43.40529" lon="5.48725">
        <ele>594</ele>
        <time>2013-05-29T11:44:16Z</time>
      </trkpt>
      <trkpt lat="43.40525" lon="5.48706">
        <ele>595.2</ele>
        <time>2013-05-29T11:44:27Z</time>
      </trkpt>
      <trkpt lat="43.4052" lon="5.48696">
        <ele>596</ele>
        <time>2013-05-29T11:44:34Z</time>
      </trkpt>
      <trkpt lat="43.40513" lon="5.48688">
        <ele>596.5</ele>
        <time>2013-05-29T11:44:41Z</time>
      </trkpt>
      <trkpt lat="43.40505" lon="5.48688">
        <ele>597.7</ele>
        <time>2013-05-29T11:44:48Z</time>
      </trkpt>
      <trkpt lat="43.40497" lon="5.48692">
        <ele>598.9</ele>
        <time>2013-05-29T11:44:56Z</time>
      </trkpt>
      <trkpt lat="43.40489" lon="5.48696">
        <ele>599.5</ele>
        <time>2013-05-29T11:45:03Z</time>
      </trkpt>
      <trkpt lat="43.40484" lon="5.48705">
        <ele>599.2</ele>
        <time>2013-05-29T11:45:10Z</time>
      </trkpt>
      <trkpt lat="43.40483" lon="5.48717">
        <ele>599.2</ele>
        <time>2013-05-29T11:45:18Z</time>
      </trkpt>
      <trkpt lat="43.40483" lon="5.48718">
        <ele>599</ele>
        <time>2013-05-29T11:45:19Z</time>
      </trkpt>
      <trkpt lat="43.40478" lon="5.48738">
        <ele>601.5</ele>
        <time>2013-05-29T11:45:32Z</time>
      </trkpt>
      <trkpt lat="43.40473" lon="5.48748">
        <ele>601.9</ele>
        <time>2013-05-29T11:45:39Z</time>
      </trkpt>
      <trkpt lat="43.40468" lon="5.48758">
        <ele>601.4</ele>
        <time>2013-05-29T11:45:46Z</time>
      </trkpt>
      <trkpt lat="43.40466" lon="5.48769">
        <ele>599.5</ele>
        <time>2013-05-29T11:45:53Z</time>
      </trkpt>
      <trkpt lat="43.40463" lon="5.48779">
        <ele>595.7</ele>
        <time>2013-05-29T11:45:59Z</time>
      </trkpt>
      <trkpt lat="43.40458" lon="5.48788">
        <ele>593</ele>
        <time>2013-05-29T11:46:06Z</time>
      </trkpt>
      <trkpt lat="43.40453" lon="5.48796">
        <ele>593</ele>
        <time>2013-05-29T11:46:13Z</time>
      </trkpt>
      <trkpt lat="43.40448" lon="5.48806">
        <ele>590.5</ele>
        <time>2013-05-29T11:46:20Z</time>
      </trkpt>
      <trkpt lat="43.40447" lon="5.48808">
        <ele>589.7</ele>
        <time>2013-05-29T11:46:21Z</time>
      </trkpt>
      <trkpt lat="43.40443" lon="5.48828">
        <ele>585.4</ele>
        <time>2013-05-29T11:46:34Z</time>
      </trkpt>
      <trkpt lat="43.40439" lon="5.48838">
        <ele>586.9</ele>
        <time>2013-05-29T11:46:41Z</time>
      </trkpt>
      <trkpt lat="43.40431" lon="5.48844">
        <ele>587.7</ele>
        <time>2013-05-29T11:46:49Z</time>
      </trkpt>
      <trkpt lat="43.40424" lon="5.4885">
        <ele>588.5</ele>
        <time>2013-05-29T11:46:57Z</time>
      </trkpt>
      <trkpt lat="43.40416" lon="5.48854">
        <ele>588.2</ele>
        <time>2013-05-29T11:48:01Z</time>
      </trkpt>
      <trkpt lat="43.40416" lon="5.48854">
        <ele>588.2</ele>
        <time>2013-05-29T11:48:02Z</time>
      </trkpt>
      <trkpt lat="43.40407" lon="5.48851">
        <ele>590.7</ele>
        <time>2013-05-29T11:49:15Z</time>
      </trkpt>
      <trkpt lat="43.40395" lon="5.48835">
        <ele>588.7</ele>
        <time>2013-05-29T11:49:39Z</time>
      </trkpt>
      <trkpt lat="43.40387" lon="5.48834">
        <ele>587.2</ele>
        <time>2013-05-29T11:49:47Z</time>
      </trkpt>
      <trkpt lat="43.40379" lon="5.48839">
        <ele>584.5</ele>
        <time>2013-05-29T11:49:57Z</time>
      </trkpt>
      <trkpt lat="43.40372" lon="5.48847">
        <ele>583.2</ele>
        <time>2013-05-29T11:50:09Z</time>
      </trkpt>
      <trkpt lat="43.40366" lon="5.48855">
        <ele>581.4</ele>
        <time>2013-05-29T11:50:20Z</time>
      </trkpt>
      <trkpt lat="43.40366" lon="5.48856">
        <ele>581.2</ele>
        <time>2013-05-29T11:50:21Z</time>
      </trkpt>
      <trkpt lat="43.40351" lon="5.48867">
        <ele>577</ele>
        <time>2013-05-29T11:50:40Z</time>
      </trkpt>
      <trkpt lat="43.40343" lon="5.48863">
        <ele>574.9</ele>
        <time>2013-05-29T11:50:50Z</time>
      </trkpt>
      <trkpt lat="43.40336" lon="5.48855">
        <ele>573.9</ele>
        <time>2013-05-29T11:50:59Z</time>
      </trkpt>
      <trkpt lat="43.40332" lon="5.48845">
        <ele>572.7</ele>
        <time>2013-05-29T11:51:09Z</time>
      </trkpt>
      <trkpt lat="43.40331" lon="5.48833">
        <ele>569</ele>
        <time>2013-05-29T11:51:21Z</time>
      </trkpt>
      <trkpt lat="43.40331" lon="5.48832">
        <ele>569</ele>
        <time>2013-05-29T11:51:22Z</time>
      </trkpt>
      <trkpt lat="43.4033" lon="5.4881">
        <ele>563.9</ele>
        <time>2013-05-29T11:51:46Z</time>
      </trkpt>
      <trkpt lat="43.40327" lon="5.48798">
        <ele>561.5</ele>
        <time>2013-05-29T11:51:59Z</time>
      </trkpt>
      <trkpt lat="43.40325" lon="5.48787">
        <ele>560.5</ele>
        <time>2013-05-29T11:52:09Z</time>
      </trkpt>
      <trkpt lat="43.40322" lon="5.48775">
        <ele>557</ele>
        <time>2013-05-29T11:52:21Z</time>
      </trkpt>
      <trkpt lat="43.40319" lon="5.48764">
        <ele>554.5</ele>
        <time>2013-05-29T11:52:33Z</time>
      </trkpt>
      <trkpt lat="43.40318" lon="5.48763">
        <ele>554.5</ele>
        <time>2013-05-29T11:52:34Z</time>
      </trkpt>
      <trkpt lat="43.40311" lon="5.48743">
        <ele>552</ele>
        <time>2013-05-29T11:52:53Z</time>
      </trkpt>
      <trkpt lat="43.40309" lon="5.48732">
        <ele>551.7</ele>
        <time>2013-05-29T11:53:04Z</time>
      </trkpt>
      <trkpt lat="43.40309" lon="5.48719">
        <ele>548.7</ele>
        <time>2013-05-29T11:53:17Z</time>
      </trkpt>
      <trkpt lat="43.40308" lon="5.48708">
        <ele>546.9</ele>
        <time>2013-05-29T11:53:29Z</time>
      </trkpt>
      <trkpt lat="43.40307" lon="5.48697">
        <ele>545.7</ele>
        <time>2013-05-29T11:53:39Z</time>
      </trkpt>
      <trkpt lat="43.40307" lon="5.48695">
        <ele>545.7</ele>
        <time>2013-05-29T11:53:40Z</time>
      </trkpt>
      <trkpt lat="43.40308" lon="5.48673">
        <ele>542.7</ele>
        <time>2013-05-29T11:54:01Z</time>
      </trkpt>
      <trkpt lat="43.40305" lon="5.48662">
        <ele>540.7</ele>
        <time>2013-05-29T11:54:12Z</time>
      </trkpt>
      <trkpt lat="43.40313" lon="5.48655">
        <ele>541.7</ele>
        <time>2013-05-29T11:54:45Z</time>
      </trkpt>
      <trkpt lat="43.40313" lon="5.48655">
        <ele>541.4</ele>
        <time>2013-05-29T11:54:46Z</time>
      </trkpt>
      <trkpt lat="43.40317" lon="5.48633">
        <ele>532.7</ele>
        <time>2013-05-29T11:55:17Z</time>
      </trkpt>
      <trkpt lat="43.40318" lon="5.48621">
        <ele>529.7</ele>
        <time>2013-05-29T11:55:36Z</time>
      </trkpt>
      <trkpt lat="43.40318" lon="5.48609">
        <ele>526.7</ele>
        <time>2013-05-29T11:55:52Z</time>
      </trkpt>
      <trkpt lat="43.40317" lon="5.48608">
        <ele>526.5</ele>
        <time>2013-05-29T11:55:53Z</time>
      </trkpt>
      <trkpt lat="43.40318" lon="5.48585">
        <ele>523.9</ele>
        <time>2013-05-29T11:56:22Z</time>
      </trkpt>
      <trkpt lat="43.4032" lon="5.48573">
        <ele>521.5</ele>
        <time>2013-05-29T11:56:37Z</time>
      </trkpt>
      <trkpt lat="43.40318" lon="5.48562">
        <ele>521.4</ele>
        <time>2013-05-29T11:56:53Z</time>
      </trkpt>
      <trkpt lat="43.40318" lon="5.48561">
        <ele>521.5</ele>
        <time>2013-05-29T11:56:54Z</time>
      </trkpt>
      <trkpt lat="43.40308" lon="5.48543">
        <ele>516</ele>
        <time>2013-05-29T11:57:27Z</time>
      </trkpt>
      <trkpt lat="43.40309" lon="5.48531">
        <ele>513.2</ele>
        <time>2013-05-29T11:57:37Z</time>
      </trkpt>
      <trkpt lat="43.4031" lon="5.48519">
        <ele>517.5</ele>
        <time>2013-05-29T11:57:56Z</time>
      </trkpt>
      <trkpt lat="43.4031" lon="5.48518">
        <ele>517.7</ele>
        <time>2013-05-29T11:57:57Z</time>
      </trkpt>
      <trkpt lat="43.40301" lon="5.48499">
        <ele>512.2</ele>
        <time>2013-05-29T11:59:11Z</time>
      </trkpt>
      <trkpt lat="43.403" lon="5.48498">
        <ele>512.7</ele>
        <time>2013-05-29T11:59:12Z</time>
      </trkpt>
      <trkpt lat="43.40289" lon="5.48484">
        <ele>506.2</ele>
        <time>2013-05-29T12:00:13Z</time>
      </trkpt>
      <trkpt lat="43.40288" lon="5.48482">
        <ele>507.6</ele>
        <time>2013-05-29T12:00:14Z</time>
      </trkpt>
      <trkpt lat="43.40279" lon="5.48468">
        <ele>499.1</ele>
        <time>2013-05-29T12:01:00Z</time>
      </trkpt>
      <trkpt lat="43.40275" lon="5.48457">
        <ele>505.7</ele>
        <time>2013-05-29T12:01:10Z</time>
      </trkpt>
      <trkpt lat="43.40273" lon="5.48448">
        <ele>513.5</ele>
        <time>2013-05-29T12:01:23Z</time>
      </trkpt>
      <trkpt lat="43.40272" lon="5.48443">
        <ele>515.9</ele>
        <time>2013-05-29T12:01:24Z</time>
      </trkpt>
      <trkpt lat="43.40277" lon="5.48443">
        <ele>503.5</ele>
        <time>2013-05-29T12:02:15Z</time>
      </trkpt>
      <trkpt lat="43.40278" lon="5.48431">
        <ele>486.5</ele>
        <time>2013-05-29T12:02:42Z</time>
      </trkpt>
      <trkpt lat="43.40279" lon="5.48429">
        <ele>487.2</ele>
        <time>2013-05-29T12:02:43Z</time>
      </trkpt>
      <trkpt lat="43.40264" lon="5.48437">
        <ele>474</ele>
        <time>2013-05-29T12:03:06Z</time>
      </trkpt>
      <trkpt lat="43.40265" lon="5.48425">
        <ele>474.2</ele>
        <time>2013-05-29T12:03:12Z</time>
      </trkpt>
      <trkpt lat="43.40267" lon="5.48425">
        <ele>474.5</ele>
        <time>2013-05-29T12:03:13Z</time>
      </trkpt>
      <trkpt lat="43.40277" lon="5.48429">
        <ele>474.2</ele>
        <time>2013-05-29T12:03:14Z</time>
      </trkpt>
      <trkpt lat="43.40271" lon="5.48424">
        <ele>471</ele>
        <time>2013-05-29T12:03:26Z</time>
      </trkpt>
      <trkpt lat="43.40274" lon="5.48413">
        <ele>491.2</ele>
        <time>2013-05-29T12:03:59Z</time>
      </trkpt>
      <trkpt lat="43.40274" lon="5.48412">
        <ele>492</ele>
        <time>2013-05-29T12:04:00Z</time>
      </trkpt>
      <trkpt lat="43.40258" lon="5.48405">
        <ele>488.2</ele>
        <time>2013-05-29T12:05:42Z</time>
      </trkpt>
      <trkpt lat="43.40258" lon="5.48404">
        <ele>489.2</ele>
        <time>2013-05-29T12:05:43Z</time>
      </trkpt>
      <trkpt lat="43.40248" lon="5.48387">
        <ele>486.6</ele>
        <time>2013-05-29T12:06:06Z</time>
      </trkpt>
      <trkpt lat="43.40243" lon="5.48378">
        <ele>484.7</ele>
        <time>2013-05-29T12:06:20Z</time>
      </trkpt>
      <trkpt lat="43.4024" lon="5.48367">
        <ele>476.7</ele>
        <time>2013-05-29T12:06:32Z</time>
      </trkpt>
      <trkpt lat="43.40237" lon="5.48355">
        <ele>475.7</ele>
        <time>2013-05-29T12:06:44Z</time>
      </trkpt>
      <trkpt lat="43.40236" lon="5.48355">
        <ele>476</ele>
        <time>2013-05-29T12:06:45Z</time>
      </trkpt>
      <trkpt lat="43.40226" lon="5.4834">
        <ele>475.7</ele>
        <time>2013-05-29T12:07:41Z</time>
      </trkpt>
      <trkpt lat="43.40226" lon="5.48328">
        <ele>476.7</ele>
        <time>2013-05-29T12:08:01Z</time>
      </trkpt>
      <trkpt lat="43.40226" lon="5.48327">
        <ele>476.7</ele>
        <time>2013-05-29T12:08:02Z</time>
      </trkpt>
      <trkpt lat="43.40219" lon="5.48306">
        <ele>476.6</ele>
        <time>2013-05-29T12:08:37Z</time>
      </trkpt>
      <trkpt lat="43.40222" lon="5.48317">
        <ele>481.2</ele>
        <time>2013-05-29T12:13:21Z</time>
      </trkpt>
      <trkpt lat="43.40222" lon="5.48318">
        <ele>480.7</ele>
        <time>2013-05-29T12:13:22Z</time>
      </trkpt>
      <trkpt lat="43.40225" lon="5.48339">
        <ele>474.6</ele>
        <time>2013-05-29T12:13:53Z</time>
      </trkpt>
      <trkpt lat="43.40219" lon="5.48348">
        <ele>472.2</ele>
        <time>2013-05-29T12:14:10Z</time>
      </trkpt>
      <trkpt lat="43.40212" lon="5.48342">
        <ele>468.5</ele>
        <time>2013-05-29T12:14:37Z</time>
      </trkpt>
      <trkpt lat="43.40211" lon="5.48342">
        <ele>468.1</ele>
        <time>2013-05-29T12:14:38Z</time>
      </trkpt>
      <trkpt lat="43.40204" lon="5.48363">
        <ele>469.7</ele>
        <time>2013-05-29T12:15:26Z</time>
      </trkpt>
      <trkpt lat="43.40196" lon="5.48368">
        <ele>465.2</ele>
        <time>2013-05-29T12:17:25Z</time>
      </trkpt>
      <trkpt lat="43.40196" lon="5.48368">
        <ele>464.7</ele>
        <time>2013-05-29T12:17:26Z</time>
      </trkpt>
      <trkpt lat="43.40184" lon="5.48384">
        <ele>459.5</ele>
        <time>2013-05-29T12:18:50Z</time>
      </trkpt>
      <trkpt lat="43.40184" lon="5.48384">
        <ele>459.1</ele>
        <time>2013-05-29T12:18:51Z</time>
      </trkpt>
      <trkpt lat="43.40167" lon="5.48385">
        <ele>461.7</ele>
        <time>2013-05-29T12:19:32Z</time>
      </trkpt>
      <trkpt lat="43.40163" lon="5.48374">
        <ele>453.2</ele>
        <time>2013-05-29T12:20:06Z</time>
      </trkpt>
      <trkpt lat="43.40162" lon="5.48374">
        <ele>453</ele>
        <time>2013-05-29T12:20:07Z</time>
      </trkpt>
      <trkpt lat="43.40148" lon="5.48362">
        <ele>440</ele>
        <time>2013-05-29T12:21:00Z</time>
      </trkpt>
      <trkpt lat="43.4014" lon="5.48359">
        <ele>436.5</ele>
        <time>2013-05-29T12:21:27Z</time>
      </trkpt>
      <trkpt lat="43.40139" lon="5.48357">
        <ele>436.7</ele>
        <time>2013-05-29T12:21:28Z</time>
      </trkpt>
      <trkpt lat="43.40128" lon="5.48341">
        <ele>434.7</ele>
        <time>2013-05-29T12:22:13Z</time>
      </trkpt>
      <trkpt lat="43.40127" lon="5.48329">
        <ele>434.2</ele>
        <time>2013-05-29T12:22:32Z</time>
      </trkpt>
      <trkpt lat="43.40127" lon="5.48328">
        <ele>434.2</ele>
        <time>2013-05-29T12:22:33Z</time>
      </trkpt>
      <trkpt lat="43.40114" lon="5.48313">
        <ele>422.1</ele>
        <time>2013-05-29T12:23:17Z</time>
      </trkpt>
      <trkpt lat="43.4011" lon="5.48302">
        <ele>430.1</ele>
        <time>2013-05-29T12:23:32Z</time>
      </trkpt>
      <trkpt lat="43.40101" lon="5.48301">
        <ele>419.2</ele>
        <time>2013-05-29T12:24:05Z</time>
      </trkpt>
      <trkpt lat="43.401" lon="5.483">
        <ele>420.2</ele>
        <time>2013-05-29T12:24:06Z</time>
      </trkpt>
      <trkpt lat="43.40091" lon="5.48282">
        <ele>417.2</ele>
        <time>2013-05-29T12:24:36Z</time>
      </trkpt>
      <trkpt lat="43.40082" lon="5.48281">
        <ele>412.6</ele>
        <time>2013-05-29T12:24:48Z</time>
      </trkpt>
      <trkpt lat="43.40076" lon="5.48272">
        <ele>412.7</ele>
        <time>2013-05-29T12:24:57Z</time>
      </trkpt>
      <trkpt lat="43.40081" lon="5.48262">
        <ele>390.7</ele>
        <time>2013-05-29T12:25:08Z</time>
      </trkpt>
      <trkpt lat="43.40081" lon="5.48261">
        <ele>390</ele>
        <time>2013-05-29T12:25:09Z</time>
      </trkpt>
      <trkpt lat="43.4007" lon="5.48248">
        <ele>409.2</ele>
        <time>2013-05-29T12:25:41Z</time>
      </trkpt>
      <trkpt lat="43.40062" lon="5.48244">
        <ele>409.7</ele>
        <time>2013-05-29T12:25:51Z</time>
      </trkpt>
      <trkpt lat="43.40053" lon="5.4824">
        <ele>412.2</ele>
        <time>2013-05-29T12:26:02Z</time>
      </trkpt>
      <trkpt lat="43.40045" lon="5.48236">
        <ele>409.7</ele>
        <time>2013-05-29T12:26:14Z</time>
      </trkpt>
      <trkpt lat="43.40044" lon="5.48236">
        <ele>409.7</ele>
        <time>2013-05-29T12:26:15Z</time>
      </trkpt>
      <trkpt lat="43.40029" lon="5.4823">
        <ele>410.2</ele>
        <time>2013-05-29T12:26:29Z</time>
      </trkpt>
      <trkpt lat="43.40021" lon="5.48224">
        <ele>405.7</ele>
        <time>2013-05-29T12:26:46Z</time>
      </trkpt>
      <trkpt lat="43.40013" lon="5.48228">
        <ele>402.1</ele>
        <time>2013-05-29T12:27:00Z</time>
      </trkpt>
      <trkpt lat="43.40009" lon="5.48239">
        <ele>411.2</ele>
        <time>2013-05-29T12:27:07Z</time>
      </trkpt>
      <trkpt lat="43.40003" lon="5.48247">
        <ele>416</ele>
        <time>2013-05-29T12:27:15Z</time>
      </trkpt>
      <trkpt lat="43.40002" lon="5.48247">
        <ele>415</ele>
        <time>2013-05-29T12:27:16Z</time>
      </trkpt>
      <trkpt lat="43.39989" lon="5.4826">
        <ele>407.6</ele>
        <time>2013-05-29T12:27:44Z</time>
      </trkpt>
      <trkpt lat="43.39981" lon="5.48258">
        <ele>401.6</ele>
        <time>2013-05-29T12:28:01Z</time>
      </trkpt>
      <trkpt lat="43.39988" lon="5.48265">
        <ele>411</ele>
        <time>2013-05-29T12:28:48Z</time>
      </trkpt>
      <trkpt lat="43.39988" lon="5.48266">
        <ele>412.2</ele>
        <time>2013-05-29T12:28:49Z</time>
      </trkpt>
      <trkpt lat="43.39985" lon="5.48265">
        <ele>401.1</ele>
        <time>2013-05-29T12:29:49Z</time>
      </trkpt>
      <trkpt lat="43.39985" lon="5.48267">
        <ele>401.7</ele>
        <time>2013-05-29T12:29:50Z</time>
      </trkpt>
      <trkpt lat="43.39978" lon="5.48284">
        <ele>410.1</ele>
        <time>2013-05-29T12:30:04Z</time>
      </trkpt>
      <trkpt lat="43.39975" lon="5.48294">
        <ele>417.1</ele>
        <time>2013-05-29T12:30:07Z</time>
      </trkpt>
      <trkpt lat="43.39971" lon="5.48304">
        <ele>418.7</ele>
        <time>2013-05-29T12:30:14Z</time>
      </trkpt>
      <trkpt lat="43.39966" lon="5.48314">
        <ele>417.7</ele>
        <time>2013-05-29T12:30:20Z</time>
      </trkpt>
      <trkpt lat="43.39962" lon="5.48325">
        <ele>409.1</ele>
        <time>2013-05-29T12:30:28Z</time>
      </trkpt>
      <trkpt lat="43.39957" lon="5.48334">
        <ele>405.2</ele>
        <time>2013-05-29T12:30:35Z</time>
      </trkpt>
      <trkpt lat="43.3995" lon="5.4834">
        <ele>394.6</ele>
        <time>2013-05-29T12:30:45Z</time>
      </trkpt>
      <trkpt lat="43.39944" lon="5.48349">
        <ele>386.6</ele>
        <time>2013-05-29T12:30:54Z</time>
      </trkpt>
      <trkpt lat="43.39943" lon="5.48351">
        <ele>387.1</ele>
        <time>2013-05-29T12:30:55Z</time>
      </trkpt>
      <trkpt lat="43.39934" lon="5.48369">
        <ele>382.7</ele>
        <time>2013-05-29T12:31:08Z</time>
      </trkpt>
      <trkpt lat="43.39929" lon="5.48377">
        <ele>381.6</ele>
        <time>2013-05-29T12:31:15Z</time>
      </trkpt>
      <trkpt lat="43.39923" lon="5.48386">
        <ele>383.7</ele>
        <time>2013-05-29T12:31:21Z</time>
      </trkpt>
      <trkpt lat="43.39918" lon="5.48393">
        <ele>384.5</ele>
        <time>2013-05-29T12:31:28Z</time>
      </trkpt>
      <trkpt lat="43.3991" lon="5.48398">
        <ele>382.2</ele>
        <time>2013-05-29T12:31:34Z</time>
      </trkpt>
      <trkpt lat="43.39918" lon="5.48395">
        <ele>384.2</ele>
        <time>2013-05-29T12:31:47Z</time>
      </trkpt>
      <trkpt lat="43.39909" lon="5.48394">
        <ele>384.7</ele>
        <time>2013-05-29T12:32:00Z</time>
      </trkpt>
      <trkpt lat="43.39908" lon="5.48393">
        <ele>385.7</ele>
        <time>2013-05-29T12:32:01Z</time>
      </trkpt>
      <trkpt lat="43.39899" lon="5.4841">
        <ele>393.1</ele>
        <time>2013-05-29T12:32:20Z</time>
      </trkpt>
      <trkpt lat="43.39891" lon="5.48414">
        <ele>392.7</ele>
        <time>2013-05-29T12:32:26Z</time>
      </trkpt>
      <trkpt lat="43.39883" lon="5.48411">
        <ele>389.5</ele>
        <time>2013-05-29T12:32:31Z</time>
      </trkpt>
      <trkpt lat="43.39876" lon="5.48404">
        <ele>386.2</ele>
        <time>2013-05-29T12:32:36Z</time>
      </trkpt>
      <trkpt lat="43.39869" lon="5.48399">
        <ele>381.5</ele>
        <time>2013-05-29T12:32:42Z</time>
      </trkpt>
      <trkpt lat="43.3986" lon="5.48396">
        <ele>381.2</ele>
        <time>2013-05-29T12:32:47Z</time>
      </trkpt>
      <trkpt lat="43.39854" lon="5.4839">
        <ele>384.7</ele>
        <time>2013-05-29T12:32:52Z</time>
      </trkpt>
      <trkpt lat="43.39847" lon="5.48384">
        <ele>387.1</ele>
        <time>2013-05-29T12:32:57Z</time>
      </trkpt>
      <trkpt lat="43.39839" lon="5.48383">
        <ele>392</ele>
        <time>2013-05-29T12:33:02Z</time>
      </trkpt>
      <trkpt lat="43.39837" lon="5.48384">
        <ele>392.2</ele>
        <time>2013-05-29T12:33:03Z</time>
      </trkpt>
      <trkpt lat="43.39824" lon="5.48375">
        <ele>408</ele>
        <time>2013-05-29T12:33:13Z</time>
      </trkpt>
      <trkpt lat="43.39816" lon="5.4837">
        <ele>409.2</ele>
        <time>2013-05-29T12:33:17Z</time>
      </trkpt>
      <trkpt lat="43.39809" lon="5.48368">
        <ele>410.2</ele>
        <time>2013-05-29T12:33:23Z</time>
      </trkpt>
      <trkpt lat="43.39803" lon="5.48361">
        <ele>406.1</ele>
        <time>2013-05-29T12:33:29Z</time>
      </trkpt>
      <trkpt lat="43.39796" lon="5.48353">
        <ele>396.7</ele>
        <time>2013-05-29T12:33:36Z</time>
      </trkpt>
      <trkpt lat="43.39789" lon="5.48346">
        <ele>393.2</ele>
        <time>2013-05-29T12:33:43Z</time>
      </trkpt>
      <trkpt lat="43.39782" lon="5.48341">
        <ele>390.2</ele>
        <time>2013-05-29T12:33:51Z</time>
      </trkpt>
      <trkpt lat="43.39773" lon="5.48338">
        <ele>385.2</ele>
        <time>2013-05-29T12:34:01Z</time>
      </trkpt>
      <trkpt lat="43.39766" lon="5.48332">
        <ele>384.1</ele>
        <time>2013-05-29T12:34:10Z</time>
      </trkpt>
      <trkpt lat="43.39765" lon="5.48332">
        <ele>384.2</ele>
        <time>2013-05-29T12:34:11Z</time>
      </trkpt>
      <trkpt lat="43.39749" lon="5.48331">
        <ele>382.5</ele>
        <time>2013-05-29T12:34:26Z</time>
      </trkpt>
      <trkpt lat="43.3974" lon="5.48335">
        <ele>379.2</ele>
        <time>2013-05-29T12:34:36Z</time>
      </trkpt>
      <trkpt lat="43.39732" lon="5.4834">
        <ele>377.7</ele>
        <time>2013-05-29T12:34:45Z</time>
      </trkpt>
      <trkpt lat="43.39725" lon="5.48346">
        <ele>378.6</ele>
        <time>2013-05-29T12:34:53Z</time>
      </trkpt>
      <trkpt lat="43.39717" lon="5.4835">
        <ele>378.2</ele>
        <time>2013-05-29T12:35:02Z</time>
      </trkpt>
      <trkpt lat="43.39708" lon="5.48351">
        <ele>377.2</ele>
        <time>2013-05-29T12:35:09Z</time>
      </trkpt>
      <trkpt lat="43.39704" lon="5.48359">
        <ele>381.5</ele>
        <time>2013-05-29T12:35:16Z</time>
      </trkpt>
      <trkpt lat="43.39703" lon="5.4836">
        <ele>381.1</ele>
        <time>2013-05-29T12:35:17Z</time>
      </trkpt>
      <trkpt lat="43.39693" lon="5.48378">
        <ele>386.2</ele>
        <time>2013-05-29T12:35:28Z</time>
      </trkpt>
      <trkpt lat="43.39684" lon="5.4838">
        <ele>378.7</ele>
        <time>2013-05-29T12:35:38Z</time>
      </trkpt>
      <trkpt lat="43.39676" lon="5.48377">
        <ele>366.2</ele>
        <time>2013-05-29T12:35:48Z</time>
      </trkpt>
      <trkpt lat="43.39668" lon="5.48378">
        <ele>364.5</ele>
        <time>2013-05-29T12:35:58Z</time>
      </trkpt>
      <trkpt lat="43.3966" lon="5.48381">
        <ele>368.7</ele>
        <time>2013-05-29T12:36:05Z</time>
      </trkpt>
      <trkpt lat="43.39652" lon="5.48379">
        <ele>369.1</ele>
        <time>2013-05-29T12:36:11Z</time>
      </trkpt>
      <trkpt lat="43.39644" lon="5.48374">
        <ele>370.1</ele>
        <time>2013-05-29T12:36:17Z</time>
      </trkpt>
      <trkpt lat="43.39643" lon="5.48374">
        <ele>369.7</ele>
        <time>2013-05-29T12:36:18Z</time>
      </trkpt>
      <trkpt lat="43.39628" lon="5.48372">
        <ele>367.6</ele>
        <time>2013-05-29T12:36:32Z</time>
      </trkpt>
      <trkpt lat="43.3962" lon="5.48371">
        <ele>364.6</ele>
        <time>2013-05-29T12:36:41Z</time>
      </trkpt>
      <trkpt lat="43.39611" lon="5.48371">
        <ele>367.7</ele>
        <time>2013-05-29T12:36:49Z</time>
      </trkpt>
      <trkpt lat="43.39604" lon="5.48377">
        <ele>368.2</ele>
        <time>2013-05-29T12:36:59Z</time>
      </trkpt>
      <trkpt lat="43.39596" lon="5.4838">
        <ele>369.1</ele>
        <time>2013-05-29T12:37:09Z</time>
      </trkpt>
      <trkpt lat="43.39589" lon="5.48382">
        <ele>367.2</ele>
        <time>2013-05-29T12:37:17Z</time>
      </trkpt>
      <trkpt lat="43.39583" lon="5.48391">
        <ele>374</ele>
        <time>2013-05-29T12:37:27Z</time>
      </trkpt>
      <trkpt lat="43.39582" lon="5.48392">
        <ele>374.1</ele>
        <time>2013-05-29T12:37:28Z</time>
      </trkpt>
      <trkpt lat="43.39571" lon="5.48406">
        <ele>368.6</ele>
        <time>2013-05-29T12:37:45Z</time>
      </trkpt>
      <trkpt lat="43.39564" lon="5.48411">
        <ele>367.2</ele>
        <time>2013-05-29T12:37:51Z</time>
      </trkpt>
      <trkpt lat="43.39556" lon="5.48415">
        <ele>363.7</ele>
        <time>2013-05-29T12:37:59Z</time>
      </trkpt>
      <trkpt lat="43.39548" lon="5.48415">
        <ele>362.7</ele>
        <time>2013-05-29T12:38:07Z</time>
      </trkpt>
      <trkpt lat="43.39539" lon="5.48416">
        <ele>361</ele>
        <time>2013-05-29T12:38:15Z</time>
      </trkpt>
      <trkpt lat="43.39531" lon="5.48415">
        <ele>360.2</ele>
        <time>2013-05-29T12:38:22Z</time>
      </trkpt>
      <trkpt lat="43.39522" lon="5.48419">
        <ele>356.7</ele>
        <time>2013-05-29T12:38:31Z</time>
      </trkpt>
      <trkpt lat="43.39522" lon="5.48419">
        <ele>356.7</ele>
        <time>2013-05-29T12:38:32Z</time>
      </trkpt>
      <trkpt lat="43.39505" lon="5.48424">
        <ele>359.2</ele>
        <time>2013-05-29T12:38:50Z</time>
      </trkpt>
      <trkpt lat="43.39498" lon="5.4843">
        <ele>361.2</ele>
        <time>2013-05-29T12:38:58Z</time>
      </trkpt>
      <trkpt lat="43.39489" lon="5.48434">
        <ele>359.1</ele>
        <time>2013-05-29T12:39:07Z</time>
      </trkpt>
      <trkpt lat="43.39481" lon="5.48434">
        <ele>350</ele>
        <time>2013-05-29T12:39:21Z</time>
      </trkpt>
      <trkpt lat="43.39472" lon="5.48436">
        <ele>349.7</ele>
        <time>2013-05-29T12:39:29Z</time>
      </trkpt>
      <trkpt lat="43.39464" lon="5.48441">
        <ele>350.6</ele>
        <time>2013-05-29T12:39:42Z</time>
      </trkpt>
      <trkpt lat="43.39464" lon="5.48441">
        <ele>351.2</ele>
        <time>2013-05-29T12:39:43Z</time>
      </trkpt>
      <trkpt lat="43.39447" lon="5.48446">
        <ele>358.7</ele>
        <time>2013-05-29T12:39:58Z</time>
      </trkpt>
      <trkpt lat="43.39441" lon="5.48454">
        <ele>362.7</ele>
        <time>2013-05-29T12:40:07Z</time>
      </trkpt>
      <trkpt lat="43.39437" lon="5.48464">
        <ele>353.1</ele>
        <time>2013-05-29T12:40:22Z</time>
      </trkpt>
      <trkpt lat="43.39437" lon="5.48477">
        <ele>348.6</ele>
        <time>2013-05-29T12:40:33Z</time>
      </trkpt>
      <trkpt lat="43.39433" lon="5.48487">
        <ele>346.2</ele>
        <time>2013-05-29T12:40:42Z</time>
      </trkpt>
      <trkpt lat="43.39424" lon="5.48489">
        <ele>346.7</ele>
        <time>2013-05-29T12:40:51Z</time>
      </trkpt>
      <trkpt lat="43.39423" lon="5.48489">
        <ele>346.1</ele>
        <time>2013-05-29T12:40:52Z</time>
      </trkpt>
      <trkpt lat="43.3941" lon="5.48496">
        <ele>350.2</ele>
        <time>2013-05-29T12:41:04Z</time>
      </trkpt>
      <trkpt lat="43.39402" lon="5.48495">
        <ele>354.2</ele>
        <time>2013-05-29T12:41:11Z</time>
      </trkpt>
      <trkpt lat="43.39393" lon="5.48496">
        <ele>354.2</ele>
        <time>2013-05-29T12:41:20Z</time>
      </trkpt>
      <trkpt lat="43.39384" lon="5.48496">
        <ele>357.1</ele>
        <time>2013-05-29T12:41:27Z</time>
      </trkpt>
      <trkpt lat="43.39376" lon="5.48497">
        <ele>360</ele>
        <time>2013-05-29T12:41:34Z</time>
      </trkpt>
      <trkpt lat="43.39368" lon="5.48494">
        <ele>358.2</ele>
        <time>2013-05-29T12:41:41Z</time>
      </trkpt>
      <trkpt lat="43.39359" lon="5.48491">
        <ele>356.5</ele>
        <time>2013-05-29T12:41:50Z</time>
      </trkpt>
      <trkpt lat="43.39351" lon="5.48488">
        <ele>358</ele>
        <time>2013-05-29T12:42:00Z</time>
      </trkpt>
      <trkpt lat="43.3935" lon="5.48487">
        <ele>358.1</ele>
        <time>2013-05-29T12:42:01Z</time>
      </trkpt>
      <trkpt lat="43.39335" lon="5.48479">
        <ele>358.7</ele>
        <time>2013-05-29T12:42:18Z</time>
      </trkpt>
      <trkpt lat="43.39327" lon="5.48474">
        <ele>357.7</ele>
        <time>2013-05-29T12:42:25Z</time>
      </trkpt>
      <trkpt lat="43.39319" lon="5.48474">
        <ele>353.2</ele>
        <time>2013-05-29T12:42:36Z</time>
      </trkpt>
      <trkpt lat="43.3931" lon="5.48473">
        <ele>349.6</ele>
        <time>2013-05-29T12:42:46Z</time>
      </trkpt>
      <trkpt lat="43.39302" lon="5.48472">
        <ele>350</ele>
        <time>2013-05-29T12:42:57Z</time>
      </trkpt>
      <trkpt lat="43.39293" lon="5.48469">
        <ele>351.2</ele>
        <time>2013-05-29T12:43:05Z</time>
      </trkpt>
      <trkpt lat="43.39292" lon="5.48469">
        <ele>351.7</ele>
        <time>2013-05-29T12:43:06Z</time>
      </trkpt>
      <trkpt lat="43.39276" lon="5.4847">
        <ele>351</ele>
        <time>2013-05-29T12:43:25Z</time>
      </trkpt>
      <trkpt lat="43.39273" lon="5.48481">
        <ele>351.6</ele>
        <time>2013-05-29T12:43:32Z</time>
      </trkpt>
      <trkpt lat="43.39266" lon="5.48487">
        <ele>347.1</ele>
        <time>2013-05-29T12:43:48Z</time>
      </trkpt>
      <trkpt lat="43.39262" lon="5.48498">
        <ele>335.6</ele>
        <time>2013-05-29T12:44:01Z</time>
      </trkpt>
      <trkpt lat="43.39254" lon="5.48503">
        <ele>336.2</ele>
        <time>2013-05-29T12:44:12Z</time>
      </trkpt>
      <trkpt lat="43.39254" lon="5.48504">
        <ele>337.1</ele>
        <time>2013-05-29T12:44:13Z</time>
      </trkpt>
      <trkpt lat="43.39237" lon="5.48507">
        <ele>344.7</ele>
        <time>2013-05-29T12:44:40Z</time>
      </trkpt>
      <trkpt lat="43.39229" lon="5.4851">
        <ele>341.7</ele>
        <time>2013-05-29T12:44:53Z</time>
      </trkpt>
      <trkpt lat="43.39221" lon="5.48515">
        <ele>343.1</ele>
        <time>2013-05-29T12:45:05Z</time>
      </trkpt>
      <trkpt lat="43.39212" lon="5.48517">
        <ele>354.7</ele>
        <time>2013-05-29T12:45:15Z</time>
      </trkpt>
      <trkpt lat="43.39212" lon="5.48517">
        <ele>354.2</ele>
        <time>2013-05-29T12:45:16Z</time>
      </trkpt>
      <trkpt lat="43.39196" lon="5.48516">
        <ele>343.7</ele>
        <time>2013-05-29T12:45:38Z</time>
      </trkpt>
      <trkpt lat="43.39188" lon="5.48509">
        <ele>347.2</ele>
        <time>2013-05-29T12:45:46Z</time>
      </trkpt>
      <trkpt lat="43.39183" lon="5.48501">
        <ele>346.1</ele>
        <time>2013-05-29T12:45:55Z</time>
      </trkpt>
      <trkpt lat="43.39175" lon="5.48495">
        <ele>348.1</ele>
        <time>2013-05-29T12:46:05Z</time>
      </trkpt>
      <trkpt lat="43.39167" lon="5.4849">
        <ele>348.6</ele>
        <time>2013-05-29T12:46:15Z</time>
      </trkpt>
      <trkpt lat="43.39159" lon="5.48488">
        <ele>353.2</ele>
        <time>2013-05-29T12:46:22Z</time>
      </trkpt>
      <trkpt lat="43.39158" lon="5.48488">
        <ele>353.7</ele>
        <time>2013-05-29T12:46:23Z</time>
      </trkpt>
      <trkpt lat="43.39143" lon="5.4848">
        <ele>345.1</ele>
        <time>2013-05-29T12:46:44Z</time>
      </trkpt>
      <trkpt lat="43.39134" lon="5.48479">
        <ele>339.7</ele>
        <time>2013-05-29T12:46:53Z</time>
      </trkpt>
      <trkpt lat="43.39125" lon="5.48482">
        <ele>338.1</ele>
        <time>2013-05-29T12:47:02Z</time>
      </trkpt>
      <trkpt lat="43.39119" lon="5.48489">
        <ele>342.2</ele>
        <time>2013-05-29T12:47:10Z</time>
      </trkpt>
      <trkpt lat="43.39113" lon="5.48497">
        <ele>336.6</ele>
        <time>2013-05-29T12:47:23Z</time>
      </trkpt>
      <trkpt lat="43.39112" lon="5.48498">
        <ele>337.1</ele>
        <time>2013-05-29T12:47:24Z</time>
      </trkpt>
      <trkpt lat="43.391" lon="5.48511">
        <ele>334.2</ele>
        <time>2013-05-29T12:47:41Z</time>
      </trkpt>
      <trkpt lat="43.391" lon="5.48523">
        <ele>328.7</ele>
        <time>2013-05-29T12:47:50Z</time>
      </trkpt>
      <trkpt lat="43.39094" lon="5.4853">
        <ele>330.7</ele>
        <time>2013-05-29T12:47:56Z</time>
      </trkpt>
      <trkpt lat="43.39086" lon="5.4853">
        <ele>332.7</ele>
        <time>2013-05-29T12:48:02Z</time>
      </trkpt>
      <trkpt lat="43.39077" lon="5.48529">
        <ele>333.5</ele>
        <time>2013-05-29T12:48:08Z</time>
      </trkpt>
      <trkpt lat="43.39069" lon="5.48533">
        <ele>330.7</ele>
        <time>2013-05-29T12:48:17Z</time>
      </trkpt>
      <trkpt lat="43.39061" lon="5.48534">
        <ele>325</ele>
        <time>2013-05-29T12:48:26Z</time>
      </trkpt>
      <trkpt lat="43.3906" lon="5.48534">
        <ele>324.2</ele>
        <time>2013-05-29T12:48:27Z</time>
      </trkpt>
      <trkpt lat="43.39044" lon="5.48528">
        <ele>330.5</ele>
        <time>2013-05-29T12:48:45Z</time>
      </trkpt>
      <trkpt lat="43.39036" lon="5.48527">
        <ele>337.7</ele>
        <time>2013-05-29T12:48:53Z</time>
      </trkpt>
      <trkpt lat="43.39034" lon="5.48539">
        <ele>353</ele>
        <time>2013-05-29T12:49:37Z</time>
      </trkpt>
      <trkpt lat="43.39034" lon="5.48539">
        <ele>353.7</ele>
        <time>2013-05-29T12:49:38Z</time>
      </trkpt>
      <trkpt lat="43.39028" lon="5.48537">
        <ele>369.1</ele>
        <time>2013-05-29T12:50:21Z</time>
      </trkpt>
      <trkpt lat="43.39026" lon="5.48525">
        <ele>367.2</ele>
        <time>2013-05-29T12:50:30Z</time>
      </trkpt>
      <trkpt lat="43.39023" lon="5.48514">
        <ele>365.2</ele>
        <time>2013-05-29T12:50:38Z</time>
      </trkpt>
      <trkpt lat="43.39023" lon="5.48513">
        <ele>364.7</ele>
        <time>2013-05-29T12:50:39Z</time>
      </trkpt>
      <trkpt lat="43.39017" lon="5.48492">
        <ele>357.1</ele>
        <time>2013-05-29T12:50:57Z</time>
      </trkpt>
      <trkpt lat="43.39011" lon="5.48483">
        <ele>355.7</ele>
        <time>2013-05-29T12:51:06Z</time>
      </trkpt>
      <trkpt lat="43.39006" lon="5.48474">
        <ele>354.2</ele>
        <time>2013-05-29T12:51:14Z</time>
      </trkpt>
      <trkpt lat="43.39002" lon="5.48464">
        <ele>354.6</ele>
        <time>2013-05-29T12:51:23Z</time>
      </trkpt>
      <trkpt lat="43.38997" lon="5.48455">
        <ele>355.2</ele>
        <time>2013-05-29T12:51:33Z</time>
      </trkpt>
      <trkpt lat="43.38991" lon="5.48446">
        <ele>358</ele>
        <time>2013-05-29T12:51:45Z</time>
      </trkpt>
      <trkpt lat="43.3899" lon="5.48445">
        <ele>358.1</ele>
        <time>2013-05-29T12:51:46Z</time>
      </trkpt>
      <trkpt lat="43.38979" lon="5.48431">
        <ele>358.7</ele>
        <time>2013-05-29T12:52:04Z</time>
      </trkpt>
      <trkpt lat="43.38974" lon="5.48421">
        <ele>354.7</ele>
        <time>2013-05-29T12:52:12Z</time>
      </trkpt>
      <trkpt lat="43.38968" lon="5.48413">
        <ele>355</ele>
        <time>2013-05-29T12:52:22Z</time>
      </trkpt>
      <trkpt lat="43.38966" lon="5.48401">
        <ele>350.5</ele>
        <time>2013-05-29T12:52:31Z</time>
      </trkpt>
      <trkpt lat="43.38968" lon="5.4839">
        <ele>346.7</ele>
        <time>2013-05-29T12:52:39Z</time>
      </trkpt>
      <trkpt lat="43.3897" lon="5.48378">
        <ele>345.6</ele>
        <time>2013-05-29T12:52:48Z</time>
      </trkpt>
      <trkpt lat="43.3897" lon="5.48377">
        <ele>345.2</ele>
        <time>2013-05-29T12:52:49Z</time>
      </trkpt>
      <trkpt lat="43.38975" lon="5.48356">
        <ele>346.7</ele>
        <time>2013-05-29T12:53:06Z</time>
      </trkpt>
      <trkpt lat="43.3898" lon="5.48347">
        <ele>351.1</ele>
        <time>2013-05-29T12:53:13Z</time>
      </trkpt>
      <trkpt lat="43.38981" lon="5.48336">
        <ele>349.1</ele>
        <time>2013-05-29T12:53:21Z</time>
      </trkpt>
      <trkpt lat="43.38983" lon="5.48325">
        <ele>348.7</ele>
        <time>2013-05-29T12:53:29Z</time>
      </trkpt>
      <trkpt lat="43.38985" lon="5.48313">
        <ele>348</ele>
        <time>2013-05-29T12:53:37Z</time>
      </trkpt>
      <trkpt lat="43.38985" lon="5.48302">
        <ele>350.2</ele>
        <time>2013-05-29T12:53:45Z</time>
      </trkpt>
      <trkpt lat="43.38982" lon="5.48291">
        <ele>351.2</ele>
        <time>2013-05-29T12:53:52Z</time>
      </trkpt>
      <trkpt lat="43.38982" lon="5.4829">
        <ele>351.6</ele>
        <time>2013-05-29T12:53:53Z</time>
      </trkpt>
      <trkpt lat="43.38966" lon="5.48286">
        <ele>361</ele>
        <time>2013-05-29T12:54:11Z</time>
      </trkpt>
      <trkpt lat="43.38958" lon="5.48287">
        <ele>361.2</ele>
        <time>2013-05-29T12:54:26Z</time>
      </trkpt>
      <trkpt lat="43.38951" lon="5.48293">
        <ele>357.7</ele>
        <time>2013-05-29T12:54:38Z</time>
      </trkpt>
      <trkpt lat="43.38943" lon="5.48299">
        <ele>354.2</ele>
        <time>2013-05-29T12:54:49Z</time>
      </trkpt>
      <trkpt lat="43.38936" lon="5.48306">
        <ele>358.2</ele>
        <time>2013-05-29T12:54:58Z</time>
      </trkpt>
      <trkpt lat="43.38936" lon="5.48306">
        <ele>357.7</ele>
        <time>2013-05-29T12:54:59Z</time>
      </trkpt>
      <trkpt lat="43.38919" lon="5.48311">
        <ele>354.2</ele>
        <time>2013-05-29T12:55:24Z</time>
      </trkpt>
      <trkpt lat="43.38913" lon="5.48318">
        <ele>354.7</ele>
        <time>2013-05-29T12:55:33Z</time>
      </trkpt>
      <trkpt lat="43.38905" lon="5.48322">
        <ele>354.5</ele>
        <time>2013-05-29T12:55:42Z</time>
      </trkpt>
      <trkpt lat="43.38898" lon="5.48328">
        <ele>356.7</ele>
        <time>2013-05-29T12:55:52Z</time>
      </trkpt>
      <trkpt lat="43.38891" lon="5.48336">
        <ele>356.2</ele>
        <time>2013-05-29T12:56:03Z</time>
      </trkpt>
      <trkpt lat="43.3889" lon="5.48337">
        <ele>356.2</ele>
        <time>2013-05-29T12:56:04Z</time>
      </trkpt>
      <trkpt lat="43.3888" lon="5.48354">
        <ele>358.2</ele>
        <time>2013-05-29T12:56:21Z</time>
      </trkpt>
      <trkpt lat="43.38873" lon="5.48361">
        <ele>356.2</ele>
        <time>2013-05-29T12:56:31Z</time>
      </trkpt>
      <trkpt lat="43.38866" lon="5.48366">
        <ele>356.2</ele>
        <time>2013-05-29T12:56:41Z</time>
      </trkpt>
      <trkpt lat="43.38861" lon="5.48376">
        <ele>358.2</ele>
        <time>2013-05-29T12:56:51Z</time>
      </trkpt>
      <trkpt lat="43.38855" lon="5.48385">
        <ele>361.6</ele>
        <time>2013-05-29T12:57:01Z</time>
      </trkpt>
      <trkpt lat="43.38847" lon="5.48386">
        <ele>362.7</ele>
        <time>2013-05-29T12:57:10Z</time>
      </trkpt>
      <trkpt lat="43.38846" lon="5.48386">
        <ele>362.6</ele>
        <time>2013-05-29T12:57:11Z</time>
      </trkpt>
      <trkpt lat="43.3883" lon="5.48381">
        <ele>368.5</ele>
        <time>2013-05-29T12:57:29Z</time>
      </trkpt>
      <trkpt lat="43.38822" lon="5.48379">
        <ele>368.2</ele>
        <time>2013-05-29T12:57:39Z</time>
      </trkpt>
      <trkpt lat="43.38813" lon="5.4838">
        <ele>371.2</ele>
        <time>2013-05-29T12:57:49Z</time>
      </trkpt>
      <trkpt lat="43.38805" lon="5.48378">
        <ele>374.5</ele>
        <time>2013-05-29T12:57:58Z</time>
      </trkpt>
      <trkpt lat="43.38797" lon="5.48378">
        <ele>376.2</ele>
        <time>2013-05-29T12:58:05Z</time>
      </trkpt>
      <trkpt lat="43.38789" lon="5.48374">
        <ele>378.2</ele>
        <time>2013-05-29T12:58:13Z</time>
      </trkpt>
      <trkpt lat="43.38788" lon="5.48374">
        <ele>378.7</ele>
        <time>2013-05-29T12:58:14Z</time>
      </trkpt>
      <trkpt lat="43.38772" lon="5.48375">
        <ele>387.2</ele>
        <time>2013-05-29T12:58:36Z</time>
      </trkpt>
      <trkpt lat="43.38765" lon="5.48382">
        <ele>385.5</ele>
        <time>2013-05-29T12:58:46Z</time>
      </trkpt>
      <trkpt lat="43.38759" lon="5.48391">
        <ele>380.1</ele>
        <time>2013-05-29T12:59:00Z</time>
      </trkpt>
      <trkpt lat="43.38756" lon="5.48403">
        <ele>378.1</ele>
        <time>2013-05-29T12:59:12Z</time>
      </trkpt>
      <trkpt lat="43.38751" lon="5.48413">
        <ele>379.7</ele>
        <time>2013-05-29T12:59:21Z</time>
      </trkpt>
      <trkpt lat="43.3875" lon="5.48415">
        <ele>379.7</ele>
        <time>2013-05-29T12:59:22Z</time>
      </trkpt>
      <trkpt lat="43.3874" lon="5.4843">
        <ele>375.7</ele>
        <time>2013-05-29T12:59:42Z</time>
      </trkpt>
      <trkpt lat="43.38732" lon="5.48433">
        <ele>380.7</ele>
        <time>2013-05-29T12:59:49Z</time>
      </trkpt>
      <trkpt lat="43.38723" lon="5.48434">
        <ele>386.2</ele>
        <time>2013-05-29T12:59:57Z</time>
      </trkpt>
      <trkpt lat="43.38715" lon="5.4843">
        <ele>387.1</ele>
        <time>2013-05-29T13:00:06Z</time>
      </trkpt>
      <trkpt lat="43.38708" lon="5.48426">
        <ele>385.7</ele>
        <time>2013-05-29T13:00:13Z</time>
      </trkpt>
      <trkpt lat="43.387" lon="5.48421">
        <ele>385.2</ele>
        <time>2013-05-29T13:00:22Z</time>
      </trkpt>
      <trkpt lat="43.387" lon="5.4842">
        <ele>385.2</ele>
        <time>2013-05-29T13:00:23Z</time>
      </trkpt>
      <trkpt lat="43.38685" lon="5.48409">
        <ele>384.5</ele>
        <time>2013-05-29T13:00:42Z</time>
      </trkpt>
      <trkpt lat="43.38678" lon="5.48403">
        <ele>383.7</ele>
        <time>2013-05-29T13:00:52Z</time>
      </trkpt>
      <trkpt lat="43.38671" lon="5.48397">
        <ele>382.7</ele>
        <time>2013-05-29T13:01:01Z</time>
      </trkpt>
      <trkpt lat="43.38664" lon="5.48391">
        <ele>382</ele>
        <time>2013-05-29T13:01:10Z</time>
      </trkpt>
      <trkpt lat="43.38657" lon="5.48386">
        <ele>380.7</ele>
        <time>2013-05-29T13:01:20Z</time>
      </trkpt>
      <trkpt lat="43.3865" lon="5.4838">
        <ele>379.7</ele>
        <time>2013-05-29T13:01:28Z</time>
      </trkpt>
      <trkpt lat="43.38649" lon="5.48379">
        <ele>379.7</ele>
        <time>2013-05-29T13:01:29Z</time>
      </trkpt>
      <trkpt lat="43.38636" lon="5.48368">
        <ele>377.6</ele>
        <time>2013-05-29T13:01:44Z</time>
      </trkpt>
      <trkpt lat="43.38627" lon="5.48367">
        <ele>375.7</ele>
        <time>2013-05-29T13:01:53Z</time>
      </trkpt>
      <trkpt lat="43.38619" lon="5.48372">
        <ele>371.5</ele>
        <time>2013-05-29T13:02:03Z</time>
      </trkpt>
      <trkpt lat="43.38611" lon="5.48375">
        <ele>371.2</ele>
        <time>2013-05-29T13:02:12Z</time>
      </trkpt>
      <trkpt lat="43.38603" lon="5.48379">
        <ele>369.2</ele>
        <time>2013-05-29T13:02:22Z</time>
      </trkpt>
      <trkpt lat="43.38594" lon="5.48381">
        <ele>368.6</ele>
        <time>2013-05-29T13:02:30Z</time>
      </trkpt>
      <trkpt lat="43.38593" lon="5.48382">
        <ele>368.6</ele>
        <time>2013-05-29T13:02:31Z</time>
      </trkpt>
      <trkpt lat="43.38578" lon="5.48389">
        <ele>371.6</ele>
        <time>2013-05-29T13:02:49Z</time>
      </trkpt>
      <trkpt lat="43.38572" lon="5.48395">
        <ele>370.7</ele>
        <time>2013-05-29T13:02:57Z</time>
      </trkpt>
      <trkpt lat="43.38564" lon="5.484">
        <ele>371.2</ele>
        <time>2013-05-29T13:03:02Z</time>
      </trkpt>
      <trkpt lat="43.38557" lon="5.48405">
        <ele>369.6</ele>
        <time>2013-05-29T13:03:09Z</time>
      </trkpt>
      <trkpt lat="43.38549" lon="5.48408">
        <ele>371.2</ele>
        <time>2013-05-29T13:03:18Z</time>
      </trkpt>
      <trkpt lat="43.3854" lon="5.48411">
        <ele>371.6</ele>
        <time>2013-05-29T13:03:26Z</time>
      </trkpt>
      <trkpt lat="43.38533" lon="5.48416">
        <ele>372</ele>
        <time>2013-05-29T13:03:33Z</time>
      </trkpt>
      <trkpt lat="43.38532" lon="5.48417">
        <ele>372.2</ele>
        <time>2013-05-29T13:03:34Z</time>
      </trkpt>
      <trkpt lat="43.38519" lon="5.48428">
        <ele>375.7</ele>
        <time>2013-05-29T13:03:49Z</time>
      </trkpt>
      <trkpt lat="43.38512" lon="5.48433">
        <ele>374.2</ele>
        <time>2013-05-29T13:03:59Z</time>
      </trkpt>
      <trkpt lat="43.38503" lon="5.48435">
        <ele>378</ele>
        <time>2013-05-29T13:04:08Z</time>
      </trkpt>
      <trkpt lat="43.38495" lon="5.48432">
        <ele>379.7</ele>
        <time>2013-05-29T13:04:16Z</time>
      </trkpt>
      <trkpt lat="43.38486" lon="5.48429">
        <ele>381.2</ele>
        <time>2013-05-29T13:04:24Z</time>
      </trkpt>
      <trkpt lat="43.38478" lon="5.48427">
        <ele>384.2</ele>
        <time>2013-05-29T13:04:32Z</time>
      </trkpt>
      <trkpt lat="43.38469" lon="5.48428">
        <ele>384.2</ele>
        <time>2013-05-29T13:04:38Z</time>
      </trkpt>
      <trkpt lat="43.38468" lon="5.48428">
        <ele>384.2</ele>
        <time>2013-05-29T13:04:39Z</time>
      </trkpt>
      <trkpt lat="43.38452" lon="5.48427">
        <ele>383.2</ele>
        <time>2013-05-29T13:04:55Z</time>
      </trkpt>
      <trkpt lat="43.38444" lon="5.48427">
        <ele>382.6</ele>
        <time>2013-05-29T13:05:03Z</time>
      </trkpt>
      <trkpt lat="43.38435" lon="5.48427">
        <ele>382.2</ele>
        <time>2013-05-29T13:05:11Z</time>
      </trkpt>
      <trkpt lat="43.38427" lon="5.48425">
        <ele>381</ele>
        <time>2013-05-29T13:05:18Z</time>
      </trkpt>
      <trkpt lat="43.38419" lon="5.48425">
        <ele>377.5</ele>
        <time>2013-05-29T13:05:25Z</time>
      </trkpt>
      <trkpt lat="43.3841" lon="5.48426">
        <ele>376.1</ele>
        <time>2013-05-29T13:05:33Z</time>
      </trkpt>
      <trkpt lat="43.38402" lon="5.48427">
        <ele>377.2</ele>
        <time>2013-05-29T13:05:40Z</time>
      </trkpt>
      <trkpt lat="43.384" lon="5.48426">
        <ele>377</ele>
        <time>2013-05-29T13:05:41Z</time>
      </trkpt>
      <trkpt lat="43.38385" lon="5.48426">
        <ele>376.7</ele>
        <time>2013-05-29T13:05:54Z</time>
      </trkpt>
      <trkpt lat="43.38377" lon="5.48424">
        <ele>378.1</ele>
        <time>2013-05-29T13:06:01Z</time>
      </trkpt>
      <trkpt lat="43.38369" lon="5.48422">
        <ele>377.7</ele>
        <time>2013-05-29T13:06:08Z</time>
      </trkpt>
      <trkpt lat="43.38361" lon="5.48419">
        <ele>376.2</ele>
        <time>2013-05-29T13:06:15Z</time>
      </trkpt>
      <trkpt lat="43.38354" lon="5.48413">
        <ele>375.2</ele>
        <time>2013-05-29T13:06:22Z</time>
      </trkpt>
      <trkpt lat="43.38347" lon="5.48408">
        <ele>374.2</ele>
        <time>2013-05-29T13:06:30Z</time>
      </trkpt>
      <trkpt lat="43.38339" lon="5.48402">
        <ele>371.6</ele>
        <time>2013-05-29T13:06:38Z</time>
      </trkpt>
      <trkpt lat="43.38331" lon="5.48399">
        <ele>369.7</ele>
        <time>2013-05-29T13:06:46Z</time>
      </trkpt>
      <trkpt lat="43.3833" lon="5.48398">
        <ele>370.2</ele>
        <time>2013-05-29T13:06:47Z</time>
      </trkpt>
      <trkpt lat="43.38316" lon="5.48388">
        <ele>370.2</ele>
        <time>2013-05-29T13:06:59Z</time>
      </trkpt>
      <trkpt lat="43.38309" lon="5.48383">
        <ele>371.5</ele>
        <time>2013-05-29T13:07:05Z</time>
      </trkpt>
      <trkpt lat="43.38305" lon="5.48372">
        <ele>370.2</ele>
        <time>2013-05-29T13:07:14Z</time>
      </trkpt>
      <trkpt lat="43.38301" lon="5.48362">
        <ele>370.7</ele>
        <time>2013-05-29T13:07:26Z</time>
      </trkpt>
      <trkpt lat="43.38297" lon="5.48352">
        <ele>370.5</ele>
        <time>2013-05-29T13:07:38Z</time>
      </trkpt>
      <trkpt lat="43.38292" lon="5.48342">
        <ele>368.5</ele>
        <time>2013-05-29T13:07:47Z</time>
      </trkpt>
      <trkpt lat="43.38292" lon="5.4834">
        <ele>368.6</ele>
        <time>2013-05-29T13:07:48Z</time>
      </trkpt>
      <trkpt lat="43.38286" lon="5.4832">
        <ele>369.5</ele>
        <time>2013-05-29T13:08:01Z</time>
      </trkpt>
      <trkpt lat="43.38282" lon="5.4831">
        <ele>369.5</ele>
        <time>2013-05-29T13:08:07Z</time>
      </trkpt>
      <trkpt lat="43.38281" lon="5.48299">
        <ele>368.7</ele>
        <time>2013-05-29T13:08:15Z</time>
      </trkpt>
      <trkpt lat="43.38278" lon="5.48289">
        <ele>369.7</ele>
        <time>2013-05-29T13:08:22Z</time>
      </trkpt>
      <trkpt lat="43.38271" lon="5.48282">
        <ele>371.1</ele>
        <time>2013-05-29T13:08:28Z</time>
      </trkpt>
      <trkpt lat="43.38263" lon="5.48276">
        <ele>370.2</ele>
        <time>2013-05-29T13:08:35Z</time>
      </trkpt>
      <trkpt lat="43.38259" lon="5.48266">
        <ele>369.7</ele>
        <time>2013-05-29T13:08:42Z</time>
      </trkpt>
      <trkpt lat="43.38252" lon="5.48259">
        <ele>369.6</ele>
        <time>2013-05-29T13:08:49Z</time>
      </trkpt>
      <trkpt lat="43.38251" lon="5.48258">
        <ele>369.5</ele>
        <time>2013-05-29T13:08:50Z</time>
      </trkpt>
      <trkpt lat="43.38241" lon="5.48245">
        <ele>369.2</ele>
        <time>2013-05-29T13:09:01Z</time>
      </trkpt>
      <trkpt lat="43.38234" lon="5.48237">
        <ele>369</ele>
        <time>2013-05-29T13:09:09Z</time>
      </trkpt>
      <trkpt lat="43.38226" lon="5.48231">
        <ele>367.6</ele>
        <time>2013-05-29T13:09:16Z</time>
      </trkpt>
      <trkpt lat="43.38218" lon="5.48229">
        <ele>366.1</ele>
        <time>2013-05-29T13:09:23Z</time>
      </trkpt>
      <trkpt lat="43.3821" lon="5.48228">
        <ele>363.7</ele>
        <time>2013-05-29T13:09:29Z</time>
      </trkpt>
      <trkpt lat="43.38201" lon="5.48226">
        <ele>364.7</ele>
        <time>2013-05-29T13:09:37Z</time>
      </trkpt>
      <trkpt lat="43.38193" lon="5.48224">
        <ele>365.6</ele>
        <time>2013-05-29T13:09:44Z</time>
      </trkpt>
      <trkpt lat="43.38185" lon="5.48222">
        <ele>365.7</ele>
        <time>2013-05-29T13:09:51Z</time>
      </trkpt>
      <trkpt lat="43.38184" lon="5.48222">
        <ele>365.7</ele>
        <time>2013-05-29T13:09:52Z</time>
      </trkpt>
      <trkpt lat="43.38169" lon="5.4822">
        <ele>366.1</ele>
        <time>2013-05-29T13:10:05Z</time>
      </trkpt>
      <trkpt lat="43.3816" lon="5.48218">
        <ele>365.7</ele>
        <time>2013-05-29T13:10:12Z</time>
      </trkpt>
      <trkpt lat="43.38151" lon="5.48217">
        <ele>365.2</ele>
        <time>2013-05-29T13:10:19Z</time>
      </trkpt>
      <trkpt lat="43.38143" lon="5.48217">
        <ele>364.2</ele>
        <time>2013-05-29T13:10:27Z</time>
      </trkpt>
      <trkpt lat="43.38134" lon="5.48215">
        <ele>363.7</ele>
        <time>2013-05-29T13:10:34Z</time>
      </trkpt>
      <trkpt lat="43.38126" lon="5.48214">
        <ele>363.7</ele>
        <time>2013-05-29T13:10:41Z</time>
      </trkpt>
      <trkpt lat="43.38117" lon="5.48213">
        <ele>363.7</ele>
        <time>2013-05-29T13:10:48Z</time>
      </trkpt>
      <trkpt lat="43.38108" lon="5.48211">
        <ele>363.7</ele>
        <time>2013-05-29T13:10:55Z</time>
      </trkpt>
      <trkpt lat="43.38107" lon="5.48211">
        <ele>363.7</ele>
        <time>2013-05-29T13:10:56Z</time>
      </trkpt>
      <trkpt lat="43.38092" lon="5.48209">
        <ele>362.7</ele>
        <time>2013-05-29T13:11:10Z</time>
      </trkpt>
      <trkpt lat="43.38083" lon="5.4821">
        <ele>361.5</ele>
        <time>2013-05-29T13:12:23Z</time>
      </trkpt>
      <trkpt lat="43.38083" lon="5.4821">
        <ele>361.5</ele>
        <time>2013-05-29T13:12:24Z</time>
      </trkpt>
      <trkpt lat="43.38066" lon="5.48208">
        <ele>358.2</ele>
        <time>2013-05-29T13:13:03Z</time>
      </trkpt>
      <trkpt lat="43.38057" lon="5.48206">
        <ele>358.5</ele>
        <time>2013-05-29T13:13:12Z</time>
      </trkpt>
      <trkpt lat="43.38049" lon="5.48204">
        <ele>358.6</ele>
        <time>2013-05-29T13:13:20Z</time>
      </trkpt>
      <trkpt lat="43.38041" lon="5.48202">
        <ele>358.1</ele>
        <time>2013-05-29T13:13:28Z</time>
      </trkpt>
      <trkpt lat="43.3804" lon="5.48201">
        <ele>357.7</ele>
        <time>2013-05-29T13:13:29Z</time>
      </trkpt>
      <trkpt lat="43.38024" lon="5.48198">
        <ele>356.5</ele>
        <time>2013-05-29T13:13:46Z</time>
      </trkpt>
      <trkpt lat="43.38016" lon="5.48196">
        <ele>356</ele>
        <time>2013-05-29T13:13:55Z</time>
      </trkpt>
      <trkpt lat="43.38007" lon="5.48193">
        <ele>355.5</ele>
        <time>2013-05-29T13:14:04Z</time>
      </trkpt>
      <trkpt lat="43.38" lon="5.48187">
        <ele>355.2</ele>
        <time>2013-05-29T13:14:12Z</time>
      </trkpt>
      <trkpt lat="43.37992" lon="5.48182">
        <ele>354.2</ele>
        <time>2013-05-29T13:14:21Z</time>
      </trkpt>
      <trkpt lat="43.37984" lon="5.48177">
        <ele>354.2</ele>
        <time>2013-05-29T13:14:29Z</time>
      </trkpt>
      <trkpt lat="43.37983" lon="5.48177">
        <ele>354.2</ele>
        <time>2013-05-29T13:14:30Z</time>
      </trkpt>
      <trkpt lat="43.37968" lon="5.48171">
        <ele>352.5</ele>
        <time>2013-05-29T13:14:47Z</time>
      </trkpt>
      <trkpt lat="43.3796" lon="5.48173">
        <ele>350.5</ele>
        <time>2013-05-29T13:14:55Z</time>
      </trkpt>
      <trkpt lat="43.37953" lon="5.48179">
        <ele>346.5</ele>
        <time>2013-05-29T13:15:03Z</time>
      </trkpt>
      <trkpt lat="43.37948" lon="5.48189">
        <ele>343.5</ele>
        <time>2013-05-29T13:15:11Z</time>
      </trkpt>
      <trkpt lat="43.37944" lon="5.48199">
        <ele>342.2</ele>
        <time>2013-05-29T13:15:19Z</time>
      </trkpt>
      <trkpt lat="43.37942" lon="5.48211">
        <ele>341.1</ele>
        <time>2013-05-29T13:15:28Z</time>
      </trkpt>
      <trkpt lat="43.37941" lon="5.48223">
        <ele>338.5</ele>
        <time>2013-05-29T13:15:36Z</time>
      </trkpt>
      <trkpt lat="43.37941" lon="5.48224">
        <ele>338.6</ele>
        <time>2013-05-29T13:15:37Z</time>
      </trkpt>
      <trkpt lat="43.3793" lon="5.4824">
        <ele>336.5</ele>
        <time>2013-05-29T13:15:53Z</time>
      </trkpt>
      <trkpt lat="43.37922" lon="5.48244">
        <ele>335.2</ele>
        <time>2013-05-29T13:16:02Z</time>
      </trkpt>
      <trkpt lat="43.37915" lon="5.4825">
        <ele>334.6</ele>
        <time>2013-05-29T13:16:10Z</time>
      </trkpt>
      <trkpt lat="43.37908" lon="5.48257">
        <ele>333</ele>
        <time>2013-05-29T13:16:20Z</time>
      </trkpt>
      <trkpt lat="43.37901" lon="5.48261">
        <ele>333</ele>
        <time>2013-05-29T13:16:28Z</time>
      </trkpt>
      <trkpt lat="43.37893" lon="5.48266">
        <ele>331.2</ele>
        <time>2013-05-29T13:16:36Z</time>
      </trkpt>
      <trkpt lat="43.37885" lon="5.48272">
        <ele>327.2</ele>
        <time>2013-05-29T13:16:45Z</time>
      </trkpt>
      <trkpt lat="43.37884" lon="5.48273">
        <ele>326.5</ele>
        <time>2013-05-29T13:16:46Z</time>
      </trkpt>
      <trkpt lat="43.37869" lon="5.48281">
        <ele>326.7</ele>
        <time>2013-05-29T13:16:59Z</time>
      </trkpt>
      <trkpt lat="43.37862" lon="5.48287">
        <ele>329.1</ele>
        <time>2013-05-29T13:17:06Z</time>
      </trkpt>
      <trkpt lat="43.37856" lon="5.48295">
        <ele>329.7</ele>
        <time>2013-05-29T13:17:13Z</time>
      </trkpt>
      <trkpt lat="43.37847" lon="5.48296">
        <ele>331.7</ele>
        <time>2013-05-29T13:17:20Z</time>
      </trkpt>
      <trkpt lat="43.37839" lon="5.48296">
        <ele>332.7</ele>
        <time>2013-05-29T13:17:27Z</time>
      </trkpt>
      <trkpt lat="43.37831" lon="5.48294">
        <ele>333.2</ele>
        <time>2013-05-29T13:17:35Z</time>
      </trkpt>
      <trkpt lat="43.37822" lon="5.4829">
        <ele>335.2</ele>
        <time>2013-05-29T13:17:42Z</time>
      </trkpt>
      <trkpt lat="43.37815" lon="5.48285">
        <ele>336</ele>
        <time>2013-05-29T13:17:48Z</time>
      </trkpt>
      <trkpt lat="43.37814" lon="5.48285">
        <ele>336.2</ele>
        <time>2013-05-29T13:17:49Z</time>
      </trkpt>
      <trkpt lat="43.378" lon="5.48274">
        <ele>339</ele>
        <time>2013-05-29T13:18:02Z</time>
      </trkpt>
      <trkpt lat="43.37792" lon="5.4827">
        <ele>339.1</ele>
        <time>2013-05-29T13:18:09Z</time>
      </trkpt>
      <trkpt lat="43.37784" lon="5.48266">
        <ele>339.5</ele>
        <time>2013-05-29T13:18:15Z</time>
      </trkpt>
      <trkpt lat="43.37777" lon="5.48261">
        <ele>339.2</ele>
        <time>2013-05-29T13:18:21Z</time>
      </trkpt>
      <trkpt lat="43.37769" lon="5.48257">
        <ele>339</ele>
        <time>2013-05-29T13:18:28Z</time>
      </trkpt>
      <trkpt lat="43.37762" lon="5.48251">
        <ele>338.2</ele>
        <time>2013-05-29T13:18:35Z</time>
      </trkpt>
      <trkpt lat="43.37756" lon="5.48243">
        <ele>337.2</ele>
        <time>2013-05-29T13:18:43Z</time>
      </trkpt>
      <trkpt lat="43.37749" lon="5.48236">
        <ele>337.6</ele>
        <time>2013-05-29T13:18:49Z</time>
      </trkpt>
      <trkpt lat="43.37747" lon="5.48235">
        <ele>337.7</ele>
        <time>2013-05-29T13:18:50Z</time>
      </trkpt>
      <trkpt lat="43.37733" lon="5.4823">
        <ele>338.2</ele>
        <time>2013-05-29T13:19:09Z</time>
      </trkpt>
      <trkpt lat="43.37726" lon="5.48236">
        <ele>334.7</ele>
        <time>2013-05-29T13:20:40Z</time>
      </trkpt>
      <trkpt lat="43.37725" lon="5.48237">
        <ele>334.2</ele>
        <time>2013-05-29T13:20:41Z</time>
      </trkpt>
      <trkpt lat="43.3771" lon="5.48245">
        <ele>336</ele>
        <time>2013-05-29T13:21:02Z</time>
      </trkpt>
      <trkpt lat="43.37701" lon="5.48246">
        <ele>336.1</ele>
        <time>2013-05-29T13:21:29Z</time>
      </trkpt>
      <trkpt lat="43.37694" lon="5.4824">
        <ele>337</ele>
        <time>2013-05-29T13:21:40Z</time>
      </trkpt>
      <trkpt lat="43.37686" lon="5.48235">
        <ele>337.6</ele>
        <time>2013-05-29T13:21:50Z</time>
      </trkpt>
      <trkpt lat="43.37685" lon="5.48234">
        <ele>337.6</ele>
        <time>2013-05-29T13:21:51Z</time>
      </trkpt>
      <trkpt lat="43.37671" lon="5.48224">
        <ele>339</ele>
        <time>2013-05-29T13:22:08Z</time>
      </trkpt>
      <trkpt lat="43.37663" lon="5.4822">
        <ele>339.1</ele>
        <time>2013-05-29T13:22:18Z</time>
      </trkpt>
      <trkpt lat="43.37656" lon="5.48213">
        <ele>338.7</ele>
        <time>2013-05-29T13:22:44Z</time>
      </trkpt>
      <trkpt lat="43.37652" lon="5.48203">
        <ele>339.2</ele>
        <time>2013-05-29T13:22:58Z</time>
      </trkpt>
      <trkpt lat="43.37652" lon="5.48202">
        <ele>339.2</ele>
        <time>2013-05-29T13:22:59Z</time>
      </trkpt>
      <trkpt lat="43.3764" lon="5.48216">
        <ele>334</ele>
        <time>2013-05-29T13:23:21Z</time>
      </trkpt>
      <trkpt lat="43.37639" lon="5.48228">
        <ele>331.7</ele>
        <time>2013-05-29T13:23:30Z</time>
      </trkpt>
      <trkpt lat="43.37637" lon="5.48239">
        <ele>329.2</ele>
        <time>2013-05-29T13:23:39Z</time>
      </trkpt>
      <trkpt lat="43.37637" lon="5.48251">
        <ele>328</ele>
        <time>2013-05-29T13:23:49Z</time>
      </trkpt>
      <trkpt lat="43.37639" lon="5.48263">
        <ele>326.1</ele>
        <time>2013-05-29T13:23:58Z</time>
      </trkpt>
      <trkpt lat="43.37633" lon="5.48272">
        <ele>322.7</ele>
        <time>2013-05-29T13:24:09Z</time>
      </trkpt>
      <trkpt lat="43.37632" lon="5.48272">
        <ele>322.6</ele>
        <time>2013-05-29T13:24:10Z</time>
      </trkpt>
      <trkpt lat="43.37616" lon="5.48271">
        <ele>318</ele>
        <time>2013-05-29T13:24:29Z</time>
      </trkpt>
      <trkpt lat="43.37608" lon="5.48268">
        <ele>317.7</ele>
        <time>2013-05-29T13:24:36Z</time>
      </trkpt>
      <trkpt lat="43.376" lon="5.48269">
        <ele>316.6</ele>
        <time>2013-05-29T13:24:45Z</time>
      </trkpt>
      <trkpt lat="43.37596" lon="5.48279">
        <ele>316.7</ele>
        <time>2013-05-29T13:24:53Z</time>
      </trkpt>
      <trkpt lat="43.37596" lon="5.48291">
        <ele>315.7</ele>
        <time>2013-05-29T13:25:01Z</time>
      </trkpt>
      <trkpt lat="43.37597" lon="5.48302">
        <ele>314.2</ele>
        <time>2013-05-29T13:25:09Z</time>
      </trkpt>
      <trkpt lat="43.37598" lon="5.48313">
        <ele>312.2</ele>
        <time>2013-05-29T13:25:17Z</time>
      </trkpt>
      <trkpt lat="43.37598" lon="5.48315">
        <ele>312.6</ele>
        <time>2013-05-29T13:25:18Z</time>
      </trkpt>
      <trkpt lat="43.37601" lon="5.48336">
        <ele>310.1</ele>
        <time>2013-05-29T13:25:35Z</time>
      </trkpt>
      <trkpt lat="43.37605" lon="5.48347">
        <ele>311.2</ele>
        <time>2013-05-29T13:25:45Z</time>
      </trkpt>
      <trkpt lat="43.37614" lon="5.48347">
        <ele>309.7</ele>
        <time>2013-05-29T13:25:53Z</time>
      </trkpt>
      <trkpt lat="43.37616" lon="5.48358">
        <ele>306.5</ele>
        <time>2013-05-29T13:26:02Z</time>
      </trkpt>
      <trkpt lat="43.37619" lon="5.4837">
        <ele>302.7</ele>
        <time>2013-05-29T13:26:12Z</time>
      </trkpt>
      <trkpt lat="43.37625" lon="5.48378">
        <ele>302.2</ele>
        <time>2013-05-29T13:26:21Z</time>
      </trkpt>
      <trkpt lat="43.37626" lon="5.48379">
        <ele>302</ele>
        <time>2013-05-29T13:26:22Z</time>
      </trkpt>
      <trkpt lat="43.37635" lon="5.48397">
        <ele>303.1</ele>
        <time>2013-05-29T13:26:41Z</time>
      </trkpt>
      <trkpt lat="43.37634" lon="5.48409">
        <ele>304.2</ele>
        <time>2013-05-29T13:26:56Z</time>
      </trkpt>
      <trkpt lat="43.37634" lon="5.48421">
        <ele>302.2</ele>
        <time>2013-05-29T13:27:08Z</time>
      </trkpt>
      <trkpt lat="43.37633" lon="5.48434">
        <ele>301.7</ele>
        <time>2013-05-29T13:27:18Z</time>
      </trkpt>
      <trkpt lat="43.37634" lon="5.48446">
        <ele>301.2</ele>
        <time>2013-05-29T13:27:33Z</time>
      </trkpt>
      <trkpt lat="43.37634" lon="5.48446">
        <ele>301.2</ele>
        <time>2013-05-29T13:27:34Z</time>
      </trkpt>
      <trkpt lat="43.37631" lon="5.4847">
        <ele>294.1</ele>
        <time>2013-05-29T13:28:26Z</time>
      </trkpt>
      <trkpt lat="43.37624" lon="5.48477">
        <ele>283</ele>
        <time>2013-05-29T13:29:06Z</time>
      </trkpt>
      <trkpt lat="43.37623" lon="5.48478">
        <ele>283.7</ele>
        <time>2013-05-29T13:29:07Z</time>
      </trkpt>
      <trkpt lat="43.37616" lon="5.48484">
        <ele>286.5</ele>
        <time>2013-05-29T13:30:10Z</time>
      </trkpt>
      <trkpt lat="43.37616" lon="5.48506">
        <ele>283.5</ele>
        <time>2013-05-29T13:31:24Z</time>
      </trkpt>
      <trkpt lat="43.37616" lon="5.48506">
        <ele>283.2</ele>
        <time>2013-05-29T13:31:25Z</time>
      </trkpt>
      <trkpt lat="43.37601" lon="5.48512">
        <ele>288.7</ele>
        <time>2013-05-29T13:32:30Z</time>
      </trkpt>
      <trkpt lat="43.376" lon="5.48513">
        <ele>291.7</ele>
        <time>2013-05-29T13:32:31Z</time>
      </trkpt>
      <trkpt lat="43.37585" lon="5.4852">
        <ele>316.2</ele>
        <time>2013-05-29T13:32:45Z</time>
      </trkpt>
      <trkpt lat="43.37579" lon="5.48528">
        <ele>319.1</ele>
        <time>2013-05-29T13:33:00Z</time>
      </trkpt>
      <trkpt lat="43.37578" lon="5.48539">
        <ele>299.2</ele>
        <time>2013-05-29T13:33:13Z</time>
      </trkpt>
      <trkpt lat="43.37574" lon="5.48549">
        <ele>253.6</ele>
        <time>2013-05-29T13:33:46Z</time>
      </trkpt>
      <trkpt lat="43.37573" lon="5.4855">
        <ele>253.6</ele>
        <time>2013-05-29T13:33:47Z</time>
      </trkpt>
      <trkpt lat="43.37563" lon="5.48567">
        <ele>249.8</ele>
        <time>2013-05-29T13:34:04Z</time>
      </trkpt>
      <trkpt lat="43.37561" lon="5.48578">
        <ele>248.3</ele>
        <time>2013-05-29T13:34:16Z</time>
      </trkpt>
      <trkpt lat="43.37557" lon="5.48587">
        <ele>250.6</ele>
        <time>2013-05-29T13:34:24Z</time>
      </trkpt>
      <trkpt lat="43.37548" lon="5.48589">
        <ele>247.8</ele>
        <time>2013-05-29T13:35:17Z</time>
      </trkpt>
      <trkpt lat="43.37548" lon="5.48589">
        <ele>247</ele>
        <time>2013-05-29T13:35:18Z</time>
      </trkpt>
      <trkpt lat="43.37538" lon="5.48608">
        <ele>245.6</ele>
        <time>2013-05-29T13:36:03Z</time>
      </trkpt>
      <trkpt lat="43.37531" lon="5.48614">
        <ele>243.6</ele>
        <time>2013-05-29T13:36:12Z</time>
      </trkpt>
      <trkpt lat="43.37525" lon="5.48621">
        <ele>244.5</ele>
        <time>2013-05-29T13:36:18Z</time>
      </trkpt>
      <trkpt lat="43.37524" lon="5.48623">
        <ele>244.8</ele>
        <time>2013-05-29T13:36:19Z</time>
      </trkpt>
      <trkpt lat="43.37511" lon="5.48635">
        <ele>244.1</ele>
        <time>2013-05-29T13:36:35Z</time>
      </trkpt>
      <trkpt lat="43.37504" lon="5.48644">
        <ele>242.1</ele>
        <time>2013-05-29T13:36:47Z</time>
      </trkpt>
      <trkpt lat="43.37501" lon="5.48654">
        <ele>241.6</ele>
        <time>2013-05-29T13:36:54Z</time>
      </trkpt>
      <trkpt lat="43.37497" lon="5.48664">
        <ele>240.1</ele>
        <time>2013-05-29T13:37:02Z</time>
      </trkpt>
      <trkpt lat="43.37493" lon="5.48675">
        <ele>239.6</ele>
        <time>2013-05-29T13:37:08Z</time>
      </trkpt>
      <trkpt lat="43.37487" lon="5.48682">
        <ele>237.1</ele>
        <time>2013-05-29T13:37:15Z</time>
      </trkpt>
      <trkpt lat="43.37482" lon="5.48691">
        <ele>234</ele>
        <time>2013-05-29T13:37:22Z</time>
      </trkpt>
      <trkpt lat="43.37481" lon="5.48691">
        <ele>233.3</ele>
        <time>2013-05-29T13:37:23Z</time>
      </trkpt>
      <trkpt lat="43.37466" lon="5.48693">
        <ele>227.6</ele>
        <time>2013-05-29T13:37:41Z</time>
      </trkpt>
      <trkpt lat="43.37459" lon="5.48687">
        <ele>230</ele>
        <time>2013-05-29T13:37:48Z</time>
      </trkpt>
      <trkpt lat="43.37451" lon="5.48687">
        <ele>229.6</ele>
        <time>2013-05-29T13:37:55Z</time>
      </trkpt>
      <trkpt lat="43.37443" lon="5.48689">
        <ele>230.1</ele>
        <time>2013-05-29T13:38:02Z</time>
      </trkpt>
      <trkpt lat="43.37434" lon="5.4869">
        <ele>234.8</ele>
        <time>2013-05-29T13:38:09Z</time>
      </trkpt>
      <trkpt lat="43.37425" lon="5.4869">
        <ele>231.5</ele>
        <time>2013-05-29T13:38:18Z</time>
      </trkpt>
      <trkpt lat="43.37418" lon="5.48695">
        <ele>229.1</ele>
        <time>2013-05-29T13:38:25Z</time>
      </trkpt>
      <trkpt lat="43.37417" lon="5.48697">
        <ele>230.1</ele>
        <time>2013-05-29T13:38:26Z</time>
      </trkpt>
      <trkpt lat="43.37403" lon="5.48707">
        <ele>243.6</ele>
        <time>2013-05-29T13:38:36Z</time>
      </trkpt>
      <trkpt lat="43.37396" lon="5.48712">
        <ele>246.3</ele>
        <time>2013-05-29T13:38:42Z</time>
      </trkpt>
      <trkpt lat="43.37388" lon="5.48715">
        <ele>249.6</ele>
        <time>2013-05-29T13:38:49Z</time>
      </trkpt>
      <trkpt lat="43.3738" lon="5.48722">
        <ele>246.1</ele>
        <time>2013-05-29T13:38:57Z</time>
      </trkpt>
      <trkpt lat="43.37376" lon="5.48733">
        <ele>238.8</ele>
        <time>2013-05-29T13:39:03Z</time>
      </trkpt>
      <trkpt lat="43.3737" lon="5.48741">
        <ele>236.8</ele>
        <time>2013-05-29T13:39:10Z</time>
      </trkpt>
      <trkpt lat="43.37361" lon="5.48742">
        <ele>236</ele>
        <time>2013-05-29T13:39:18Z</time>
      </trkpt>
      <trkpt lat="43.37353" lon="5.48736">
        <ele>233.1</ele>
        <time>2013-05-29T13:39:25Z</time>
      </trkpt>
      <trkpt lat="43.37345" lon="5.48733">
        <ele>228.5</ele>
        <time>2013-05-29T13:39:32Z</time>
      </trkpt>
      <trkpt lat="43.37344" lon="5.48731">
        <ele>228.5</ele>
        <time>2013-05-29T13:39:33Z</time>
      </trkpt>
      <trkpt lat="43.37329" lon="5.48734">
        <ele>223.1</ele>
        <time>2013-05-29T13:39:46Z</time>
      </trkpt>
      <trkpt lat="43.37321" lon="5.48732">
        <ele>215.3</ele>
        <time>2013-05-29T13:39:56Z</time>
      </trkpt>
      <trkpt lat="43.37313" lon="5.48735">
        <ele>215.1</ele>
        <time>2013-05-29T13:40:05Z</time>
      </trkpt>
      <trkpt lat="43.37304" lon="5.48735">
        <ele>209.8</ele>
        <time>2013-05-29T13:40:13Z</time>
      </trkpt>
      <trkpt lat="43.37296" lon="5.48736">
        <ele>207.3</ele>
        <time>2013-05-29T13:40:20Z</time>
      </trkpt>
      <trkpt lat="43.37288" lon="5.48734">
        <ele>205.5</ele>
        <time>2013-05-29T13:40:28Z</time>
      </trkpt>
      <trkpt lat="43.37281" lon="5.48736">
        <ele>208.8</ele>
        <time>2013-05-29T13:40:34Z</time>
      </trkpt>
      <trkpt lat="43.37279" lon="5.48737">
        <ele>209.8</ele>
        <time>2013-05-29T13:40:35Z</time>
      </trkpt>
      <trkpt lat="43.37264" lon="5.48741">
        <ele>227</ele>
        <time>2013-05-29T13:40:45Z</time>
      </trkpt>
      <trkpt lat="43.37257" lon="5.48745">
        <ele>235.3</ele>
        <time>2013-05-29T13:40:50Z</time>
      </trkpt>
      <trkpt lat="43.37251" lon="5.48754">
        <ele>238.6</ele>
        <time>2013-05-29T13:40:55Z</time>
      </trkpt>
      <trkpt lat="43.37248" lon="5.48765">
        <ele>230.1</ele>
        <time>2013-05-29T13:41:04Z</time>
      </trkpt>
      <trkpt lat="43.37243" lon="5.48774">
        <ele>228.1</ele>
        <time>2013-05-29T13:41:11Z</time>
      </trkpt>
      <trkpt lat="43.37237" lon="5.48781">
        <ele>230.3</ele>
        <time>2013-05-29T13:41:17Z</time>
      </trkpt>
      <trkpt lat="43.37228" lon="5.48781">
        <ele>233.6</ele>
        <time>2013-05-29T13:41:23Z</time>
      </trkpt>
      <trkpt lat="43.37221" lon="5.48784">
        <ele>229.6</ele>
        <time>2013-05-29T13:41:31Z</time>
      </trkpt>
      <trkpt lat="43.37213" lon="5.48785">
        <ele>231.6</ele>
        <time>2013-05-29T13:41:38Z</time>
      </trkpt>
      <trkpt lat="43.37212" lon="5.48785">
        <ele>230.3</ele>
        <time>2013-05-29T13:41:39Z</time>
      </trkpt>
      <trkpt lat="43.37197" lon="5.48791">
        <ele>225.8</ele>
        <time>2013-05-29T13:41:55Z</time>
      </trkpt>
      <trkpt lat="43.37189" lon="5.48795">
        <ele>223.5</ele>
        <time>2013-05-29T13:42:03Z</time>
      </trkpt>
      <trkpt lat="43.37181" lon="5.48798">
        <ele>223.8</ele>
        <time>2013-05-29T13:42:09Z</time>
      </trkpt>
      <trkpt lat="43.37173" lon="5.48801">
        <ele>226.8</ele>
        <time>2013-05-29T13:42:15Z</time>
      </trkpt>
      <trkpt lat="43.37165" lon="5.48804">
        <ele>225.3</ele>
        <time>2013-05-29T13:42:22Z</time>
      </trkpt>
      <trkpt lat="43.37156" lon="5.48807">
        <ele>226.1</ele>
        <time>2013-05-29T13:42:29Z</time>
      </trkpt>
      <trkpt lat="43.37148" lon="5.48805">
        <ele>227.1</ele>
        <time>2013-05-29T13:42:36Z</time>
      </trkpt>
      <trkpt lat="43.37141" lon="5.48799">
        <ele>227.6</ele>
        <time>2013-05-29T13:42:43Z</time>
      </trkpt>
      <trkpt lat="43.3714" lon="5.48798">
        <ele>227.8</ele>
        <time>2013-05-29T13:42:44Z</time>
      </trkpt>
      <trkpt lat="43.37129" lon="5.48785">
        <ele>233.5</ele>
        <time>2013-05-29T13:42:52Z</time>
      </trkpt>
      <trkpt lat="43.37124" lon="5.48777">
        <ele>235.3</ele>
        <time>2013-05-29T13:42:59Z</time>
      </trkpt>
      <trkpt lat="43.37124" lon="5.48765">
        <ele>225.3</ele>
        <time>2013-05-29T13:43:09Z</time>
      </trkpt>
      <trkpt lat="43.37121" lon="5.48754">
        <ele>224.6</ele>
        <time>2013-05-29T13:43:17Z</time>
      </trkpt>
      <trkpt lat="43.37117" lon="5.48744">
        <ele>220.6</ele>
        <time>2013-05-29T13:43:25Z</time>
      </trkpt>
      <trkpt lat="43.37111" lon="5.48737">
        <ele>218.6</ele>
        <time>2013-05-29T13:43:32Z</time>
      </trkpt>
      <trkpt lat="43.37105" lon="5.4873">
        <ele>216.1</ele>
        <time>2013-05-29T13:43:39Z</time>
      </trkpt>
      <trkpt lat="43.37096" lon="5.48729">
        <ele>214.8</ele>
        <time>2013-05-29T13:43:48Z</time>
      </trkpt>
      <trkpt lat="43.37095" lon="5.48729">
        <ele>215.1</ele>
        <time>2013-05-29T13:43:49Z</time>
      </trkpt>
      <trkpt lat="43.37081" lon="5.48741">
        <ele>216.3</ele>
        <time>2013-05-29T13:44:02Z</time>
      </trkpt>
      <trkpt lat="43.37076" lon="5.48747">
        <ele>217.3</ele>
        <time>2013-05-29T13:44:07Z</time>
      </trkpt>
      <trkpt lat="43.37069" lon="5.48752">
        <ele>221.1</ele>
        <time>2013-05-29T13:44:12Z</time>
      </trkpt>
      <trkpt lat="43.37061" lon="5.48758">
        <ele>226.3</ele>
        <time>2013-05-29T13:44:17Z</time>
      </trkpt>
      <trkpt lat="43.37053" lon="5.4876">
        <ele>227.8</ele>
        <time>2013-05-29T13:44:24Z</time>
      </trkpt>
      <trkpt lat="43.37044" lon="5.48761">
        <ele>234.1</ele>
        <time>2013-05-29T13:44:29Z</time>
      </trkpt>
      <trkpt lat="43.37036" lon="5.48758">
        <ele>241.6</ele>
        <time>2013-05-29T13:44:33Z</time>
      </trkpt>
      <trkpt lat="43.37028" lon="5.48753">
        <ele>244.8</ele>
        <time>2013-05-29T13:44:37Z</time>
      </trkpt>
      <trkpt lat="43.37021" lon="5.48746">
        <ele>248.3</ele>
        <time>2013-05-29T13:44:41Z</time>
      </trkpt>
      <trkpt lat="43.37016" lon="5.48738">
        <ele>252.5</ele>
        <time>2013-05-29T13:44:45Z</time>
      </trkpt>
      <trkpt lat="43.3701" lon="5.4873">
        <ele>256.5</ele>
        <time>2013-05-29T13:44:49Z</time>
      </trkpt>
      <trkpt lat="43.37005" lon="5.48722">
        <ele>252.8</ele>
        <time>2013-05-29T13:44:56Z</time>
      </trkpt>
      <trkpt lat="43.37004" lon="5.4872">
        <ele>252.1</ele>
        <time>2013-05-29T13:44:57Z</time>
      </trkpt>
      <trkpt lat="43.3699" lon="5.48726">
        <ele>226.3</ele>
        <time>2013-05-29T13:45:23Z</time>
      </trkpt>
      <trkpt lat="43.36982" lon="5.48729">
        <ele>227.5</ele>
        <time>2013-05-29T13:45:31Z</time>
      </trkpt>
      <trkpt lat="43.36977" lon="5.48736">
        <ele>231</ele>
        <time>2013-05-29T13:45:35Z</time>
      </trkpt>
      <trkpt lat="43.36968" lon="5.4874">
        <ele>225.1</ele>
        <time>2013-05-29T13:45:44Z</time>
      </trkpt>
      <trkpt lat="43.3696" lon="5.48742">
        <ele>219</ele>
        <time>2013-05-29T13:45:53Z</time>
      </trkpt>
      <trkpt lat="43.36952" lon="5.4874">
        <ele>214.1</ele>
        <time>2013-05-29T13:46:01Z</time>
      </trkpt>
      <trkpt lat="43.3695" lon="5.48739">
        <ele>213.8</ele>
        <time>2013-05-29T13:46:02Z</time>
      </trkpt>
      <trkpt lat="43.36937" lon="5.48731">
        <ele>223.3</ele>
        <time>2013-05-29T13:46:11Z</time>
      </trkpt>
      <trkpt lat="43.36934" lon="5.48719">
        <ele>223.6</ele>
        <time>2013-05-29T13:46:20Z</time>
      </trkpt>
      <trkpt lat="43.3693" lon="5.48709">
        <ele>217.6</ele>
        <time>2013-05-29T13:46:28Z</time>
      </trkpt>
      <trkpt lat="43.36926" lon="5.487">
        <ele>221.6</ele>
        <time>2013-05-29T13:46:34Z</time>
      </trkpt>
      <trkpt lat="43.36925" lon="5.4869">
        <ele>219.8</ele>
        <time>2013-05-29T13:46:40Z</time>
      </trkpt>
      <trkpt lat="43.36925" lon="5.48678">
        <ele>222.6</ele>
        <time>2013-05-29T13:46:46Z</time>
      </trkpt>
      <trkpt lat="43.36924" lon="5.48667">
        <ele>212</ele>
        <time>2013-05-29T13:46:57Z</time>
      </trkpt>
      <trkpt lat="43.36922" lon="5.48655">
        <ele>206.6</ele>
        <time>2013-05-29T13:47:04Z</time>
      </trkpt>
      <trkpt lat="43.36922" lon="5.48654">
        <ele>205.1</ele>
        <time>2013-05-29T13:47:05Z</time>
      </trkpt>
      <trkpt lat="43.3692" lon="5.48633">
        <ele>194.1</ele>
        <time>2013-05-29T13:47:22Z</time>
      </trkpt>
      <trkpt lat="43.36919" lon="5.48621">
        <ele>186.3</ele>
        <time>2013-05-29T13:47:31Z</time>
      </trkpt>
      <trkpt lat="43.36914" lon="5.48614">
        <ele>179.8</ele>
        <time>2013-05-29T13:47:40Z</time>
      </trkpt>
      <trkpt lat="43.36906" lon="5.48611">
        <ele>187.1</ele>
        <time>2013-05-29T13:47:43Z</time>
      </trkpt>
      <trkpt lat="43.36899" lon="5.48609">
        <ele>192.1</ele>
        <time>2013-05-29T13:47:47Z</time>
      </trkpt>
      <trkpt lat="43.36892" lon="5.48614">
        <ele>198.3</ele>
        <time>2013-05-29T13:47:52Z</time>
      </trkpt>
      <trkpt lat="43.36884" lon="5.48615">
        <ele>202.3</ele>
        <time>2013-05-29T13:47:58Z</time>
      </trkpt>
      <trkpt lat="43.36876" lon="5.48618">
        <ele>201.6</ele>
        <time>2013-05-29T13:48:04Z</time>
      </trkpt>
      <trkpt lat="43.36868" lon="5.48614">
        <ele>195.6</ele>
        <time>2013-05-29T13:48:12Z</time>
      </trkpt>
      <trkpt lat="43.36867" lon="5.48614">
        <ele>195</ele>
        <time>2013-05-29T13:48:13Z</time>
      </trkpt>
      <trkpt lat="43.36852" lon="5.48606">
        <ele>192.3</ele>
        <time>2013-05-29T13:48:27Z</time>
      </trkpt>
      <trkpt lat="43.36844" lon="5.48604">
        <ele>192.5</ele>
        <time>2013-05-29T13:48:34Z</time>
      </trkpt>
      <trkpt lat="43.36836" lon="5.48601">
        <ele>193.6</ele>
        <time>2013-05-29T13:48:41Z</time>
      </trkpt>
      <trkpt lat="43.36829" lon="5.48595">
        <ele>195</ele>
        <time>2013-05-29T13:48:48Z</time>
      </trkpt>
      <trkpt lat="43.36821" lon="5.4859">
        <ele>196.3</ele>
        <time>2013-05-29T13:48:55Z</time>
      </trkpt>
      <trkpt lat="43.36814" lon="5.48584">
        <ele>196.3</ele>
        <time>2013-05-29T13:49:02Z</time>
      </trkpt>
      <trkpt lat="43.36807" lon="5.48578">
        <ele>195.1</ele>
        <time>2013-05-29T13:49:11Z</time>
      </trkpt>
      <trkpt lat="43.36799" lon="5.48576">
        <ele>196.8</ele>
        <time>2013-05-29T13:49:19Z</time>
      </trkpt>
      <trkpt lat="43.36797" lon="5.48576">
        <ele>197.1</ele>
        <time>2013-05-29T13:49:20Z</time>
      </trkpt>
      <trkpt lat="43.36782" lon="5.48581">
        <ele>198.8</ele>
        <time>2013-05-29T13:49:37Z</time>
      </trkpt>
      <trkpt lat="43.36775" lon="5.48588">
        <ele>197.6</ele>
        <time>2013-05-29T13:49:44Z</time>
      </trkpt>
      <trkpt lat="43.36768" lon="5.48595">
        <ele>197.5</ele>
        <time>2013-05-29T13:49:51Z</time>
      </trkpt>
      <trkpt lat="43.3676" lon="5.48599">
        <ele>197.8</ele>
        <time>2013-05-29T13:49:58Z</time>
      </trkpt>
      <trkpt lat="43.36754" lon="5.48605">
        <ele>197.8</ele>
        <time>2013-05-29T13:50:04Z</time>
      </trkpt>
      <trkpt lat="43.36746" lon="5.48609">
        <ele>198.6</ele>
        <time>2013-05-29T13:50:10Z</time>
      </trkpt>
      <trkpt lat="43.36739" lon="5.48615">
        <ele>196.8</ele>
        <time>2013-05-29T13:50:17Z</time>
      </trkpt>
      <trkpt lat="43.36735" lon="5.48625">
        <ele>194.3</ele>
        <time>2013-05-29T13:50:24Z</time>
      </trkpt>
      <trkpt lat="43.36734" lon="5.48627">
        <ele>193.8</ele>
        <time>2013-05-29T13:50:25Z</time>
      </trkpt>
      <trkpt lat="43.36728" lon="5.48646">
        <ele>193.8</ele>
        <time>2013-05-29T13:50:39Z</time>
      </trkpt>
      <trkpt lat="43.36725" lon="5.48655">
        <ele>193.8</ele>
        <time>2013-05-29T13:50:45Z</time>
      </trkpt>
      <trkpt lat="43.36723" lon="5.48667">
        <ele>193.5</ele>
        <time>2013-05-29T13:50:51Z</time>
      </trkpt>
      <trkpt lat="43.36719" lon="5.48677">
        <ele>195.3</ele>
        <time>2013-05-29T13:50:57Z</time>
      </trkpt>
      <trkpt lat="43.36715" lon="5.48686">
        <ele>193.8</ele>
        <time>2013-05-29T13:51:04Z</time>
      </trkpt>
      <trkpt lat="43.36714" lon="5.48697">
        <ele>192.5</ele>
        <time>2013-05-29T13:51:09Z</time>
      </trkpt>
      <trkpt lat="43.36708" lon="5.48705">
        <ele>192.3</ele>
        <time>2013-05-29T13:51:17Z</time>
      </trkpt>
      <trkpt lat="43.36702" lon="5.48712">
        <ele>194.3</ele>
        <time>2013-05-29T13:51:25Z</time>
      </trkpt>
      <trkpt lat="43.367" lon="5.48714">
        <ele>195.6</ele>
        <time>2013-05-29T13:51:26Z</time>
      </trkpt>
      <trkpt lat="43.3669" lon="5.48726">
        <ele>194</ele>
        <time>2013-05-29T13:51:37Z</time>
      </trkpt>
      <trkpt lat="43.36684" lon="5.48735">
        <ele>193.8</ele>
        <time>2013-05-29T13:51:44Z</time>
      </trkpt>
      <trkpt lat="43.36678" lon="5.48741">
        <ele>199.8</ele>
        <time>2013-05-29T13:51:48Z</time>
      </trkpt>
      <trkpt lat="43.36676" lon="5.48753">
        <ele>200.5</ele>
        <time>2013-05-29T13:51:54Z</time>
      </trkpt>
      <trkpt lat="43.3667" lon="5.48762">
        <ele>193.6</ele>
        <time>2013-05-29T13:52:03Z</time>
      </trkpt>
      <trkpt lat="43.36664" lon="5.48769">
        <ele>194.6</ele>
        <time>2013-05-29T13:52:11Z</time>
      </trkpt>
      <trkpt lat="43.3666" lon="5.4878">
        <ele>190.8</ele>
        <time>2013-05-29T13:52:17Z</time>
      </trkpt>
      <trkpt lat="43.36656" lon="5.4879">
        <ele>192.1</ele>
        <time>2013-05-29T13:52:24Z</time>
      </trkpt>
      <trkpt lat="43.36651" lon="5.488">
        <ele>187.6</ele>
        <time>2013-05-29T13:52:29Z</time>
      </trkpt>
      <trkpt lat="43.3665" lon="5.48801">
        <ele>188.6</ele>
        <time>2013-05-29T13:52:30Z</time>
      </trkpt>
      <trkpt lat="43.36635" lon="5.48805">
        <ele>191.1</ele>
        <time>2013-05-29T13:52:41Z</time>
      </trkpt>
      <trkpt lat="43.3663" lon="5.48815">
        <ele>186.5</ele>
        <time>2013-05-29T13:52:50Z</time>
      </trkpt>
      <trkpt lat="43.36628" lon="5.48827">
        <ele>187.6</ele>
        <time>2013-05-29T13:52:56Z</time>
      </trkpt>
      <trkpt lat="43.36622" lon="5.48834">
        <ele>188.6</ele>
        <time>2013-05-29T13:53:02Z</time>
      </trkpt>
      <trkpt lat="43.36615" lon="5.48842">
        <ele>185.1</ele>
        <time>2013-05-29T13:53:12Z</time>
      </trkpt>
      <trkpt lat="43.36607" lon="5.48844">
        <ele>184</ele>
        <time>2013-05-29T13:53:18Z</time>
      </trkpt>
      <trkpt lat="43.36599" lon="5.48838">
        <ele>182.6</ele>
        <time>2013-05-29T13:53:34Z</time>
      </trkpt>
      <trkpt lat="43.36599" lon="5.48837">
        <ele>184.1</ele>
        <time>2013-05-29T13:53:35Z</time>
      </trkpt>
      <trkpt lat="43.36598" lon="5.48837">
        <ele>184.8</ele>
        <time>2013-05-29T13:53:36Z</time>
      </trkpt>
    </trkseg>
  </trk>
</gpx>